<?xml version="1.0" encoding="UTF-8" standalone="no" ?>
<gpx xmlns="http://www.topografix.com/GPX/1/1" xmlns:xsi="http://www.w3.org/2001/XMLSchema-instance" xsi:schemaLocation="http://www.topografix.com/GPX/1/1 http://www.topografix.com/GPX/1/1/gpx.xsd" version="1.1" creator="VisuGPX - https://www.visugpx.com">
  <metadata>
    <name>Soissons vauxbuin 37km</name>
  </metadata>
  <trk>
    <name><![CDATA[Soissons par cimetière vauxbuin]]></name>
    <trkseg>
      <trkpt lat="49.38129" lon="3.33325">
        <ele>43</ele>
        <time>2021-03-21T13:53:34.000Z</time>
      </trkpt>
      <trkpt lat="49.38129" lon="3.33325">
        <ele>43</ele>
        <time>2021-03-21T13:53:35.000Z</time>
      </trkpt>
      <trkpt lat="49.38129" lon="3.33321">
        <ele>43</ele>
        <time>2021-03-21T13:55:20.000Z</time>
      </trkpt>
      <trkpt lat="49.38132" lon="3.33319">
        <ele>43</ele>
        <time>2021-03-21T13:55:22.000Z</time>
      </trkpt>
      <trkpt lat="49.38141" lon="3.33316">
        <ele>43.200000762939</ele>
        <time>2021-03-21T13:55:26.000Z</time>
      </trkpt>
      <trkpt lat="49.38168" lon="3.33317">
        <ele>43.799999237061</ele>
        <time>2021-03-21T13:55:32.000Z</time>
      </trkpt>
      <trkpt lat="49.38191" lon="3.33314">
        <ele>43</ele>
        <time>2021-03-21T13:55:39.000Z</time>
      </trkpt>
      <trkpt lat="49.38203" lon="3.3331">
        <ele>43</ele>
        <time>2021-03-21T13:55:44.000Z</time>
      </trkpt>
      <trkpt lat="49.38206" lon="3.3331">
        <ele>42.799999237061</ele>
        <time>2021-03-21T13:55:47.000Z</time>
      </trkpt>
      <trkpt lat="49.38209" lon="3.33311">
        <ele>42.799999237061</ele>
        <time>2021-03-21T13:55:55.000Z</time>
      </trkpt>
      <trkpt lat="49.38214" lon="3.33295">
        <ele>42.200000762939</ele>
        <time>2021-03-21T13:56:00.000Z</time>
      </trkpt>
      <trkpt lat="49.38211" lon="3.33272">
        <ele>42.200000762939</ele>
        <time>2021-03-21T13:56:05.000Z</time>
      </trkpt>
      <trkpt lat="49.38195" lon="3.33223">
        <ele>42.799999237061</ele>
        <time>2021-03-21T13:56:14.000Z</time>
      </trkpt>
      <trkpt lat="49.38179" lon="3.33172">
        <ele>43</ele>
        <time>2021-03-21T13:56:23.000Z</time>
      </trkpt>
      <trkpt lat="49.38168" lon="3.33146">
        <ele>43</ele>
        <time>2021-03-21T13:56:29.000Z</time>
      </trkpt>
      <trkpt lat="49.38144" lon="3.33048">
        <ele>43.3</ele>
      </trkpt>
      <trkpt lat="49.38156" lon="3.33041">
        <ele>43.4</ele>
      </trkpt>
      <trkpt lat="49.38172" lon="3.3304">
        <ele>43.3</ele>
      </trkpt>
      <trkpt lat="49.38177" lon="3.33038">
        <ele>43.599998474121</ele>
        <time>2021-03-21T13:57:24.000Z</time>
      </trkpt>
      <trkpt lat="49.38198" lon="3.33031">
        <ele>43</ele>
        <time>2021-03-21T13:57:30.000Z</time>
      </trkpt>
      <trkpt lat="49.3823" lon="3.33025">
        <ele>42.599998474121</ele>
        <time>2021-03-21T13:57:39.000Z</time>
      </trkpt>
      <trkpt lat="49.38253" lon="3.33021">
        <ele>42</ele>
        <time>2021-03-21T13:57:46.000Z</time>
      </trkpt>
      <trkpt lat="49.38285" lon="3.33025">
        <ele>41.599998474121</ele>
        <time>2021-03-21T13:57:55.000Z</time>
      </trkpt>
      <trkpt lat="49.3831" lon="3.33028">
        <ele>40.799999237061</ele>
        <time>2021-03-21T13:58:02.000Z</time>
      </trkpt>
      <trkpt lat="49.38332" lon="3.33033">
        <ele>40</ele>
        <time>2021-03-21T13:58:09.000Z</time>
      </trkpt>
      <trkpt lat="49.38356" lon="3.33037">
        <ele>40</ele>
        <time>2021-03-21T13:58:16.000Z</time>
      </trkpt>
      <trkpt lat="49.38392" lon="3.33038">
        <ele>41.400001525879</ele>
        <time>2021-03-21T13:58:26.000Z</time>
      </trkpt>
      <trkpt lat="49.38416" lon="3.33037">
        <ele>43</ele>
        <time>2021-03-21T13:58:33.000Z</time>
      </trkpt>
      <trkpt lat="49.38443" lon="3.33037">
        <ele>42.200000762939</ele>
        <time>2021-03-21T13:58:41.000Z</time>
      </trkpt>
      <trkpt lat="49.38462" lon="3.33032">
        <ele>40.799999237061</ele>
        <time>2021-03-21T13:58:46.000Z</time>
      </trkpt>
      <trkpt lat="49.3847" lon="3.3303">
        <ele>40.599998474121</ele>
        <time>2021-03-21T13:58:48.000Z</time>
      </trkpt>
      <trkpt lat="49.38489" lon="3.33024">
        <ele>41.599998474121</ele>
        <time>2021-03-21T13:58:54.000Z</time>
      </trkpt>
      <trkpt lat="49.38503" lon="3.33009">
        <ele>44.400001525879</ele>
        <time>2021-03-21T13:58:59.000Z</time>
      </trkpt>
      <trkpt lat="49.38515" lon="3.33007">
        <ele>46</ele>
        <time>2021-03-21T13:59:04.000Z</time>
      </trkpt>
      <trkpt lat="49.38531" lon="3.33004">
        <ele>47.599998474121</ele>
        <time>2021-03-21T13:59:09.000Z</time>
      </trkpt>
      <trkpt lat="49.38553" lon="3.32995">
        <ele>48</ele>
        <time>2021-03-21T13:59:15.000Z</time>
      </trkpt>
      <trkpt lat="49.38567" lon="3.32984">
        <ele>47</ele>
        <time>2021-03-21T13:59:20.000Z</time>
      </trkpt>
      <trkpt lat="49.3858" lon="3.32979">
        <ele>46.599998474121</ele>
        <time>2021-03-21T13:59:24.000Z</time>
      </trkpt>
      <trkpt lat="49.38595" lon="3.3297">
        <ele>46.799999237061</ele>
        <time>2021-03-21T13:59:28.000Z</time>
      </trkpt>
      <trkpt lat="49.38615" lon="3.3296">
        <ele>47.200000762939</ele>
        <time>2021-03-21T13:59:33.000Z</time>
      </trkpt>
      <trkpt lat="49.38635" lon="3.32951">
        <ele>47.599998474121</ele>
        <time>2021-03-21T13:59:39.000Z</time>
      </trkpt>
      <trkpt lat="49.38654" lon="3.32943">
        <ele>47.200000762939</ele>
        <time>2021-03-21T13:59:44.000Z</time>
      </trkpt>
      <trkpt lat="49.3867" lon="3.32931">
        <ele>46.599998474121</ele>
        <time>2021-03-21T13:59:49.000Z</time>
      </trkpt>
      <trkpt lat="49.38689" lon="3.32926">
        <ele>44.799999237061</ele>
        <time>2021-03-21T13:59:53.000Z</time>
      </trkpt>
      <trkpt lat="49.38707" lon="3.32914">
        <ele>43.799999237061</ele>
        <time>2021-03-21T13:59:58.000Z</time>
      </trkpt>
      <trkpt lat="49.38723" lon="3.32905">
        <ele>43.200000762939</ele>
        <time>2021-03-21T14:00:03.000Z</time>
      </trkpt>
      <trkpt lat="49.38744" lon="3.32898">
        <ele>43.799999237061</ele>
        <time>2021-03-21T14:00:08.000Z</time>
      </trkpt>
      <trkpt lat="49.38766" lon="3.32889">
        <ele>44.799999237061</ele>
        <time>2021-03-21T14:00:13.000Z</time>
      </trkpt>
      <trkpt lat="49.38784" lon="3.32879">
        <ele>44.799999237061</ele>
        <time>2021-03-21T14:00:18.000Z</time>
      </trkpt>
      <trkpt lat="49.388" lon="3.32865">
        <ele>44.799999237061</ele>
        <time>2021-03-21T14:00:23.000Z</time>
      </trkpt>
      <trkpt lat="49.38812" lon="3.32858">
        <ele>44.400001525879</ele>
        <time>2021-03-21T14:00:27.000Z</time>
      </trkpt>
      <trkpt lat="49.3883" lon="3.32853">
        <ele>44.200000762939</ele>
        <time>2021-03-21T14:00:31.000Z</time>
      </trkpt>
      <trkpt lat="49.38848" lon="3.32846">
        <ele>43.799999237061</ele>
        <time>2021-03-21T14:00:36.000Z</time>
      </trkpt>
      <trkpt lat="49.38865" lon="3.32841">
        <ele>44.200000762939</ele>
        <time>2021-03-21T14:00:41.000Z</time>
      </trkpt>
      <trkpt lat="49.38888" lon="3.32832">
        <ele>44.799999237061</ele>
        <time>2021-03-21T14:00:47.000Z</time>
      </trkpt>
      <trkpt lat="49.38907" lon="3.32826">
        <ele>44.400001525879</ele>
        <time>2021-03-21T14:00:52.000Z</time>
      </trkpt>
      <trkpt lat="49.38924" lon="3.3282">
        <ele>44.599998474121</ele>
        <time>2021-03-21T14:00:56.000Z</time>
      </trkpt>
      <trkpt lat="49.38948" lon="3.32813">
        <ele>46.400001525879</ele>
        <time>2021-03-21T14:01:02.000Z</time>
      </trkpt>
      <trkpt lat="49.38966" lon="3.32805">
        <ele>47.599998474121</ele>
        <time>2021-03-21T14:01:07.000Z</time>
      </trkpt>
      <trkpt lat="49.38982" lon="3.32799">
        <ele>46.200000762939</ele>
        <time>2021-03-21T14:01:12.000Z</time>
      </trkpt>
      <trkpt lat="49.38998" lon="3.32798">
        <ele>44</ele>
        <time>2021-03-21T14:01:16.000Z</time>
      </trkpt>
      <trkpt lat="49.39009" lon="3.3279">
        <ele>44</ele>
        <time>2021-03-21T14:01:20.000Z</time>
      </trkpt>
      <trkpt lat="49.39008" lon="3.3278">
        <ele>44.400001525879</ele>
        <time>2021-03-21T14:01:24.000Z</time>
      </trkpt>
      <trkpt lat="49.39008" lon="3.32777">
        <ele>44.400001525879</ele>
        <time>2021-03-21T14:01:25.000Z</time>
      </trkpt>
      <trkpt lat="49.39014" lon="3.32768">
        <ele>44.599998474121</ele>
        <time>2021-03-21T14:01:29.000Z</time>
      </trkpt>
      <trkpt lat="49.39015" lon="3.32765">
        <ele>44.599998474121</ele>
        <time>2021-03-21T14:01:30.000Z</time>
      </trkpt>
      <trkpt lat="49.39014" lon="3.32752">
        <ele>44.799999237061</ele>
        <time>2021-03-21T14:01:33.000Z</time>
      </trkpt>
      <trkpt lat="49.39015" lon="3.32743">
        <ele>44.599998474121</ele>
        <time>2021-03-21T14:01:35.000Z</time>
      </trkpt>
      <trkpt lat="49.3902" lon="3.32735">
        <ele>44.400001525879</ele>
        <time>2021-03-21T14:01:37.000Z</time>
      </trkpt>
      <trkpt lat="49.39035" lon="3.32715">
        <ele>44.200000762939</ele>
        <time>2021-03-21T14:01:42.000Z</time>
      </trkpt>
      <trkpt lat="49.39047" lon="3.32699">
        <ele>43.400001525879</ele>
        <time>2021-03-21T14:01:47.000Z</time>
      </trkpt>
      <trkpt lat="49.39067" lon="3.32701">
        <ele>43.799999237061</ele>
        <time>2021-03-21T14:01:52.000Z</time>
      </trkpt>
      <trkpt lat="49.39078" lon="3.32706">
        <ele>44.200000762939</ele>
        <time>2021-03-21T14:01:55.000Z</time>
      </trkpt>
      <trkpt lat="49.3908" lon="3.32706">
        <ele>44.200000762939</ele>
        <time>2021-03-21T14:01:56.000Z</time>
      </trkpt>
      <trkpt lat="49.39086" lon="3.32701">
        <ele>43.799999237061</ele>
        <time>2021-03-21T14:01:58.000Z</time>
      </trkpt>
      <trkpt lat="49.39088" lon="3.32697">
        <ele>43.599998474121</ele>
        <time>2021-03-21T14:01:59.000Z</time>
      </trkpt>
      <trkpt lat="49.39089" lon="3.32674">
        <ele>42.200000762939</ele>
        <time>2021-03-21T14:02:03.000Z</time>
      </trkpt>
      <trkpt lat="49.39094" lon="3.32652">
        <ele>41.200000762939</ele>
        <time>2021-03-21T14:02:07.000Z</time>
      </trkpt>
      <trkpt lat="49.39113" lon="3.32625">
        <ele>40.799999237061</ele>
        <time>2021-03-21T14:02:14.000Z</time>
      </trkpt>
      <trkpt lat="49.39134" lon="3.32595">
        <ele>42</ele>
        <time>2021-03-21T14:02:22.000Z</time>
      </trkpt>
      <trkpt lat="49.39149" lon="3.32594">
        <ele>42.400001525879</ele>
        <time>2021-03-21T14:02:26.000Z</time>
      </trkpt>
      <trkpt lat="49.39153" lon="3.32595">
        <ele>42.599998474121</ele>
        <time>2021-03-21T14:02:27.000Z</time>
      </trkpt>
      <trkpt lat="49.39159" lon="3.3259">
        <ele>42.799999237061</ele>
        <time>2021-03-21T14:02:29.000Z</time>
      </trkpt>
      <trkpt lat="49.39174" lon="3.32569">
        <ele>43</ele>
        <time>2021-03-21T14:02:34.000Z</time>
      </trkpt>
      <trkpt lat="49.39187" lon="3.32548">
        <ele>43.200000762939</ele>
        <time>2021-03-21T14:02:39.000Z</time>
      </trkpt>
      <trkpt lat="49.39212" lon="3.32536">
        <ele>42.799999237061</ele>
        <time>2021-03-21T14:02:45.000Z</time>
      </trkpt>
      <trkpt lat="49.39226" lon="3.32531">
        <ele>42.799999237061</ele>
        <time>2021-03-21T14:02:48.000Z</time>
      </trkpt>
      <trkpt lat="49.39239" lon="3.32526">
        <ele>42.799999237061</ele>
        <time>2021-03-21T14:02:51.000Z</time>
      </trkpt>
      <trkpt lat="49.3926" lon="3.32508">
        <ele>43.400001525879</ele>
        <time>2021-03-21T14:02:56.000Z</time>
      </trkpt>
      <trkpt lat="49.39265" lon="3.32497">
        <ele>43.599998474121</ele>
        <time>2021-03-21T14:02:58.000Z</time>
      </trkpt>
      <trkpt lat="49.39261" lon="3.32484">
        <ele>43.799999237061</ele>
        <time>2021-03-21T14:03:00.000Z</time>
      </trkpt>
      <trkpt lat="49.39252" lon="3.32446">
        <ele>45</ele>
        <time>2021-03-21T14:03:06.000Z</time>
      </trkpt>
      <trkpt lat="49.39249" lon="3.32415">
        <ele>46</ele>
        <time>2021-03-21T14:03:11.000Z</time>
      </trkpt>
      <trkpt lat="49.39248" lon="3.32383">
        <ele>47</ele>
        <time>2021-03-21T14:03:16.000Z</time>
      </trkpt>
      <trkpt lat="49.39246" lon="3.32346">
        <ele>47</ele>
        <time>2021-03-21T14:03:22.000Z</time>
      </trkpt>
      <trkpt lat="49.39247" lon="3.32333">
        <ele>47</ele>
        <time>2021-03-21T14:03:24.000Z</time>
      </trkpt>
      <trkpt lat="49.39246" lon="3.32307">
        <ele>47.799999237061</ele>
        <time>2021-03-21T14:03:28.000Z</time>
      </trkpt>
      <trkpt lat="49.39245" lon="3.32287">
        <ele>48</ele>
        <time>2021-03-21T14:03:31.000Z</time>
      </trkpt>
      <trkpt lat="49.39245" lon="3.32267">
        <ele>48</ele>
        <time>2021-03-21T14:03:34.000Z</time>
      </trkpt>
      <trkpt lat="49.39243" lon="3.32262">
        <ele>48</ele>
        <time>2021-03-21T14:03:35.000Z</time>
      </trkpt>
      <trkpt lat="49.39238" lon="3.32253">
        <ele>48</ele>
        <time>2021-03-21T14:03:37.000Z</time>
      </trkpt>
      <trkpt lat="49.3922" lon="3.32245">
        <ele>48</ele>
        <time>2021-03-21T14:03:42.000Z</time>
      </trkpt>
      <trkpt lat="49.39202" lon="3.32243">
        <ele>47.400001525879</ele>
        <time>2021-03-21T14:03:46.000Z</time>
      </trkpt>
      <trkpt lat="49.39192" lon="3.3224">
        <ele>47</ele>
        <time>2021-03-21T14:03:48.000Z</time>
      </trkpt>
      <trkpt lat="49.39163" lon="3.32237">
        <ele>45.200000762939</ele>
        <time>2021-03-21T14:03:54.000Z</time>
      </trkpt>
      <trkpt lat="49.39147" lon="3.32226">
        <ele>45</ele>
        <time>2021-03-21T14:03:58.000Z</time>
      </trkpt>
      <trkpt lat="49.39142" lon="3.32213">
        <ele>45.200000762939</ele>
        <time>2021-03-21T14:04:00.000Z</time>
      </trkpt>
      <trkpt lat="49.39141" lon="3.32206">
        <ele>45.200000762939</ele>
        <time>2021-03-21T14:04:01.000Z</time>
      </trkpt>
      <trkpt lat="49.39142" lon="3.32181">
        <ele>45.200000762939</ele>
        <time>2021-03-21T14:04:05.000Z</time>
      </trkpt>
      <trkpt lat="49.39142" lon="3.32175">
        <ele>45.200000762939</ele>
        <time>2021-03-21T14:04:06.000Z</time>
      </trkpt>
      <trkpt lat="49.39144" lon="3.32125">
        <ele>44.200000762939</ele>
        <time>2021-03-21T14:04:14.000Z</time>
      </trkpt>
      <trkpt lat="49.39146" lon="3.32094">
        <ele>44</ele>
        <time>2021-03-21T14:04:19.000Z</time>
      </trkpt>
      <trkpt lat="49.39149" lon="3.32049">
        <ele>43.400001525879</ele>
        <time>2021-03-21T14:04:26.000Z</time>
      </trkpt>
      <trkpt lat="49.39151" lon="3.32032">
        <ele>43.599998474121</ele>
        <time>2021-03-21T14:04:29.000Z</time>
      </trkpt>
      <trkpt lat="49.39155" lon="3.32026">
        <ele>43.599998474121</ele>
        <time>2021-03-21T14:04:31.000Z</time>
      </trkpt>
      <trkpt lat="49.39163" lon="3.32014">
        <ele>43.599998474121</ele>
        <time>2021-03-21T14:04:36.000Z</time>
      </trkpt>
      <trkpt lat="49.39163" lon="3.32009">
        <ele>43.400001525879</ele>
        <time>2021-03-21T14:04:38.000Z</time>
      </trkpt>
      <trkpt lat="49.39162" lon="3.32">
        <ele>43.200000762939</ele>
        <time>2021-03-21T14:04:40.000Z</time>
      </trkpt>
      <trkpt lat="49.39169" lon="3.31978">
        <ele>43.200000762939</ele>
        <time>2021-03-21T14:04:45.000Z</time>
      </trkpt>
      <trkpt lat="49.39167" lon="3.31958">
        <ele>42.599998474121</ele>
        <time>2021-03-21T14:04:50.000Z</time>
      </trkpt>
      <trkpt lat="49.39155" lon="3.31938">
        <ele>42.400001525879</ele>
        <time>2021-03-21T14:04:56.000Z</time>
      </trkpt>
      <trkpt lat="49.39153" lon="3.31918">
        <ele>43.200000762939</ele>
        <time>2021-03-21T14:05:00.000Z</time>
      </trkpt>
      <trkpt lat="49.39157" lon="3.31892">
        <ele>44</ele>
        <time>2021-03-21T14:05:06.000Z</time>
      </trkpt>
      <trkpt lat="49.39154" lon="3.3185">
        <ele>45</ele>
        <time>2021-03-21T14:05:13.000Z</time>
      </trkpt>
      <trkpt lat="49.39158" lon="3.31794">
        <ele>43</ele>
        <time>2021-03-21T14:05:22.000Z</time>
      </trkpt>
      <trkpt lat="49.39157" lon="3.31723">
        <ele>42</ele>
        <time>2021-03-21T14:05:33.000Z</time>
      </trkpt>
      <trkpt lat="49.39155" lon="3.31658">
        <ele>40.799999237061</ele>
        <time>2021-03-21T14:05:43.000Z</time>
      </trkpt>
      <trkpt lat="49.39153" lon="3.31591">
        <ele>40</ele>
        <time>2021-03-21T14:05:52.000Z</time>
      </trkpt>
      <trkpt lat="49.39157" lon="3.31522">
        <ele>40.200000762939</ele>
        <time>2021-03-21T14:06:01.000Z</time>
      </trkpt>
      <trkpt lat="49.3916" lon="3.31441">
        <ele>39.200000762939</ele>
        <time>2021-03-21T14:06:12.000Z</time>
      </trkpt>
      <trkpt lat="49.39159" lon="3.31436">
        <ele>39.200000762939</ele>
        <time>2021-03-21T14:06:14.000Z</time>
      </trkpt>
      <trkpt lat="49.39157" lon="3.31437">
        <ele>39.200000762939</ele>
        <time>2021-03-21T14:06:15.000Z</time>
      </trkpt>
      <trkpt lat="49.39153" lon="3.31455">
        <ele>40</ele>
        <time>2021-03-21T14:06:19.000Z</time>
      </trkpt>
      <trkpt lat="49.39143" lon="3.31454">
        <ele>40.200000762939</ele>
        <time>2021-03-21T14:06:22.000Z</time>
      </trkpt>
      <trkpt lat="49.39123" lon="3.31422">
        <ele>40.400001525879</ele>
        <time>2021-03-21T14:06:29.000Z</time>
      </trkpt>
      <trkpt lat="49.39115" lon="3.31409">
        <ele>40.799999237061</ele>
        <time>2021-03-21T14:06:32.000Z</time>
      </trkpt>
      <trkpt lat="49.39108" lon="3.31402">
        <ele>41</ele>
        <time>2021-03-21T14:06:34.000Z</time>
      </trkpt>
      <trkpt lat="49.39103" lon="3.31401">
        <ele>41.200000762939</ele>
        <time>2021-03-21T14:06:35.000Z</time>
      </trkpt>
      <trkpt lat="49.39085" lon="3.31399">
        <ele>41.799999237061</ele>
        <time>2021-03-21T14:06:39.000Z</time>
      </trkpt>
      <trkpt lat="49.39051" lon="3.31402">
        <ele>43</ele>
        <time>2021-03-21T14:06:47.000Z</time>
      </trkpt>
      <trkpt lat="49.39038" lon="3.31401">
        <ele>43</ele>
        <time>2021-03-21T14:06:50.000Z</time>
      </trkpt>
      <trkpt lat="49.39029" lon="3.31397">
        <ele>43</ele>
        <time>2021-03-21T14:06:52.000Z</time>
      </trkpt>
      <trkpt lat="49.3899" lon="3.31372">
        <ele>42</ele>
        <time>2021-03-21T14:07:01.000Z</time>
      </trkpt>
      <trkpt lat="49.38952" lon="3.31352">
        <ele>41.799999237061</ele>
        <time>2021-03-21T14:07:09.000Z</time>
      </trkpt>
      <trkpt lat="49.38926" lon="3.31337">
        <ele>41.400001525879</ele>
        <time>2021-03-21T14:07:15.000Z</time>
      </trkpt>
      <trkpt lat="49.38923" lon="3.31334">
        <ele>41.200000762939</ele>
        <time>2021-03-21T14:07:16.000Z</time>
      </trkpt>
      <trkpt lat="49.38915" lon="3.3132">
        <ele>41</ele>
        <time>2021-03-21T14:07:21.000Z</time>
      </trkpt>
      <trkpt lat="49.38896" lon="3.31306">
        <ele>41</ele>
        <time>2021-03-21T14:07:27.000Z</time>
      </trkpt>
      <trkpt lat="49.3886" lon="3.31289">
        <ele>41</ele>
        <time>2021-03-21T14:07:35.000Z</time>
      </trkpt>
      <trkpt lat="49.38812" lon="3.31272">
        <ele>40.400001525879</ele>
        <time>2021-03-21T14:07:45.000Z</time>
      </trkpt>
      <trkpt lat="49.38766" lon="3.3127">
        <ele>42.200000762939</ele>
        <time>2021-03-21T14:07:54.000Z</time>
      </trkpt>
      <trkpt lat="49.38719" lon="3.31268">
        <ele>41.799999237061</ele>
        <time>2021-03-21T14:08:03.000Z</time>
      </trkpt>
      <trkpt lat="49.38677" lon="3.31267">
        <ele>40.400001525879</ele>
        <time>2021-03-21T14:08:11.000Z</time>
      </trkpt>
      <trkpt lat="49.38635" lon="3.31262">
        <ele>40.599998474121</ele>
        <time>2021-03-21T14:08:19.000Z</time>
      </trkpt>
      <trkpt lat="49.38605" lon="3.31249">
        <ele>41</ele>
        <time>2021-03-21T14:08:25.000Z</time>
      </trkpt>
      <trkpt lat="49.3858" lon="3.31222">
        <ele>41</ele>
        <time>2021-03-21T14:08:31.000Z</time>
      </trkpt>
      <trkpt lat="49.38541" lon="3.31169">
        <ele>41.400001525879</ele>
        <time>2021-03-21T14:08:41.000Z</time>
      </trkpt>
      <trkpt lat="49.38502" lon="3.31117">
        <ele>41.200000762939</ele>
        <time>2021-03-21T14:08:51.000Z</time>
      </trkpt>
      <trkpt lat="49.38486" lon="3.31097">
        <ele>41.400001525879</ele>
        <time>2021-03-21T14:08:55.000Z</time>
      </trkpt>
      <trkpt lat="49.38482" lon="3.31092">
        <ele>41.599998474121</ele>
        <time>2021-03-21T14:08:56.000Z</time>
      </trkpt>
      <trkpt lat="49.38455" lon="3.31053">
        <ele>42.599998474121</ele>
        <time>2021-03-21T14:09:03.000Z</time>
      </trkpt>
      <trkpt lat="49.38416" lon="3.31">
        <ele>43</ele>
        <time>2021-03-21T14:09:13.000Z</time>
      </trkpt>
      <trkpt lat="49.3839" lon="3.3096">
        <ele>43</ele>
        <time>2021-03-21T14:09:20.000Z</time>
      </trkpt>
      <trkpt lat="49.38353" lon="3.30916">
        <ele>42.200000762939</ele>
        <time>2021-03-21T14:09:29.000Z</time>
      </trkpt>
      <trkpt lat="49.38324" lon="3.30904">
        <ele>42.200000762939</ele>
        <time>2021-03-21T14:09:35.000Z</time>
      </trkpt>
      <trkpt lat="49.38288" lon="3.30903">
        <ele>42.599998474121</ele>
        <time>2021-03-21T14:09:42.000Z</time>
      </trkpt>
      <trkpt lat="49.38261" lon="3.30903">
        <ele>42.599998474121</ele>
        <time>2021-03-21T14:09:48.000Z</time>
      </trkpt>
      <trkpt lat="49.38251" lon="3.30904">
        <ele>42.799999237061</ele>
        <time>2021-03-21T14:09:52.000Z</time>
      </trkpt>
      <trkpt lat="49.38234" lon="3.30904">
        <ele>42.599998474121</ele>
        <time>2021-03-21T14:09:57.000Z</time>
      </trkpt>
      <trkpt lat="49.38201" lon="3.30905">
        <ele>42</ele>
        <time>2021-03-21T14:10:04.000Z</time>
      </trkpt>
      <trkpt lat="49.38154" lon="3.30902">
        <ele>41.599998474121</ele>
        <time>2021-03-21T14:10:13.000Z</time>
      </trkpt>
      <trkpt lat="49.38149" lon="3.309">
        <ele>41.400001525879</ele>
        <time>2021-03-21T14:10:14.000Z</time>
      </trkpt>
      <trkpt lat="49.38141" lon="3.3089">
        <ele>41.200000762939</ele>
        <time>2021-03-21T14:10:16.000Z</time>
      </trkpt>
      <trkpt lat="49.38132" lon="3.30872">
        <ele>41</ele>
        <time>2021-03-21T14:10:19.000Z</time>
      </trkpt>
      <trkpt lat="49.3813" lon="3.30857">
        <ele>41</ele>
        <time>2021-03-21T14:10:21.000Z</time>
      </trkpt>
      <trkpt lat="49.3813" lon="3.30808">
        <ele>41</ele>
        <time>2021-03-21T14:10:27.000Z</time>
      </trkpt>
      <trkpt lat="49.38131" lon="3.30776">
        <ele>41.200000762939</ele>
        <time>2021-03-21T14:10:31.000Z</time>
      </trkpt>
      <trkpt lat="49.3813" lon="3.3076">
        <ele>41.400001525879</ele>
        <time>2021-03-21T14:10:33.000Z</time>
      </trkpt>
      <trkpt lat="49.38128" lon="3.30697">
        <ele>42.599998474121</ele>
        <time>2021-03-21T14:10:41.000Z</time>
      </trkpt>
      <trkpt lat="49.38128" lon="3.30674">
        <ele>42</ele>
        <time>2021-03-21T14:10:44.000Z</time>
      </trkpt>
      <trkpt lat="49.38125" lon="3.3066">
        <ele>41.799999237061</ele>
        <time>2021-03-21T14:10:46.000Z</time>
      </trkpt>
      <trkpt lat="49.38122" lon="3.30654">
        <ele>42</ele>
        <time>2021-03-21T14:10:47.000Z</time>
      </trkpt>
      <trkpt lat="49.38118" lon="3.3065">
        <ele>42.200000762939</ele>
        <time>2021-03-21T14:10:48.000Z</time>
      </trkpt>
      <trkpt lat="49.38108" lon="3.30645">
        <ele>43</ele>
        <time>2021-03-21T14:10:50.000Z</time>
      </trkpt>
      <trkpt lat="49.38087" lon="3.30642">
        <ele>44.599998474121</ele>
        <time>2021-03-21T14:10:54.000Z</time>
      </trkpt>
      <trkpt lat="49.38076" lon="3.30638">
        <ele>45</ele>
        <time>2021-03-21T14:10:56.000Z</time>
      </trkpt>
      <trkpt lat="49.38068" lon="3.30628">
        <ele>44.799999237061</ele>
        <time>2021-03-21T14:10:58.000Z</time>
      </trkpt>
      <trkpt lat="49.38064" lon="3.30622">
        <ele>44.599998474121</ele>
        <time>2021-03-21T14:10:59.000Z</time>
      </trkpt>
      <trkpt lat="49.38062" lon="3.30616">
        <ele>44.400001525879</ele>
        <time>2021-03-21T14:11:00.000Z</time>
      </trkpt>
      <trkpt lat="49.38045" lon="3.30578">
        <ele>43.799999237061</ele>
        <time>2021-03-21T14:11:06.000Z</time>
      </trkpt>
      <trkpt lat="49.38018" lon="3.30528">
        <ele>42.200000762939</ele>
        <time>2021-03-21T14:11:14.000Z</time>
      </trkpt>
      <trkpt lat="49.37992" lon="3.30479">
        <ele>42</ele>
        <time>2021-03-21T14:11:22.000Z</time>
      </trkpt>
      <trkpt lat="49.37962" lon="3.30423">
        <ele>42</ele>
        <time>2021-03-21T14:11:31.000Z</time>
      </trkpt>
      <trkpt lat="49.37945" lon="3.30391">
        <ele>42</ele>
        <time>2021-03-21T14:11:36.000Z</time>
      </trkpt>
      <trkpt lat="49.37937" lon="3.30378">
        <ele>42.200000762939</ele>
        <time>2021-03-21T14:11:38.000Z</time>
      </trkpt>
      <trkpt lat="49.37915" lon="3.30329">
        <ele>43</ele>
        <time>2021-03-21T14:11:45.000Z</time>
      </trkpt>
      <trkpt lat="49.37891" lon="3.30284">
        <ele>43</ele>
        <time>2021-03-21T14:11:52.000Z</time>
      </trkpt>
      <trkpt lat="49.37871" lon="3.30247">
        <ele>42.400001525879</ele>
        <time>2021-03-21T14:11:58.000Z</time>
      </trkpt>
      <trkpt lat="49.3784" lon="3.30189">
        <ele>42.200000762939</ele>
        <time>2021-03-21T14:12:07.000Z</time>
      </trkpt>
      <trkpt lat="49.37809" lon="3.30132">
        <ele>43.200000762939</ele>
        <time>2021-03-21T14:12:16.000Z</time>
      </trkpt>
      <trkpt lat="49.37783" lon="3.30081">
        <ele>43.799999237061</ele>
        <time>2021-03-21T14:12:24.000Z</time>
      </trkpt>
      <trkpt lat="49.3775" lon="3.30017">
        <ele>41.400001525879</ele>
        <time>2021-03-21T14:12:34.000Z</time>
      </trkpt>
      <trkpt lat="49.37729" lon="3.29977">
        <ele>40.599998474121</ele>
        <time>2021-03-21T14:12:40.000Z</time>
      </trkpt>
      <trkpt lat="49.37713" lon="3.29933">
        <ele>40.799999237061</ele>
        <time>2021-03-21T14:12:46.000Z</time>
      </trkpt>
      <trkpt lat="49.37702" lon="3.29881">
        <ele>41.799999237061</ele>
        <time>2021-03-21T14:12:53.000Z</time>
      </trkpt>
      <trkpt lat="49.37685" lon="3.29812">
        <ele>41.799999237061</ele>
        <time>2021-03-21T14:13:02.000Z</time>
      </trkpt>
      <trkpt lat="49.37665" lon="3.29726">
        <ele>43.599998474121</ele>
        <time>2021-03-21T14:13:13.000Z</time>
      </trkpt>
      <trkpt lat="49.37652" lon="3.29667">
        <ele>44.400001525879</ele>
        <time>2021-03-21T14:13:21.000Z</time>
      </trkpt>
      <trkpt lat="49.37648" lon="3.29654">
        <ele>44.400001525879</ele>
        <time>2021-03-21T14:13:23.000Z</time>
      </trkpt>
      <trkpt lat="49.37645" lon="3.29636">
        <ele>43.799999237061</ele>
        <time>2021-03-21T14:13:26.000Z</time>
      </trkpt>
      <trkpt lat="49.37639" lon="3.29609">
        <ele>43</ele>
        <time>2021-03-21T14:13:31.000Z</time>
      </trkpt>
      <trkpt lat="49.37631" lon="3.29573">
        <ele>43</ele>
        <time>2021-03-21T14:13:38.000Z</time>
      </trkpt>
      <trkpt lat="49.37621" lon="3.29541">
        <ele>42.799999237061</ele>
        <time>2021-03-21T14:13:45.000Z</time>
      </trkpt>
      <trkpt lat="49.37611" lon="3.2951">
        <ele>43.799999237061</ele>
        <time>2021-03-21T14:13:52.000Z</time>
      </trkpt>
      <trkpt lat="49.37596" lon="3.2948">
        <ele>44.400001525879</ele>
        <time>2021-03-21T14:13:59.000Z</time>
      </trkpt>
      <trkpt lat="49.37576" lon="3.2944">
        <ele>44</ele>
        <time>2021-03-21T14:14:07.000Z</time>
      </trkpt>
      <trkpt lat="49.37554" lon="3.29402">
        <ele>44</ele>
        <time>2021-03-21T14:14:14.000Z</time>
      </trkpt>
      <trkpt lat="49.37535" lon="3.29359">
        <ele>45</ele>
        <time>2021-03-21T14:14:20.000Z</time>
      </trkpt>
      <trkpt lat="49.37523" lon="3.29326">
        <ele>45.200000762939</ele>
        <time>2021-03-21T14:14:24.000Z</time>
      </trkpt>
      <trkpt lat="49.37519" lon="3.29308">
        <ele>46.200000762939</ele>
        <time>2021-03-21T14:14:26.000Z</time>
      </trkpt>
      <trkpt lat="49.37508" lon="3.29253">
        <ele>48.599998474121</ele>
        <time>2021-03-21T14:14:33.000Z</time>
      </trkpt>
      <trkpt lat="49.37499" lon="3.29212">
        <ele>51.200000762939</ele>
        <time>2021-03-21T14:14:39.000Z</time>
      </trkpt>
      <trkpt lat="49.37488" lon="3.2916">
        <ele>50.599998474121</ele>
        <time>2021-03-21T14:14:47.000Z</time>
      </trkpt>
      <trkpt lat="49.37486" lon="3.29123">
        <ele>49.200000762939</ele>
        <time>2021-03-21T14:14:53.000Z</time>
      </trkpt>
      <trkpt lat="49.37484" lon="3.2908">
        <ele>50.200000762939</ele>
        <time>2021-03-21T14:15:01.000Z</time>
      </trkpt>
      <trkpt lat="49.37481" lon="3.29051">
        <ele>51.400001525879</ele>
        <time>2021-03-21T14:15:07.000Z</time>
      </trkpt>
      <trkpt lat="49.37476" lon="3.29019">
        <ele>52.799999237061</ele>
        <time>2021-03-21T14:15:14.000Z</time>
      </trkpt>
      <trkpt lat="49.37475" lon="3.28989">
        <ele>54</ele>
        <time>2021-03-21T14:15:21.000Z</time>
      </trkpt>
      <trkpt lat="49.37475" lon="3.28963">
        <ele>55</ele>
        <time>2021-03-21T14:15:28.000Z</time>
      </trkpt>
      <trkpt lat="49.37474" lon="3.2895">
        <ele>56</ele>
        <time>2021-03-21T14:15:32.000Z</time>
      </trkpt>
      <trkpt lat="49.37473" lon="3.28947">
        <ele>56.200000762939</ele>
        <time>2021-03-21T14:15:33.000Z</time>
      </trkpt>
      <trkpt lat="49.37466" lon="3.28935">
        <ele>57.599998474121</ele>
        <time>2021-03-21T14:15:39.000Z</time>
      </trkpt>
      <trkpt lat="49.37453" lon="3.28927">
        <ele>59.400001525879</ele>
        <time>2021-03-21T14:15:46.000Z</time>
      </trkpt>
      <trkpt lat="49.37445" lon="3.2892">
        <ele>60.799999237061</ele>
        <time>2021-03-21T14:15:52.000Z</time>
      </trkpt>
      <trkpt lat="49.37435" lon="3.28911">
        <ele>62.400001525879</ele>
        <time>2021-03-21T14:15:58.000Z</time>
      </trkpt>
      <trkpt lat="49.37427" lon="3.28899">
        <ele>63.799999237061</ele>
        <time>2021-03-21T14:16:04.000Z</time>
      </trkpt>
      <trkpt lat="49.37421" lon="3.28888">
        <ele>65.199996948242</ele>
        <time>2021-03-21T14:16:10.000Z</time>
      </trkpt>
      <trkpt lat="49.37414" lon="3.28873">
        <ele>67.400001525879</ele>
        <time>2021-03-21T14:16:18.000Z</time>
      </trkpt>
      <trkpt lat="49.3741" lon="3.28856">
        <ele>69.800003051758</ele>
        <time>2021-03-21T14:16:25.000Z</time>
      </trkpt>
      <trkpt lat="49.37403" lon="3.28839">
        <ele>71.599998474121</ele>
        <time>2021-03-21T14:16:33.000Z</time>
      </trkpt>
      <trkpt lat="49.37402" lon="3.28821">
        <ele>74</ele>
        <time>2021-03-21T14:16:40.000Z</time>
      </trkpt>
      <trkpt lat="49.37405" lon="3.28809">
        <ele>75.800003051758</ele>
        <time>2021-03-21T14:16:46.000Z</time>
      </trkpt>
      <trkpt lat="49.3741" lon="3.288">
        <ele>77.599998474121</ele>
        <time>2021-03-21T14:16:51.000Z</time>
      </trkpt>
      <trkpt lat="49.37419" lon="3.28785">
        <ele>79.199996948242</ele>
        <time>2021-03-21T14:16:58.000Z</time>
      </trkpt>
      <trkpt lat="49.3742" lon="3.28784">
        <ele>79.400001525879</ele>
        <time>2021-03-21T14:16:59.000Z</time>
      </trkpt>
      <trkpt lat="49.37429" lon="3.28772">
        <ele>80.599998474121</ele>
        <time>2021-03-21T14:17:06.000Z</time>
      </trkpt>
      <trkpt lat="49.3743" lon="3.28769">
        <ele>80.800003051758</ele>
        <time>2021-03-21T14:17:07.000Z</time>
      </trkpt>
      <trkpt lat="49.37429" lon="3.2876">
        <ele>81</ele>
        <time>2021-03-21T14:17:11.000Z</time>
      </trkpt>
      <trkpt lat="49.37428" lon="3.28757">
        <ele>81</ele>
        <time>2021-03-21T14:17:12.000Z</time>
      </trkpt>
      <trkpt lat="49.37426" lon="3.28751">
        <ele>81.199996948242</ele>
        <time>2021-03-21T14:17:15.000Z</time>
      </trkpt>
      <trkpt lat="49.37418" lon="3.28739">
        <ele>81.400001525879</ele>
        <time>2021-03-21T14:17:21.000Z</time>
      </trkpt>
      <trkpt lat="49.37414" lon="3.28726">
        <ele>81.599998474121</ele>
        <time>2021-03-21T14:17:26.000Z</time>
      </trkpt>
      <trkpt lat="49.37413" lon="3.28724">
        <ele>81.800003051758</ele>
        <time>2021-03-21T14:17:27.000Z</time>
      </trkpt>
      <trkpt lat="49.37412" lon="3.2872">
        <ele>82</ele>
        <time>2021-03-21T14:17:29.000Z</time>
      </trkpt>
      <trkpt lat="49.3741" lon="3.28716">
        <ele>82.199996948242</ele>
        <time>2021-03-21T14:17:31.000Z</time>
      </trkpt>
      <trkpt lat="49.37408" lon="3.28712">
        <ele>82.599998474121</ele>
        <time>2021-03-21T14:17:33.000Z</time>
      </trkpt>
      <trkpt lat="49.37406" lon="3.28705">
        <ele>83.199996948242</ele>
        <time>2021-03-21T14:17:36.000Z</time>
      </trkpt>
      <trkpt lat="49.37404" lon="3.28696">
        <ele>83.800003051758</ele>
        <time>2021-03-21T14:17:40.000Z</time>
      </trkpt>
      <trkpt lat="49.37399" lon="3.28685">
        <ele>84.800003051758</ele>
        <time>2021-03-21T14:17:45.000Z</time>
      </trkpt>
      <trkpt lat="49.37397" lon="3.28678">
        <ele>85.599998474121</ele>
        <time>2021-03-21T14:17:48.000Z</time>
      </trkpt>
      <trkpt lat="49.37395" lon="3.28672">
        <ele>86.199996948242</ele>
        <time>2021-03-21T14:17:50.000Z</time>
      </trkpt>
      <trkpt lat="49.37393" lon="3.28668">
        <ele>86.599998474121</ele>
        <time>2021-03-21T14:17:52.000Z</time>
      </trkpt>
      <trkpt lat="49.3739" lon="3.28664">
        <ele>87.400001525879</ele>
        <time>2021-03-21T14:17:54.000Z</time>
      </trkpt>
      <trkpt lat="49.37386" lon="3.28656">
        <ele>88.400001525879</ele>
        <time>2021-03-21T14:17:59.000Z</time>
      </trkpt>
      <trkpt lat="49.37385" lon="3.28654">
        <ele>88.599998474121</ele>
        <time>2021-03-21T14:18:01.000Z</time>
      </trkpt>
      <trkpt lat="49.37367" lon="3.28626">
        <ele>91.800003051758</ele>
        <time>2021-03-21T14:18:18.000Z</time>
      </trkpt>
      <trkpt lat="49.37366" lon="3.28621">
        <ele>92.199996948242</ele>
        <time>2021-03-21T14:18:20.000Z</time>
      </trkpt>
      <trkpt lat="49.37364" lon="3.28609">
        <ele>93.199996948242</ele>
        <time>2021-03-21T14:18:25.000Z</time>
      </trkpt>
      <trkpt lat="49.37362" lon="3.28605">
        <ele>93.599998474121</ele>
        <time>2021-03-21T14:18:27.000Z</time>
      </trkpt>
      <trkpt lat="49.37361" lon="3.28602">
        <ele>94</ele>
        <time>2021-03-21T14:18:29.000Z</time>
      </trkpt>
      <trkpt lat="49.3736" lon="3.28599">
        <ele>94.400001525879</ele>
        <time>2021-03-21T14:18:31.000Z</time>
      </trkpt>
      <trkpt lat="49.37359" lon="3.28591">
        <ele>95.400001525879</ele>
        <time>2021-03-21T14:18:35.000Z</time>
      </trkpt>
      <trkpt lat="49.37356" lon="3.28582">
        <ele>96.800003051758</ele>
        <time>2021-03-21T14:18:40.000Z</time>
      </trkpt>
      <trkpt lat="49.37355" lon="3.28576">
        <ele>97.800003051758</ele>
        <time>2021-03-21T14:18:43.000Z</time>
      </trkpt>
      <trkpt lat="49.37354" lon="3.28564">
        <ele>99.800003051758</ele>
        <time>2021-03-21T14:18:47.000Z</time>
      </trkpt>
      <trkpt lat="49.37354" lon="3.28551">
        <ele>101.59999847412</ele>
        <time>2021-03-21T14:18:52.000Z</time>
      </trkpt>
      <trkpt lat="49.37356" lon="3.28544">
        <ele>102.19999694824</ele>
        <time>2021-03-21T14:18:55.000Z</time>
      </trkpt>
      <trkpt lat="49.37358" lon="3.28537">
        <ele>102.19999694824</ele>
        <time>2021-03-21T14:18:58.000Z</time>
      </trkpt>
      <trkpt lat="49.37359" lon="3.28536">
        <ele>102</ele>
        <time>2021-03-21T14:18:59.000Z</time>
      </trkpt>
      <trkpt lat="49.37359" lon="3.28531">
        <ele>102.40000152588</ele>
        <time>2021-03-21T14:19:02.000Z</time>
      </trkpt>
      <trkpt lat="49.37359" lon="3.28525">
        <ele>103.40000152588</ele>
        <time>2021-03-21T14:19:05.000Z</time>
      </trkpt>
      <trkpt lat="49.37358" lon="3.28521">
        <ele>104</ele>
        <time>2021-03-21T14:19:07.000Z</time>
      </trkpt>
      <trkpt lat="49.37361" lon="3.28511">
        <ele>104</ele>
        <time>2021-03-21T14:19:11.000Z</time>
      </trkpt>
      <trkpt lat="49.37362" lon="3.28504">
        <ele>104.19999694824</ele>
        <time>2021-03-21T14:19:14.000Z</time>
      </trkpt>
      <trkpt lat="49.3736" lon="3.28497">
        <ele>105.80000305176</ele>
        <time>2021-03-21T14:19:18.000Z</time>
      </trkpt>
      <trkpt lat="49.37355" lon="3.28487">
        <ele>108.19999694824</ele>
        <time>2021-03-21T14:19:23.000Z</time>
      </trkpt>
      <trkpt lat="49.37354" lon="3.28483">
        <ele>109.19999694824</ele>
        <time>2021-03-21T14:19:26.000Z</time>
      </trkpt>
      <trkpt lat="49.37353" lon="3.28481">
        <ele>109.40000152588</ele>
        <time>2021-03-21T14:19:27.000Z</time>
      </trkpt>
      <trkpt lat="49.37352" lon="3.28472">
        <ele>110.40000152588</ele>
        <time>2021-03-21T14:19:31.000Z</time>
      </trkpt>
      <trkpt lat="49.37351" lon="3.28466">
        <ele>111</ele>
        <time>2021-03-21T14:19:34.000Z</time>
      </trkpt>
      <trkpt lat="49.3735" lon="3.28463">
        <ele>111.19999694824</ele>
        <time>2021-03-21T14:19:36.000Z</time>
      </trkpt>
      <trkpt lat="49.37347" lon="3.2845">
        <ele>113</ele>
        <time>2021-03-21T14:19:41.000Z</time>
      </trkpt>
      <trkpt lat="49.37342" lon="3.28438">
        <ele>115.59999847412</ele>
        <time>2021-03-21T14:19:47.000Z</time>
      </trkpt>
      <trkpt lat="49.37341" lon="3.28435">
        <ele>116</ele>
        <time>2021-03-21T14:19:48.000Z</time>
      </trkpt>
      <trkpt lat="49.37337" lon="3.28429">
        <ele>116.80000305176</ele>
        <time>2021-03-21T14:19:52.000Z</time>
      </trkpt>
      <trkpt lat="49.37332" lon="3.28418">
        <ele>118.40000152588</ele>
        <time>2021-03-21T14:19:59.000Z</time>
      </trkpt>
      <trkpt lat="49.37329" lon="3.28412">
        <ele>119.19999694824</ele>
        <time>2021-03-21T14:20:02.000Z</time>
      </trkpt>
      <trkpt lat="49.37328" lon="3.28411">
        <ele>119.40000152588</ele>
        <time>2021-03-21T14:20:03.000Z</time>
      </trkpt>
      <trkpt lat="49.37324" lon="3.28401">
        <ele>120</ele>
        <time>2021-03-21T14:20:08.000Z</time>
      </trkpt>
      <trkpt lat="49.3732" lon="3.28393">
        <ele>120.80000305176</ele>
        <time>2021-03-21T14:20:13.000Z</time>
      </trkpt>
      <trkpt lat="49.37317" lon="3.28386">
        <ele>121.40000152588</ele>
        <time>2021-03-21T14:20:17.000Z</time>
      </trkpt>
      <trkpt lat="49.37313" lon="3.28374">
        <ele>122</ele>
        <time>2021-03-21T14:20:23.000Z</time>
      </trkpt>
      <trkpt lat="49.37306" lon="3.28361">
        <ele>123.19999694824</ele>
        <time>2021-03-21T14:20:29.000Z</time>
      </trkpt>
      <trkpt lat="49.37301" lon="3.28351">
        <ele>124.19999694824</ele>
        <time>2021-03-21T14:20:35.000Z</time>
      </trkpt>
      <trkpt lat="49.37297" lon="3.28336">
        <ele>124.59999847412</ele>
        <time>2021-03-21T14:20:43.000Z</time>
      </trkpt>
      <trkpt lat="49.37293" lon="3.28322">
        <ele>125</ele>
        <time>2021-03-21T14:20:49.000Z</time>
      </trkpt>
      <trkpt lat="49.3729" lon="3.28314">
        <ele>125.19999694824</ele>
        <time>2021-03-21T14:20:54.000Z</time>
      </trkpt>
      <trkpt lat="49.37284" lon="3.28295">
        <ele>126.19999694824</ele>
        <time>2021-03-21T14:21:05.000Z</time>
      </trkpt>
      <trkpt lat="49.37281" lon="3.28289">
        <ele>126.59999847412</ele>
        <time>2021-03-21T14:21:08.000Z</time>
      </trkpt>
      <trkpt lat="49.3728" lon="3.28285">
        <ele>127</ele>
        <time>2021-03-21T14:21:10.000Z</time>
      </trkpt>
      <trkpt lat="49.3728" lon="3.28281">
        <ele>127.19999694824</ele>
        <time>2021-03-21T14:21:13.000Z</time>
      </trkpt>
      <trkpt lat="49.37275" lon="3.2827">
        <ele>128</ele>
        <time>2021-03-21T14:21:18.000Z</time>
      </trkpt>
      <trkpt lat="49.37269" lon="3.28258">
        <ele>128.39999389648</ele>
        <time>2021-03-21T14:21:24.000Z</time>
      </trkpt>
      <trkpt lat="49.37264" lon="3.28249">
        <ele>128.80000305176</ele>
        <time>2021-03-21T14:21:28.000Z</time>
      </trkpt>
      <trkpt lat="49.37258" lon="3.28239">
        <ele>129</ele>
        <time>2021-03-21T14:21:33.000Z</time>
      </trkpt>
      <trkpt lat="49.37258" lon="3.28237">
        <ele>129</ele>
        <time>2021-03-21T14:21:34.000Z</time>
      </trkpt>
      <trkpt lat="49.37257" lon="3.28235">
        <ele>129</ele>
        <time>2021-03-21T14:21:35.000Z</time>
      </trkpt>
      <trkpt lat="49.37253" lon="3.2823">
        <ele>129</ele>
        <time>2021-03-21T14:21:39.000Z</time>
      </trkpt>
      <trkpt lat="49.37253" lon="3.28226">
        <ele>129</ele>
        <time>2021-03-21T14:21:41.000Z</time>
      </trkpt>
      <trkpt lat="49.37251" lon="3.28222">
        <ele>129</ele>
        <time>2021-03-21T14:21:43.000Z</time>
      </trkpt>
      <trkpt lat="49.37247" lon="3.28215">
        <ele>129</ele>
        <time>2021-03-21T14:21:47.000Z</time>
      </trkpt>
      <trkpt lat="49.37246" lon="3.28213">
        <ele>129</ele>
        <time>2021-03-21T14:21:48.000Z</time>
      </trkpt>
      <trkpt lat="49.3724" lon="3.28207">
        <ele>129.19999694824</ele>
        <time>2021-03-21T14:21:51.000Z</time>
      </trkpt>
      <trkpt lat="49.37234" lon="3.28198">
        <ele>129.19999694824</ele>
        <time>2021-03-21T14:21:56.000Z</time>
      </trkpt>
      <trkpt lat="49.37228" lon="3.28189">
        <ele>129.39999389648</ele>
        <time>2021-03-21T14:22:01.000Z</time>
      </trkpt>
      <trkpt lat="49.37224" lon="3.28178">
        <ele>129.19999694824</ele>
        <time>2021-03-21T14:22:07.000Z</time>
      </trkpt>
      <trkpt lat="49.37219" lon="3.28168">
        <ele>129.19999694824</ele>
        <time>2021-03-21T14:22:12.000Z</time>
      </trkpt>
      <trkpt lat="49.37218" lon="3.28166">
        <ele>129.19999694824</ele>
        <time>2021-03-21T14:22:13.000Z</time>
      </trkpt>
      <trkpt lat="49.37216" lon="3.28165">
        <ele>129.39999389648</ele>
        <time>2021-03-21T14:22:14.000Z</time>
      </trkpt>
      <trkpt lat="49.37213" lon="3.28159">
        <ele>129.80000305176</ele>
        <time>2021-03-21T14:22:17.000Z</time>
      </trkpt>
      <trkpt lat="49.37208" lon="3.28148">
        <ele>130</ele>
        <time>2021-03-21T14:22:23.000Z</time>
      </trkpt>
      <trkpt lat="49.37206" lon="3.28142">
        <ele>130.19999694824</ele>
        <time>2021-03-21T14:22:26.000Z</time>
      </trkpt>
      <trkpt lat="49.37205" lon="3.28141">
        <ele>130.19999694824</ele>
        <time>2021-03-21T14:22:27.000Z</time>
      </trkpt>
      <trkpt lat="49.37204" lon="3.28139">
        <ele>130.39999389648</ele>
        <time>2021-03-21T14:22:28.000Z</time>
      </trkpt>
      <trkpt lat="49.37199" lon="3.28133">
        <ele>130.80000305176</ele>
        <time>2021-03-21T14:22:31.000Z</time>
      </trkpt>
      <trkpt lat="49.37194" lon="3.28127">
        <ele>131.39999389648</ele>
        <time>2021-03-21T14:22:34.000Z</time>
      </trkpt>
      <trkpt lat="49.37193" lon="3.28124">
        <ele>131.39999389648</ele>
        <time>2021-03-21T14:22:36.000Z</time>
      </trkpt>
      <trkpt lat="49.37191" lon="3.28121">
        <ele>131.39999389648</ele>
        <time>2021-03-21T14:22:38.000Z</time>
      </trkpt>
      <trkpt lat="49.3719" lon="3.28119">
        <ele>131.60000610352</ele>
        <time>2021-03-21T14:22:39.000Z</time>
      </trkpt>
      <trkpt lat="49.37185" lon="3.28111">
        <ele>132</ele>
        <time>2021-03-21T14:22:43.000Z</time>
      </trkpt>
      <trkpt lat="49.37183" lon="3.28106">
        <ele>132</ele>
        <time>2021-03-21T14:22:45.000Z</time>
      </trkpt>
      <trkpt lat="49.37182" lon="3.28102">
        <ele>131.80000305176</ele>
        <time>2021-03-21T14:22:47.000Z</time>
      </trkpt>
      <trkpt lat="49.37178" lon="3.28093">
        <ele>131.80000305176</ele>
        <time>2021-03-21T14:22:51.000Z</time>
      </trkpt>
      <trkpt lat="49.37175" lon="3.28088">
        <ele>132</ele>
        <time>2021-03-21T14:22:53.000Z</time>
      </trkpt>
      <trkpt lat="49.37173" lon="3.28084">
        <ele>132.19999694824</ele>
        <time>2021-03-21T14:22:55.000Z</time>
      </trkpt>
      <trkpt lat="49.37171" lon="3.28079">
        <ele>132.19999694824</ele>
        <time>2021-03-21T14:22:57.000Z</time>
      </trkpt>
      <trkpt lat="49.37169" lon="3.28074">
        <ele>132.39999389648</ele>
        <time>2021-03-21T14:22:59.000Z</time>
      </trkpt>
      <trkpt lat="49.37163" lon="3.28067">
        <ele>133</ele>
        <time>2021-03-21T14:23:03.000Z</time>
      </trkpt>
      <trkpt lat="49.37161" lon="3.28065">
        <ele>133.19999694824</ele>
        <time>2021-03-21T14:23:04.000Z</time>
      </trkpt>
      <trkpt lat="49.37156" lon="3.28058">
        <ele>133.80000305176</ele>
        <time>2021-03-21T14:23:07.000Z</time>
      </trkpt>
      <trkpt lat="49.3715" lon="3.28045">
        <ele>134.39999389648</ele>
        <time>2021-03-21T14:23:12.000Z</time>
      </trkpt>
      <trkpt lat="49.37148" lon="3.28043">
        <ele>134.39999389648</ele>
        <time>2021-03-21T14:23:13.000Z</time>
      </trkpt>
      <trkpt lat="49.37146" lon="3.28037">
        <ele>134.39999389648</ele>
        <time>2021-03-21T14:23:15.000Z</time>
      </trkpt>
      <trkpt lat="49.37143" lon="3.28034">
        <ele>134.60000610352</ele>
        <time>2021-03-21T14:23:16.000Z</time>
      </trkpt>
      <trkpt lat="49.3714" lon="3.28031">
        <ele>134.80000305176</ele>
        <time>2021-03-21T14:23:17.000Z</time>
      </trkpt>
      <trkpt lat="49.37137" lon="3.28023">
        <ele>135</ele>
        <time>2021-03-21T14:23:20.000Z</time>
      </trkpt>
      <trkpt lat="49.37131" lon="3.28012">
        <ele>134.80000305176</ele>
        <time>2021-03-21T14:23:24.000Z</time>
      </trkpt>
      <trkpt lat="49.37128" lon="3.28009">
        <ele>134.80000305176</ele>
        <time>2021-03-21T14:23:25.000Z</time>
      </trkpt>
      <trkpt lat="49.37123" lon="3.27999">
        <ele>134.60000610352</ele>
        <time>2021-03-21T14:23:29.000Z</time>
      </trkpt>
      <trkpt lat="49.37116" lon="3.27986">
        <ele>134.19999694824</ele>
        <time>2021-03-21T14:23:34.000Z</time>
      </trkpt>
      <trkpt lat="49.3711" lon="3.27974">
        <ele>133.39999389648</ele>
        <time>2021-03-21T14:23:39.000Z</time>
      </trkpt>
      <trkpt lat="49.37109" lon="3.2797">
        <ele>133.19999694824</ele>
        <time>2021-03-21T14:23:40.000Z</time>
      </trkpt>
      <trkpt lat="49.37107" lon="3.27968">
        <ele>133.19999694824</ele>
        <time>2021-03-21T14:23:41.000Z</time>
      </trkpt>
      <trkpt lat="49.37103" lon="3.27964">
        <ele>133</ele>
        <time>2021-03-21T14:23:43.000Z</time>
      </trkpt>
      <trkpt lat="49.37095" lon="3.27951">
        <ele>132.80000305176</ele>
        <time>2021-03-21T14:23:48.000Z</time>
      </trkpt>
      <trkpt lat="49.37088" lon="3.27942">
        <ele>132.60000610352</ele>
        <time>2021-03-21T14:23:52.000Z</time>
      </trkpt>
      <trkpt lat="49.3708" lon="3.27931">
        <ele>132.60000610352</ele>
        <time>2021-03-21T14:23:56.000Z</time>
      </trkpt>
      <trkpt lat="49.37071" lon="3.2792">
        <ele>133</ele>
        <time>2021-03-21T14:24:00.000Z</time>
      </trkpt>
      <trkpt lat="49.3706" lon="3.27909">
        <ele>133.39999389648</ele>
        <time>2021-03-21T14:24:04.000Z</time>
      </trkpt>
      <trkpt lat="49.37047" lon="3.27896">
        <ele>133.39999389648</ele>
        <time>2021-03-21T14:24:09.000Z</time>
      </trkpt>
      <trkpt lat="49.37036" lon="3.27886">
        <ele>133.19999694824</ele>
        <time>2021-03-21T14:24:13.000Z</time>
      </trkpt>
      <trkpt lat="49.37026" lon="3.27878">
        <ele>132.80000305176</ele>
        <time>2021-03-21T14:24:17.000Z</time>
      </trkpt>
      <trkpt lat="49.37021" lon="3.27873">
        <ele>132.60000610352</ele>
        <time>2021-03-21T14:24:21.000Z</time>
      </trkpt>
      <trkpt lat="49.37012" lon="3.27866">
        <ele>132.39999389648</ele>
        <time>2021-03-21T14:25:55.000Z</time>
      </trkpt>
      <trkpt lat="49.37011" lon="3.27865">
        <ele>132.39999389648</ele>
        <time>2021-03-21T14:25:56.000Z</time>
      </trkpt>
      <trkpt lat="49.37007" lon="3.2786">
        <ele>132.19999694824</ele>
        <time>2021-03-21T14:25:58.000Z</time>
      </trkpt>
      <trkpt lat="49.36992" lon="3.27844">
        <ele>131.19999694824</ele>
        <time>2021-03-21T14:26:04.000Z</time>
      </trkpt>
      <trkpt lat="49.36978" lon="3.27819">
        <ele>129.80000305176</ele>
        <time>2021-03-21T14:26:11.000Z</time>
      </trkpt>
      <trkpt lat="49.36958" lon="3.27787">
        <ele>128.60000610352</ele>
        <time>2021-03-21T14:26:20.000Z</time>
      </trkpt>
      <trkpt lat="49.36939" lon="3.27762">
        <ele>127.59999847412</ele>
        <time>2021-03-21T14:26:27.000Z</time>
      </trkpt>
      <trkpt lat="49.36921" lon="3.27742">
        <ele>127</ele>
        <time>2021-03-21T14:26:33.000Z</time>
      </trkpt>
      <trkpt lat="49.36898" lon="3.27714">
        <ele>127</ele>
        <time>2021-03-21T14:26:41.000Z</time>
      </trkpt>
      <trkpt lat="49.36882" lon="3.27694">
        <ele>127</ele>
        <time>2021-03-21T14:26:47.000Z</time>
      </trkpt>
      <trkpt lat="49.36861" lon="3.27675">
        <ele>127.40000152588</ele>
        <time>2021-03-21T14:26:52.000Z</time>
      </trkpt>
      <trkpt lat="49.36838" lon="3.2765">
        <ele>127.59999847412</ele>
        <time>2021-03-21T14:26:57.000Z</time>
      </trkpt>
      <trkpt lat="49.36813" lon="3.27621">
        <ele>126.80000305176</ele>
        <time>2021-03-21T14:27:02.000Z</time>
      </trkpt>
      <trkpt lat="49.36809" lon="3.27614">
        <ele>126.59999847412</ele>
        <time>2021-03-21T14:27:03.000Z</time>
      </trkpt>
      <trkpt lat="49.36802" lon="3.276">
        <ele>126</ele>
        <time>2021-03-21T14:27:05.000Z</time>
      </trkpt>
      <trkpt lat="49.368" lon="3.27592">
        <ele>126</ele>
        <time>2021-03-21T14:27:06.000Z</time>
      </trkpt>
      <trkpt lat="49.36796" lon="3.27576">
        <ele>126</ele>
        <time>2021-03-21T14:27:08.000Z</time>
      </trkpt>
      <trkpt lat="49.36793" lon="3.27551">
        <ele>126</ele>
        <time>2021-03-21T14:27:11.000Z</time>
      </trkpt>
      <trkpt lat="49.36788" lon="3.27523">
        <ele>125.59999847412</ele>
        <time>2021-03-21T14:27:15.000Z</time>
      </trkpt>
      <trkpt lat="49.36786" lon="3.27517">
        <ele>125.59999847412</ele>
        <time>2021-03-21T14:27:16.000Z</time>
      </trkpt>
      <trkpt lat="49.36777" lon="3.27491">
        <ele>125.59999847412</ele>
        <time>2021-03-21T14:27:21.000Z</time>
      </trkpt>
      <trkpt lat="49.36772" lon="3.27473">
        <ele>125.59999847412</ele>
        <time>2021-03-21T14:27:26.000Z</time>
      </trkpt>
      <trkpt lat="49.36769" lon="3.27463">
        <ele>125.59999847412</ele>
        <time>2021-03-21T14:27:30.000Z</time>
      </trkpt>
      <trkpt lat="49.36771" lon="3.27461">
        <ele>125.40000152588</ele>
        <time>2021-03-21T14:27:31.000Z</time>
      </trkpt>
      <trkpt lat="49.36785" lon="3.27453">
        <ele>124.19999694824</ele>
        <time>2021-03-21T14:27:36.000Z</time>
      </trkpt>
      <trkpt lat="49.36795" lon="3.27447">
        <ele>123.40000152588</ele>
        <time>2021-03-21T14:27:40.000Z</time>
      </trkpt>
      <trkpt lat="49.36811" lon="3.27433">
        <ele>122.59999847412</ele>
        <time>2021-03-21T14:27:46.000Z</time>
      </trkpt>
      <trkpt lat="49.36824" lon="3.27422">
        <ele>122.19999694824</ele>
        <time>2021-03-21T14:27:50.000Z</time>
      </trkpt>
      <trkpt lat="49.36828" lon="3.27419">
        <ele>122</ele>
        <time>2021-03-21T14:27:51.000Z</time>
      </trkpt>
      <trkpt lat="49.36844" lon="3.27408">
        <ele>122</ele>
        <time>2021-03-21T14:27:54.000Z</time>
      </trkpt>
      <trkpt lat="49.3687" lon="3.27393">
        <ele>121</ele>
        <time>2021-03-21T14:28:00.000Z</time>
      </trkpt>
      <trkpt lat="49.36878" lon="3.27387">
        <ele>121</ele>
        <time>2021-03-21T14:28:02.000Z</time>
      </trkpt>
      <trkpt lat="49.36894" lon="3.27373">
        <ele>120.59999847412</ele>
        <time>2021-03-21T14:28:06.000Z</time>
      </trkpt>
      <trkpt lat="49.36911" lon="3.27357">
        <ele>120</ele>
        <time>2021-03-21T14:28:11.000Z</time>
      </trkpt>
      <trkpt lat="49.36932" lon="3.27336">
        <ele>119</ele>
        <time>2021-03-21T14:28:16.000Z</time>
      </trkpt>
      <trkpt lat="49.36936" lon="3.27331">
        <ele>119</ele>
        <time>2021-03-21T14:28:17.000Z</time>
      </trkpt>
      <trkpt lat="49.36949" lon="3.27314">
        <ele>117.80000305176</ele>
        <time>2021-03-21T14:28:21.000Z</time>
      </trkpt>
      <trkpt lat="49.36962" lon="3.27298">
        <ele>117.40000152588</ele>
        <time>2021-03-21T14:28:25.000Z</time>
      </trkpt>
      <trkpt lat="49.36975" lon="3.27283">
        <ele>116.19999694824</ele>
        <time>2021-03-21T14:28:29.000Z</time>
      </trkpt>
      <trkpt lat="49.3698" lon="3.27282">
        <ele>115.80000305176</ele>
        <time>2021-03-21T14:28:30.000Z</time>
      </trkpt>
      <trkpt lat="49.36991" lon="3.27281">
        <ele>115.40000152588</ele>
        <time>2021-03-21T14:28:32.000Z</time>
      </trkpt>
      <trkpt lat="49.37011" lon="3.27283">
        <ele>115.40000152588</ele>
        <time>2021-03-21T14:28:36.000Z</time>
      </trkpt>
      <trkpt lat="49.37036" lon="3.2729">
        <ele>115.40000152588</ele>
        <time>2021-03-21T14:28:41.000Z</time>
      </trkpt>
      <trkpt lat="49.37058" lon="3.27291">
        <ele>116</ele>
        <time>2021-03-21T14:28:46.000Z</time>
      </trkpt>
      <trkpt lat="49.37076" lon="3.27292">
        <ele>115.59999847412</ele>
        <time>2021-03-21T14:28:50.000Z</time>
      </trkpt>
      <trkpt lat="49.37088" lon="3.27291">
        <ele>114.40000152588</ele>
        <time>2021-03-21T14:28:53.000Z</time>
      </trkpt>
      <trkpt lat="49.37121" lon="3.27284">
        <ele>110.40000152588</ele>
        <time>2021-03-21T14:28:59.000Z</time>
      </trkpt>
      <trkpt lat="49.37143" lon="3.27277">
        <ele>107.80000305176</ele>
        <time>2021-03-21T14:29:03.000Z</time>
      </trkpt>
      <trkpt lat="49.37148" lon="3.27276">
        <ele>106.80000305176</ele>
        <time>2021-03-21T14:29:04.000Z</time>
      </trkpt>
      <trkpt lat="49.37174" lon="3.27268">
        <ele>100.59999847412</ele>
        <time>2021-03-21T14:29:10.000Z</time>
      </trkpt>
      <trkpt lat="49.37199" lon="3.27259">
        <ele>93</ele>
        <time>2021-03-21T14:29:16.000Z</time>
      </trkpt>
      <trkpt lat="49.37216" lon="3.2726">
        <ele>87.199996948242</ele>
        <time>2021-03-21T14:29:21.000Z</time>
      </trkpt>
      <trkpt lat="49.37234" lon="3.27263">
        <ele>82.400001525879</ele>
        <time>2021-03-21T14:29:26.000Z</time>
      </trkpt>
      <trkpt lat="49.37254" lon="3.27268">
        <ele>78</ele>
        <time>2021-03-21T14:29:30.000Z</time>
      </trkpt>
      <trkpt lat="49.37276" lon="3.27268">
        <ele>75</ele>
        <time>2021-03-21T14:29:34.000Z</time>
      </trkpt>
      <trkpt lat="49.37291" lon="3.27268">
        <ele>73.400001525879</ele>
        <time>2021-03-21T14:29:37.000Z</time>
      </trkpt>
      <trkpt lat="49.373" lon="3.27268">
        <ele>72.400001525879</ele>
        <time>2021-03-21T14:29:39.000Z</time>
      </trkpt>
      <trkpt lat="49.37309" lon="3.27269">
        <ele>71.800003051758</ele>
        <time>2021-03-21T14:29:41.000Z</time>
      </trkpt>
      <trkpt lat="49.37327" lon="3.27274">
        <ele>71</ele>
        <time>2021-03-21T14:29:45.000Z</time>
      </trkpt>
      <trkpt lat="49.37341" lon="3.27279">
        <ele>70.400001525879</ele>
        <time>2021-03-21T14:29:50.000Z</time>
      </trkpt>
      <trkpt lat="49.37355" lon="3.27296">
        <ele>69.199996948242</ele>
        <time>2021-03-21T14:29:55.000Z</time>
      </trkpt>
      <trkpt lat="49.37382" lon="3.27319">
        <ele>67.599998474121</ele>
        <time>2021-03-21T14:30:01.000Z</time>
      </trkpt>
      <trkpt lat="49.37422" lon="3.27348">
        <ele>64.800003051758</ele>
        <time>2021-03-21T14:30:08.000Z</time>
      </trkpt>
      <trkpt lat="49.37448" lon="3.27367">
        <ele>63</ele>
        <time>2021-03-21T14:30:13.000Z</time>
      </trkpt>
      <trkpt lat="49.37459" lon="3.27377">
        <ele>62.400001525879</ele>
        <time>2021-03-21T14:30:17.000Z</time>
      </trkpt>
      <trkpt lat="49.3747" lon="3.27386">
        <ele>61.6</ele>
      </trkpt>
      <trkpt lat="49.3748" lon="3.27367">
        <ele>62.200000762939</ele>
        <time>2021-03-21T14:31:17.000Z</time>
      </trkpt>
      <trkpt lat="49.37491" lon="3.27348">
        <ele>62.599998474121</ele>
        <time>2021-03-21T14:31:25.000Z</time>
      </trkpt>
      <trkpt lat="49.37497" lon="3.27334">
        <ele>63.400001525879</ele>
        <time>2021-03-21T14:31:30.000Z</time>
      </trkpt>
      <trkpt lat="49.37508" lon="3.27306">
        <ele>64.199996948242</ele>
        <time>2021-03-21T14:31:40.000Z</time>
      </trkpt>
      <trkpt lat="49.37513" lon="3.27291">
        <ele>64.800003051758</ele>
        <time>2021-03-21T14:31:45.000Z</time>
      </trkpt>
      <trkpt lat="49.37519" lon="3.27265">
        <ele>66.199996948242</ele>
        <time>2021-03-21T14:31:51.000Z</time>
      </trkpt>
      <trkpt lat="49.37526" lon="3.27236">
        <ele>66.599998474121</ele>
        <time>2021-03-21T14:31:58.000Z</time>
      </trkpt>
      <trkpt lat="49.37531" lon="3.27208">
        <ele>67</ele>
        <time>2021-03-21T14:32:04.000Z</time>
      </trkpt>
      <trkpt lat="49.37535" lon="3.27179">
        <ele>65</ele>
        <time>2021-03-21T14:32:09.000Z</time>
      </trkpt>
      <trkpt lat="49.37539" lon="3.27153">
        <ele>63</ele>
        <time>2021-03-21T14:32:13.000Z</time>
      </trkpt>
      <trkpt lat="49.3754" lon="3.27146">
        <ele>62.200000762939</ele>
        <time>2021-03-21T14:32:14.000Z</time>
      </trkpt>
      <trkpt lat="49.37543" lon="3.27127">
        <ele>60.200000762939</ele>
        <time>2021-03-21T14:32:17.000Z</time>
      </trkpt>
      <trkpt lat="49.37547" lon="3.27092">
        <ele>58.599998474121</ele>
        <time>2021-03-21T14:32:22.000Z</time>
      </trkpt>
      <trkpt lat="49.37548" lon="3.27086">
        <ele>58.400001525879</ele>
        <time>2021-03-21T14:32:23.000Z</time>
      </trkpt>
      <trkpt lat="49.37557" lon="3.27069">
        <ele>57.400001525879</ele>
        <time>2021-03-21T14:32:27.000Z</time>
      </trkpt>
      <trkpt lat="49.37566" lon="3.27064">
        <ele>56.599998474121</ele>
        <time>2021-03-21T14:32:30.000Z</time>
      </trkpt>
      <trkpt lat="49.37569" lon="3.27066">
        <ele>56.200000762939</ele>
        <time>2021-03-21T14:32:31.000Z</time>
      </trkpt>
      <trkpt lat="49.37572" lon="3.27069">
        <ele>55.799999237061</ele>
        <time>2021-03-21T14:32:32.000Z</time>
      </trkpt>
      <trkpt lat="49.37576" lon="3.27079">
        <ele>55.400001525879</ele>
        <time>2021-03-21T14:32:34.000Z</time>
      </trkpt>
      <trkpt lat="49.37585" lon="3.27108">
        <ele>54.599998474121</ele>
        <time>2021-03-21T14:32:39.000Z</time>
      </trkpt>
      <trkpt lat="49.37596" lon="3.2715">
        <ele>53.799999237061</ele>
        <time>2021-03-21T14:32:45.000Z</time>
      </trkpt>
      <trkpt lat="49.37613" lon="3.272">
        <ele>52.799999237061</ele>
        <time>2021-03-21T14:32:52.000Z</time>
      </trkpt>
      <trkpt lat="49.37636" lon="3.27245">
        <ele>53</ele>
        <time>2021-03-21T14:32:59.000Z</time>
      </trkpt>
      <trkpt lat="49.37657" lon="3.27278">
        <ele>53.200000762939</ele>
        <time>2021-03-21T14:33:05.000Z</time>
      </trkpt>
      <trkpt lat="49.37662" lon="3.27282">
        <ele>53.400001525879</ele>
        <time>2021-03-21T14:33:06.000Z</time>
      </trkpt>
      <trkpt lat="49.37681" lon="3.27303">
        <ele>53.200000762939</ele>
        <time>2021-03-21T14:33:11.000Z</time>
      </trkpt>
      <trkpt lat="49.37684" lon="3.27308">
        <ele>53</ele>
        <time>2021-03-21T14:33:12.000Z</time>
      </trkpt>
      <trkpt lat="49.37687" lon="3.27313">
        <ele>52.599998474121</ele>
        <time>2021-03-21T14:33:13.000Z</time>
      </trkpt>
      <trkpt lat="49.37695" lon="3.27314">
        <ele>52.400001525879</ele>
        <time>2021-03-21T14:33:15.000Z</time>
      </trkpt>
      <trkpt lat="49.37701" lon="3.27306">
        <ele>52.599998474121</ele>
        <time>2021-03-21T14:33:17.000Z</time>
      </trkpt>
      <trkpt lat="49.37703" lon="3.27299">
        <ele>52.599998474121</ele>
        <time>2021-03-21T14:33:18.000Z</time>
      </trkpt>
      <trkpt lat="49.37715" lon="3.27241">
        <ele>53</ele>
        <time>2021-03-21T14:33:26.000Z</time>
      </trkpt>
      <trkpt lat="49.37725" lon="3.27182">
        <ele>51.799999237061</ele>
        <time>2021-03-21T14:33:34.000Z</time>
      </trkpt>
      <trkpt lat="49.37732" lon="3.27132">
        <ele>50.400001525879</ele>
        <time>2021-03-21T14:33:40.000Z</time>
      </trkpt>
      <trkpt lat="49.37734" lon="3.27125">
        <ele>50.200000762939</ele>
        <time>2021-03-21T14:33:41.000Z</time>
      </trkpt>
      <trkpt lat="49.37737" lon="3.27118">
        <ele>50.200000762939</ele>
        <time>2021-03-21T14:33:42.000Z</time>
      </trkpt>
      <trkpt lat="49.37738" lon="3.27103">
        <ele>49.799999237061</ele>
        <time>2021-03-21T14:33:44.000Z</time>
      </trkpt>
      <trkpt lat="49.37739" lon="3.27095">
        <ele>49.599998474121</ele>
        <time>2021-03-21T14:33:45.000Z</time>
      </trkpt>
      <trkpt lat="49.37744" lon="3.27046">
        <ele>49</ele>
        <time>2021-03-21T14:33:51.000Z</time>
      </trkpt>
      <trkpt lat="49.37746" lon="3.27028">
        <ele>49</ele>
        <time>2021-03-21T14:33:53.000Z</time>
      </trkpt>
      <trkpt lat="49.3775" lon="3.27011">
        <ele>49.200000762939</ele>
        <time>2021-03-21T14:33:55.000Z</time>
      </trkpt>
      <trkpt lat="49.37751" lon="3.27002">
        <ele>49.200000762939</ele>
        <time>2021-03-21T14:33:56.000Z</time>
      </trkpt>
      <trkpt lat="49.37757" lon="3.26954">
        <ele>49.799999237061</ele>
        <time>2021-03-21T14:34:01.000Z</time>
      </trkpt>
      <trkpt lat="49.37759" lon="3.26944">
        <ele>49.799999237061</ele>
        <time>2021-03-21T14:34:02.000Z</time>
      </trkpt>
      <trkpt lat="49.37769" lon="3.2689">
        <ele>50.599998474121</ele>
        <time>2021-03-21T14:34:08.000Z</time>
      </trkpt>
      <trkpt lat="49.37778" lon="3.2684">
        <ele>50.200000762939</ele>
        <time>2021-03-21T14:34:14.000Z</time>
      </trkpt>
      <trkpt lat="49.37779" lon="3.26832">
        <ele>50.400001525879</ele>
        <time>2021-03-21T14:34:15.000Z</time>
      </trkpt>
      <trkpt lat="49.37784" lon="3.268">
        <ele>50</ele>
        <time>2021-03-21T14:34:19.000Z</time>
      </trkpt>
      <trkpt lat="49.37792" lon="3.26745">
        <ele>49.400001525879</ele>
        <time>2021-03-21T14:34:26.000Z</time>
      </trkpt>
      <trkpt lat="49.37793" lon="3.26737">
        <ele>49</ele>
        <time>2021-03-21T14:34:27.000Z</time>
      </trkpt>
      <trkpt lat="49.37794" lon="3.2672">
        <ele>48</ele>
        <time>2021-03-21T14:34:29.000Z</time>
      </trkpt>
      <trkpt lat="49.37792" lon="3.26702">
        <ele>46.599998474121</ele>
        <time>2021-03-21T14:34:31.000Z</time>
      </trkpt>
      <trkpt lat="49.37784" lon="3.26644">
        <ele>45</ele>
        <time>2021-03-21T14:34:38.000Z</time>
      </trkpt>
      <trkpt lat="49.37782" lon="3.26629">
        <ele>45.400001525879</ele>
        <time>2021-03-21T14:34:40.000Z</time>
      </trkpt>
      <trkpt lat="49.3778" lon="3.26615">
        <ele>45.799999237061</ele>
        <time>2021-03-21T14:34:42.000Z</time>
      </trkpt>
      <trkpt lat="49.37779" lon="3.26608">
        <ele>46.200000762939</ele>
        <time>2021-03-21T14:34:43.000Z</time>
      </trkpt>
      <trkpt lat="49.37775" lon="3.26585">
        <ele>47.400001525879</ele>
        <time>2021-03-21T14:34:46.000Z</time>
      </trkpt>
      <trkpt lat="49.37771" lon="3.26563">
        <ele>48.200000762939</ele>
        <time>2021-03-21T14:34:49.000Z</time>
      </trkpt>
      <trkpt lat="49.37762" lon="3.26519">
        <ele>46.400001525879</ele>
        <time>2021-03-21T14:34:55.000Z</time>
      </trkpt>
      <trkpt lat="49.3776" lon="3.26511">
        <ele>46.200000762939</ele>
        <time>2021-03-21T14:34:56.000Z</time>
      </trkpt>
      <trkpt lat="49.37755" lon="3.26497">
        <ele>45.400001525879</ele>
        <time>2021-03-21T14:34:58.000Z</time>
      </trkpt>
      <trkpt lat="49.37747" lon="3.26486">
        <ele>44.799999237061</ele>
        <time>2021-03-21T14:35:00.000Z</time>
      </trkpt>
      <trkpt lat="49.37727" lon="3.26467">
        <ele>43.400001525879</ele>
        <time>2021-03-21T14:35:05.000Z</time>
      </trkpt>
      <trkpt lat="49.37713" lon="3.26456">
        <ele>43.200000762939</ele>
        <time>2021-03-21T14:35:09.000Z</time>
      </trkpt>
      <trkpt lat="49.37688" lon="3.26433">
        <ele>43.200000762939</ele>
        <time>2021-03-21T14:35:16.000Z</time>
      </trkpt>
      <trkpt lat="49.37672" lon="3.26418">
        <ele>43.799999237061</ele>
        <time>2021-03-21T14:35:21.000Z</time>
      </trkpt>
      <trkpt lat="49.37651" lon="3.26401">
        <ele>44.400001525879</ele>
        <time>2021-03-21T14:35:27.000Z</time>
      </trkpt>
      <trkpt lat="49.37636" lon="3.26389">
        <ele>45</ele>
        <time>2021-03-21T14:35:32.000Z</time>
      </trkpt>
      <trkpt lat="49.3762" lon="3.26375">
        <ele>45</ele>
        <time>2021-03-21T14:35:37.000Z</time>
      </trkpt>
      <trkpt lat="49.37608" lon="3.26365">
        <ele>45</ele>
        <time>2021-03-21T14:35:41.000Z</time>
      </trkpt>
      <trkpt lat="49.37595" lon="3.26353">
        <ele>46</ele>
        <time>2021-03-21T14:35:45.000Z</time>
      </trkpt>
      <trkpt lat="49.37571" lon="3.26334">
        <ele>48.400001525879</ele>
        <time>2021-03-21T14:35:52.000Z</time>
      </trkpt>
      <trkpt lat="49.37549" lon="3.2632">
        <ele>50.400001525879</ele>
        <time>2021-03-21T14:35:58.000Z</time>
      </trkpt>
      <trkpt lat="49.37537" lon="3.2631">
        <ele>51.599998474121</ele>
        <time>2021-03-21T14:36:02.000Z</time>
      </trkpt>
      <trkpt lat="49.37517" lon="3.26294">
        <ele>53.200000762939</ele>
        <time>2021-03-21T14:36:08.000Z</time>
      </trkpt>
      <trkpt lat="49.375" lon="3.26275">
        <ele>53.799999237061</ele>
        <time>2021-03-21T14:36:13.000Z</time>
      </trkpt>
      <trkpt lat="49.37482" lon="3.26247">
        <ele>54.599998474121</ele>
        <time>2021-03-21T14:36:19.000Z</time>
      </trkpt>
      <trkpt lat="49.37467" lon="3.26219">
        <ele>55.799999237061</ele>
        <time>2021-03-21T14:36:25.000Z</time>
      </trkpt>
      <trkpt lat="49.37459" lon="3.26206">
        <ele>56</ele>
        <time>2021-03-21T14:36:28.000Z</time>
      </trkpt>
      <trkpt lat="49.37452" lon="3.26199">
        <ele>56</ele>
        <time>2021-03-21T14:36:30.000Z</time>
      </trkpt>
      <trkpt lat="49.37449" lon="3.26196">
        <ele>56</ele>
        <time>2021-03-21T14:36:31.000Z</time>
      </trkpt>
      <trkpt lat="49.37434" lon="3.26188">
        <ele>55.799999237061</ele>
        <time>2021-03-21T14:36:35.000Z</time>
      </trkpt>
      <trkpt lat="49.37421" lon="3.2618">
        <ele>55</ele>
        <time>2021-03-21T14:36:39.000Z</time>
      </trkpt>
      <trkpt lat="49.37408" lon="3.26166">
        <ele>53.799999237061</ele>
        <time>2021-03-21T14:36:43.000Z</time>
      </trkpt>
      <trkpt lat="49.37391" lon="3.26145">
        <ele>51.799999237061</ele>
        <time>2021-03-21T14:36:48.000Z</time>
      </trkpt>
      <trkpt lat="49.37373" lon="3.26133">
        <ele>50.599998474121</ele>
        <time>2021-03-21T14:36:52.000Z</time>
      </trkpt>
      <trkpt lat="49.37369" lon="3.26132">
        <ele>50.400001525879</ele>
        <time>2021-03-21T14:36:53.000Z</time>
      </trkpt>
      <trkpt lat="49.37357" lon="3.26136">
        <ele>50.200000762939</ele>
        <time>2021-03-21T14:36:57.000Z</time>
      </trkpt>
      <trkpt lat="49.37339" lon="3.26161">
        <ele>51.799999237061</ele>
        <time>2021-03-21T14:37:04.000Z</time>
      </trkpt>
      <trkpt lat="49.37322" lon="3.26188">
        <ele>52.200000762939</ele>
        <time>2021-03-21T14:37:11.000Z</time>
      </trkpt>
      <trkpt lat="49.37306" lon="3.26206">
        <ele>54</ele>
        <time>2021-03-21T14:37:18.000Z</time>
      </trkpt>
      <trkpt lat="49.37299" lon="3.26216">
        <ele>55.200000762939</ele>
        <time>2021-03-21T14:37:22.000Z</time>
      </trkpt>
      <trkpt lat="49.37297" lon="3.26217">
        <ele>55.400001525879</ele>
        <time>2021-03-21T14:37:23.000Z</time>
      </trkpt>
      <trkpt lat="49.37289" lon="3.26219">
        <ele>56</ele>
        <time>2021-03-21T14:37:27.000Z</time>
      </trkpt>
      <trkpt lat="49.37288" lon="3.26222">
        <ele>56.200000762939</ele>
        <time>2021-03-21T14:37:28.000Z</time>
      </trkpt>
      <trkpt lat="49.37285" lon="3.26227">
        <ele>56.599998474121</ele>
        <time>2021-03-21T14:37:30.000Z</time>
      </trkpt>
      <trkpt lat="49.37282" lon="3.26229">
        <ele>57.200000762939</ele>
        <time>2021-03-21T14:37:32.000Z</time>
      </trkpt>
      <trkpt lat="49.3728" lon="3.2623">
        <ele>57.400001525879</ele>
        <time>2021-03-21T14:37:34.000Z</time>
      </trkpt>
      <trkpt lat="49.37275" lon="3.26234">
        <ele>58.200000762939</ele>
        <time>2021-03-21T14:37:38.000Z</time>
      </trkpt>
      <trkpt lat="49.37267" lon="3.26241">
        <ele>59.200000762939</ele>
        <time>2021-03-21T14:37:45.000Z</time>
      </trkpt>
      <trkpt lat="49.37261" lon="3.26247">
        <ele>59.799999237061</ele>
        <time>2021-03-21T14:37:50.000Z</time>
      </trkpt>
      <trkpt lat="49.37254" lon="3.26255">
        <ele>60.799999237061</ele>
        <time>2021-03-21T14:37:56.000Z</time>
      </trkpt>
      <trkpt lat="49.37252" lon="3.26257">
        <ele>61</ele>
        <time>2021-03-21T14:37:57.000Z</time>
      </trkpt>
      <trkpt lat="49.37251" lon="3.2626">
        <ele>61.599998474121</ele>
        <time>2021-03-21T14:37:59.000Z</time>
      </trkpt>
      <trkpt lat="49.3725" lon="3.26262">
        <ele>61.799999237061</ele>
        <time>2021-03-21T14:38:00.000Z</time>
      </trkpt>
      <trkpt lat="49.37243" lon="3.2627">
        <ele>63</ele>
        <time>2021-03-21T14:38:06.000Z</time>
      </trkpt>
      <trkpt lat="49.37239" lon="3.26275">
        <ele>63.799999237061</ele>
        <time>2021-03-21T14:38:10.000Z</time>
      </trkpt>
      <trkpt lat="49.37232" lon="3.26283">
        <ele>64.800003051758</ele>
        <time>2021-03-21T14:38:15.000Z</time>
      </trkpt>
      <trkpt lat="49.37224" lon="3.2629">
        <ele>66</ele>
        <time>2021-03-21T14:38:21.000Z</time>
      </trkpt>
      <trkpt lat="49.37217" lon="3.26295">
        <ele>66.800003051758</ele>
        <time>2021-03-21T14:38:26.000Z</time>
      </trkpt>
      <trkpt lat="49.37215" lon="3.26296">
        <ele>66.800003051758</ele>
        <time>2021-03-21T14:38:27.000Z</time>
      </trkpt>
      <trkpt lat="49.37208" lon="3.263">
        <ele>67.800003051758</ele>
        <time>2021-03-21T14:38:32.000Z</time>
      </trkpt>
      <trkpt lat="49.37204" lon="3.26305">
        <ele>68.400001525879</ele>
        <time>2021-03-21T14:38:35.000Z</time>
      </trkpt>
      <trkpt lat="49.37204" lon="3.26306">
        <ele>68.599998474121</ele>
        <time>2021-03-21T14:38:36.000Z</time>
      </trkpt>
      <trkpt lat="49.37203" lon="3.26307">
        <ele>68.800003051758</ele>
        <time>2021-03-21T14:38:37.000Z</time>
      </trkpt>
      <trkpt lat="49.37197" lon="3.26312">
        <ele>69.400001525879</ele>
        <time>2021-03-21T14:38:41.000Z</time>
      </trkpt>
      <trkpt lat="49.37189" lon="3.26322">
        <ele>70.800003051758</ele>
        <time>2021-03-21T14:38:48.000Z</time>
      </trkpt>
      <trkpt lat="49.37187" lon="3.26327">
        <ele>71.199996948242</ele>
        <time>2021-03-21T14:38:51.000Z</time>
      </trkpt>
      <trkpt lat="49.37167" lon="3.26393">
        <ele>76.400001525879</ele>
        <time>2021-03-21T14:39:24.000Z</time>
      </trkpt>
      <trkpt lat="49.37167" lon="3.26395">
        <ele>76.599998474121</ele>
        <time>2021-03-21T14:39:25.000Z</time>
      </trkpt>
      <trkpt lat="49.37164" lon="3.26403">
        <ele>77.400001525879</ele>
        <time>2021-03-21T14:39:29.000Z</time>
      </trkpt>
      <trkpt lat="49.37161" lon="3.26418">
        <ele>78.400001525879</ele>
        <time>2021-03-21T14:39:36.000Z</time>
      </trkpt>
      <trkpt lat="49.37161" lon="3.26425">
        <ele>78.599998474121</ele>
        <time>2021-03-21T14:39:39.000Z</time>
      </trkpt>
      <trkpt lat="49.3716" lon="3.26429">
        <ele>78.800003051758</ele>
        <time>2021-03-21T14:39:41.000Z</time>
      </trkpt>
      <trkpt lat="49.37158" lon="3.26442">
        <ele>79.400001525879</ele>
        <time>2021-03-21T14:39:47.000Z</time>
      </trkpt>
      <trkpt lat="49.37155" lon="3.26458">
        <ele>80.599998474121</ele>
        <time>2021-03-21T14:39:54.000Z</time>
      </trkpt>
      <trkpt lat="49.37152" lon="3.26469">
        <ele>81.599998474121</ele>
        <time>2021-03-21T14:40:00.000Z</time>
      </trkpt>
      <trkpt lat="49.37151" lon="3.26471">
        <ele>81.599998474121</ele>
        <time>2021-03-21T14:40:01.000Z</time>
      </trkpt>
      <trkpt lat="49.37146" lon="3.26477">
        <ele>82</ele>
        <time>2021-03-21T14:40:06.000Z</time>
      </trkpt>
      <trkpt lat="49.37138" lon="3.26484">
        <ele>83.199996948242</ele>
        <time>2021-03-21T14:40:12.000Z</time>
      </trkpt>
      <trkpt lat="49.37131" lon="3.26489">
        <ele>84.199996948242</ele>
        <time>2021-03-21T14:40:18.000Z</time>
      </trkpt>
      <trkpt lat="49.37123" lon="3.26493">
        <ele>85.199996948242</ele>
        <time>2021-03-21T14:40:25.000Z</time>
      </trkpt>
      <trkpt lat="49.37114" lon="3.26497">
        <ele>86.400001525879</ele>
        <time>2021-03-21T14:40:32.000Z</time>
      </trkpt>
      <trkpt lat="49.37106" lon="3.26503">
        <ele>88</ele>
        <time>2021-03-21T14:40:39.000Z</time>
      </trkpt>
      <trkpt lat="49.37102" lon="3.26507">
        <ele>89</ele>
        <time>2021-03-21T14:40:44.000Z</time>
      </trkpt>
      <trkpt lat="49.37091" lon="3.2651">
        <ele>90.8</ele>
      </trkpt>
      <trkpt lat="49.37102" lon="3.26525">
        <ele>90.199996948242</ele>
        <time>2021-03-21T14:41:23.000Z</time>
      </trkpt>
      <trkpt lat="49.37108" lon="3.26539">
        <ele>89.599998474121</ele>
        <time>2021-03-21T14:41:30.000Z</time>
      </trkpt>
      <trkpt lat="49.37106" lon="3.26547">
        <ele>90.199996948242</ele>
        <time>2021-03-21T14:41:34.000Z</time>
      </trkpt>
      <trkpt lat="49.37104" lon="3.26547">
        <ele>90.599998474121</ele>
        <time>2021-03-21T14:41:35.000Z</time>
      </trkpt>
      <trkpt lat="49.37093" lon="3.26542">
        <ele>92.599998474121</ele>
        <time>2021-03-21T14:41:41.000Z</time>
      </trkpt>
      <trkpt lat="49.37077" lon="3.26533">
        <ele>95.599998474121</ele>
        <time>2021-03-21T14:41:50.000Z</time>
      </trkpt>
      <trkpt lat="49.37061" lon="3.26526">
        <ele>98.400001525879</ele>
        <time>2021-03-21T14:41:58.000Z</time>
      </trkpt>
      <trkpt lat="49.37041" lon="3.26511">
        <ele>99.8</ele>
      </trkpt>
      <trkpt lat="49.36961" lon="3.26421">
        <ele>102</ele>
      </trkpt>
      <trkpt lat="49.36955" lon="3.26413">
        <ele>105.59999847412</ele>
        <time>2021-03-21T14:45:32.000Z</time>
      </trkpt>
      <trkpt lat="49.36947" lon="3.26401">
        <ele>105.80000305176</ele>
        <time>2021-03-21T14:45:37.000Z</time>
      </trkpt>
      <trkpt lat="49.36937" lon="3.26391">
        <ele>106.40000152588</ele>
        <time>2021-03-21T14:45:42.000Z</time>
      </trkpt>
      <trkpt lat="49.36928" lon="3.26384">
        <ele>107</ele>
        <time>2021-03-21T14:45:47.000Z</time>
      </trkpt>
      <trkpt lat="49.36926" lon="3.26383">
        <ele>107.19999694824</ele>
        <time>2021-03-21T14:45:49.000Z</time>
      </trkpt>
      <trkpt lat="49.36923" lon="3.26381">
        <ele>107.40000152588</ele>
        <time>2021-03-21T14:46:13.000Z</time>
      </trkpt>
      <trkpt lat="49.36921" lon="3.2638">
        <ele>107.59999847412</ele>
        <time>2021-03-21T14:46:14.000Z</time>
      </trkpt>
      <trkpt lat="49.36904" lon="3.26372">
        <ele>108.59999847412</ele>
        <time>2021-03-21T14:46:21.000Z</time>
      </trkpt>
      <trkpt lat="49.36896" lon="3.26369">
        <ele>108.59999847412</ele>
        <time>2021-03-21T14:46:26.000Z</time>
      </trkpt>
      <trkpt lat="49.36894" lon="3.26371">
        <ele>108.80000305176</ele>
        <time>2021-03-21T14:46:45.000Z</time>
      </trkpt>
      <trkpt lat="49.36889" lon="3.26372">
        <ele>109.19999694824</ele>
        <time>2021-03-21T14:46:47.000Z</time>
      </trkpt>
      <trkpt lat="49.36879" lon="3.26373">
        <ele>109</ele>
        <time>2021-03-21T14:46:52.000Z</time>
      </trkpt>
      <trkpt lat="49.36868" lon="3.26379">
        <ele>110</ele>
        <time>2021-03-21T14:46:57.000Z</time>
      </trkpt>
      <trkpt lat="49.36853" lon="3.26391">
        <ele>110.80000305176</ele>
        <time>2021-03-21T14:47:04.000Z</time>
      </trkpt>
      <trkpt lat="49.36843" lon="3.2641">
        <ele>111.40000152588</ele>
        <time>2021-03-21T14:47:11.000Z</time>
      </trkpt>
      <trkpt lat="49.36837" lon="3.2643">
        <ele>111.80000305176</ele>
        <time>2021-03-21T14:47:17.000Z</time>
      </trkpt>
      <trkpt lat="49.36831" lon="3.26449">
        <ele>112</ele>
        <time>2021-03-21T14:47:23.000Z</time>
      </trkpt>
      <trkpt lat="49.36828" lon="3.26477">
        <ele>111.80000305176</ele>
        <time>2021-03-21T14:47:30.000Z</time>
      </trkpt>
      <trkpt lat="49.36827" lon="3.26515">
        <ele>111</ele>
        <time>2021-03-21T14:47:39.000Z</time>
      </trkpt>
      <trkpt lat="49.36828" lon="3.26544">
        <ele>110.80000305176</ele>
        <time>2021-03-21T14:47:46.000Z</time>
      </trkpt>
      <trkpt lat="49.36824" lon="3.26564">
        <ele>110.80000305176</ele>
        <time>2021-03-21T14:47:51.000Z</time>
      </trkpt>
      <trkpt lat="49.36813" lon="3.26585">
        <ele>110.40000152588</ele>
        <time>2021-03-21T14:47:57.000Z</time>
      </trkpt>
      <trkpt lat="49.36806" lon="3.2661">
        <ele>111</ele>
        <time>2021-03-21T14:48:03.000Z</time>
      </trkpt>
      <trkpt lat="49.36794" lon="3.26642">
        <ele>112</ele>
        <time>2021-03-21T14:48:11.000Z</time>
      </trkpt>
      <trkpt lat="49.36781" lon="3.2667">
        <ele>112.59999847412</ele>
        <time>2021-03-21T14:48:18.000Z</time>
      </trkpt>
      <trkpt lat="49.36762" lon="3.26695">
        <ele>112.19999694824</ele>
        <time>2021-03-21T14:48:25.000Z</time>
      </trkpt>
      <trkpt lat="49.36736" lon="3.26733">
        <ele>112.19999694824</ele>
        <time>2021-03-21T14:48:35.000Z</time>
      </trkpt>
      <trkpt lat="49.36715" lon="3.26758">
        <ele>113.19999694824</ele>
        <time>2021-03-21T14:48:42.000Z</time>
      </trkpt>
      <trkpt lat="49.3669" lon="3.26777">
        <ele>115.19999694824</ele>
        <time>2021-03-21T14:48:49.000Z</time>
      </trkpt>
      <trkpt lat="49.3667" lon="3.2679">
        <ele>115.59999847412</ele>
        <time>2021-03-21T14:48:55.000Z</time>
      </trkpt>
      <trkpt lat="49.36654" lon="3.26793">
        <ele>115.40000152588</ele>
        <time>2021-03-21T14:49:01.000Z</time>
      </trkpt>
      <trkpt lat="49.36637" lon="3.26795">
        <ele>115</ele>
        <time>2021-03-21T14:49:08.000Z</time>
      </trkpt>
      <trkpt lat="49.36615" lon="3.2679">
        <ele>115</ele>
        <time>2021-03-21T14:49:16.000Z</time>
      </trkpt>
      <trkpt lat="49.36597" lon="3.2679">
        <ele>115</ele>
        <time>2021-03-21T14:49:23.000Z</time>
      </trkpt>
      <trkpt lat="49.36574" lon="3.26786">
        <ele>115</ele>
        <time>2021-03-21T14:49:31.000Z</time>
      </trkpt>
      <trkpt lat="49.36555" lon="3.26782">
        <ele>115.19999694824</ele>
        <time>2021-03-21T14:49:38.000Z</time>
      </trkpt>
      <trkpt lat="49.36533" lon="3.26778">
        <ele>116</ele>
        <time>2021-03-21T14:49:46.000Z</time>
      </trkpt>
      <trkpt lat="49.36507" lon="3.26775">
        <ele>116.80000305176</ele>
        <time>2021-03-21T14:49:55.000Z</time>
      </trkpt>
      <trkpt lat="49.36485" lon="3.26772">
        <ele>117.80000305176</ele>
        <time>2021-03-21T14:50:03.000Z</time>
      </trkpt>
      <trkpt lat="49.36466" lon="3.26771">
        <ele>119</ele>
        <time>2021-03-21T14:50:10.000Z</time>
      </trkpt>
      <trkpt lat="49.36454" lon="3.26763">
        <ele>119.59999847412</ele>
        <time>2021-03-21T14:50:15.000Z</time>
      </trkpt>
      <trkpt lat="49.36442" lon="3.26736">
        <ele>119.59999847412</ele>
        <time>2021-03-21T14:50:22.000Z</time>
      </trkpt>
      <trkpt lat="49.36424" lon="3.26694">
        <ele>119.59999847412</ele>
        <time>2021-03-21T14:50:32.000Z</time>
      </trkpt>
      <trkpt lat="49.36416" lon="3.26675">
        <ele>119.40000152588</ele>
        <time>2021-03-21T14:50:37.000Z</time>
      </trkpt>
      <trkpt lat="49.36402" lon="3.26648">
        <ele>118.59999847412</ele>
        <time>2021-03-21T14:50:43.000Z</time>
      </trkpt>
      <trkpt lat="49.36392" lon="3.2663">
        <ele>118</ele>
        <time>2021-03-21T14:50:48.000Z</time>
      </trkpt>
      <trkpt lat="49.36379" lon="3.26619">
        <ele>118.19999694824</ele>
        <time>2021-03-21T14:50:53.000Z</time>
      </trkpt>
      <trkpt lat="49.36361" lon="3.26601">
        <ele>119</ele>
        <time>2021-03-21T14:51:00.000Z</time>
      </trkpt>
      <trkpt lat="49.36355" lon="3.2658">
        <ele>119.80000305176</ele>
        <time>2021-03-21T14:51:04.000Z</time>
      </trkpt>
      <trkpt lat="49.36352" lon="3.26548">
        <ele>121.80000305176</ele>
        <time>2021-03-21T14:51:10.000Z</time>
      </trkpt>
      <trkpt lat="49.36352" lon="3.26522">
        <ele>122.80000305176</ele>
        <time>2021-03-21T14:51:15.000Z</time>
      </trkpt>
      <trkpt lat="49.36348" lon="3.26494">
        <ele>123.59999847412</ele>
        <time>2021-03-21T14:51:20.000Z</time>
      </trkpt>
      <trkpt lat="49.36336" lon="3.26458">
        <ele>125.19999694824</ele>
        <time>2021-03-21T14:51:27.000Z</time>
      </trkpt>
      <trkpt lat="49.36328" lon="3.26439">
        <ele>125.80000305176</ele>
        <time>2021-03-21T14:51:32.000Z</time>
      </trkpt>
      <trkpt lat="49.36313" lon="3.2641">
        <ele>125.80000305176</ele>
        <time>2021-03-21T14:51:40.000Z</time>
      </trkpt>
      <trkpt lat="49.36304" lon="3.26392">
        <ele>125.19999694824</ele>
        <time>2021-03-21T14:51:45.000Z</time>
      </trkpt>
      <trkpt lat="49.36292" lon="3.26365">
        <ele>125.19999694824</ele>
        <time>2021-03-21T14:51:50.000Z</time>
      </trkpt>
      <trkpt lat="49.36278" lon="3.2633">
        <ele>125.19999694824</ele>
        <time>2021-03-21T14:51:56.000Z</time>
      </trkpt>
      <trkpt lat="49.36265" lon="3.26297">
        <ele>125.40000152588</ele>
        <time>2021-03-21T14:52:02.000Z</time>
      </trkpt>
      <trkpt lat="49.3625" lon="3.26248">
        <ele>125.19999694824</ele>
        <time>2021-03-21T14:52:11.000Z</time>
      </trkpt>
      <trkpt lat="49.36241" lon="3.26209">
        <ele>125.40000152588</ele>
        <time>2021-03-21T14:52:17.000Z</time>
      </trkpt>
      <trkpt lat="49.3623" lon="3.26161">
        <ele>124.80000305176</ele>
        <time>2021-03-21T14:52:24.000Z</time>
      </trkpt>
      <trkpt lat="49.36229" lon="3.26154">
        <ele>124.59999847412</ele>
        <time>2021-03-21T14:52:25.000Z</time>
      </trkpt>
      <trkpt lat="49.36226" lon="3.26134">
        <ele>123.80000305176</ele>
        <time>2021-03-21T14:52:28.000Z</time>
      </trkpt>
      <trkpt lat="49.36225" lon="3.26127">
        <ele>123.40000152588</ele>
        <time>2021-03-21T14:52:29.000Z</time>
      </trkpt>
      <trkpt lat="49.36219" lon="3.26091">
        <ele>121.59999847412</ele>
        <time>2021-03-21T14:52:35.000Z</time>
      </trkpt>
      <trkpt lat="49.36215" lon="3.26088">
        <ele>121.19999694824</ele>
        <time>2021-03-21T14:52:37.000Z</time>
      </trkpt>
      <trkpt lat="49.36213" lon="3.26089">
        <ele>121</ele>
        <time>2021-03-21T14:52:38.000Z</time>
      </trkpt>
      <trkpt lat="49.36193" lon="3.26097">
        <ele>119.80000305176</ele>
        <time>2021-03-21T14:52:44.000Z</time>
      </trkpt>
      <trkpt lat="49.36168" lon="3.26107">
        <ele>120</ele>
        <time>2021-03-21T14:52:51.000Z</time>
      </trkpt>
      <trkpt lat="49.36145" lon="3.26117">
        <ele>121.80000305176</ele>
        <time>2021-03-21T14:52:58.000Z</time>
      </trkpt>
      <trkpt lat="49.36114" lon="3.2613">
        <ele>123.59999847412</ele>
        <time>2021-03-21T14:53:07.000Z</time>
      </trkpt>
      <trkpt lat="49.36083" lon="3.26143">
        <ele>124.19999694824</ele>
        <time>2021-03-21T14:53:16.000Z</time>
      </trkpt>
      <trkpt lat="49.36057" lon="3.26156">
        <ele>124.80000305176</ele>
        <time>2021-03-21T14:53:24.000Z</time>
      </trkpt>
      <trkpt lat="49.36032" lon="3.26167">
        <ele>126</ele>
        <time>2021-03-21T14:53:32.000Z</time>
      </trkpt>
      <trkpt lat="49.36008" lon="3.26175">
        <ele>126.59999847412</ele>
        <time>2021-03-21T14:53:40.000Z</time>
      </trkpt>
      <trkpt lat="49.35991" lon="3.26187">
        <ele>127.19999694824</ele>
        <time>2021-03-21T14:53:46.000Z</time>
      </trkpt>
      <trkpt lat="49.35972" lon="3.26193">
        <ele>128</ele>
        <time>2021-03-21T14:53:52.000Z</time>
      </trkpt>
      <trkpt lat="49.35939" lon="3.26196">
        <ele>128.39999389648</ele>
        <time>2021-03-21T14:54:02.000Z</time>
      </trkpt>
      <trkpt lat="49.35904" lon="3.26201">
        <ele>129.39999389648</ele>
        <time>2021-03-21T14:54:11.000Z</time>
      </trkpt>
      <trkpt lat="49.35877" lon="3.26201">
        <ele>129.80000305176</ele>
        <time>2021-03-21T14:54:18.000Z</time>
      </trkpt>
      <trkpt lat="49.35848" lon="3.26198">
        <ele>130</ele>
        <time>2021-03-21T14:54:26.000Z</time>
      </trkpt>
      <trkpt lat="49.35808" lon="3.2619">
        <ele>130</ele>
        <time>2021-03-21T14:54:36.000Z</time>
      </trkpt>
      <trkpt lat="49.35775" lon="3.26181">
        <ele>131</ele>
        <time>2021-03-21T14:54:44.000Z</time>
      </trkpt>
      <trkpt lat="49.35733" lon="3.26164">
        <ele>131.19999694824</ele>
        <time>2021-03-21T14:54:54.000Z</time>
      </trkpt>
      <trkpt lat="49.3569" lon="3.26143">
        <ele>130.39999389648</ele>
        <time>2021-03-21T14:55:03.000Z</time>
      </trkpt>
      <trkpt lat="49.3565" lon="3.2612">
        <ele>130</ele>
        <time>2021-03-21T14:55:11.000Z</time>
      </trkpt>
      <trkpt lat="49.35602" lon="3.26091">
        <ele>130.60000610352</ele>
        <time>2021-03-21T14:55:21.000Z</time>
      </trkpt>
      <trkpt lat="49.35561" lon="3.26073">
        <ele>130</ele>
        <time>2021-03-21T14:55:29.000Z</time>
      </trkpt>
      <trkpt lat="49.35517" lon="3.26059">
        <ele>129.60000610352</ele>
        <time>2021-03-21T14:55:37.000Z</time>
      </trkpt>
      <trkpt lat="49.35467" lon="3.26036">
        <ele>129.60000610352</ele>
        <time>2021-03-21T14:55:46.000Z</time>
      </trkpt>
      <trkpt lat="49.35429" lon="3.26018">
        <ele>130.39999389648</ele>
        <time>2021-03-21T14:55:53.000Z</time>
      </trkpt>
      <trkpt lat="49.35382" lon="3.25997">
        <ele>132.19999694824</ele>
        <time>2021-03-21T14:56:02.000Z</time>
      </trkpt>
      <trkpt lat="49.35334" lon="3.25982">
        <ele>132.19999694824</ele>
        <time>2021-03-21T14:56:10.000Z</time>
      </trkpt>
      <trkpt lat="49.35286" lon="3.25973">
        <ele>131</ele>
        <time>2021-03-21T14:56:18.000Z</time>
      </trkpt>
      <trkpt lat="49.35239" lon="3.25962">
        <ele>129.60000610352</ele>
        <time>2021-03-21T14:56:26.000Z</time>
      </trkpt>
      <trkpt lat="49.35202" lon="3.25964">
        <ele>128.39999389648</ele>
        <time>2021-03-21T14:56:31.000Z</time>
      </trkpt>
      <trkpt lat="49.35148" lon="3.25976">
        <ele>126.80000305176</ele>
        <time>2021-03-21T14:56:38.000Z</time>
      </trkpt>
      <trkpt lat="49.35097" lon="3.2598">
        <ele>127</ele>
        <time>2021-03-21T14:56:45.000Z</time>
      </trkpt>
      <trkpt lat="49.35062" lon="3.25978">
        <ele>125.80000305176</ele>
        <time>2021-03-21T14:56:50.000Z</time>
      </trkpt>
      <trkpt lat="49.35054" lon="3.25979">
        <ele>125.19999694824</ele>
        <time>2021-03-21T14:56:51.000Z</time>
      </trkpt>
      <trkpt lat="49.35017" lon="3.25992">
        <ele>124</ele>
        <time>2021-03-21T14:56:56.000Z</time>
      </trkpt>
      <trkpt lat="49.34998" lon="3.26001">
        <ele>124</ele>
        <time>2021-03-21T14:57:00.000Z</time>
      </trkpt>
      <trkpt lat="49.34995" lon="3.26005">
        <ele>124</ele>
        <time>2021-03-21T14:57:01.000Z</time>
      </trkpt>
      <trkpt lat="49.34994" lon="3.26013">
        <ele>124</ele>
        <time>2021-03-21T14:57:03.000Z</time>
      </trkpt>
      <trkpt lat="49.35003" lon="3.26032">
        <ele>124.59999847412</ele>
        <time>2021-03-21T14:57:08.000Z</time>
      </trkpt>
      <trkpt lat="49.35023" lon="3.26062">
        <ele>126</ele>
        <time>2021-03-21T14:57:15.000Z</time>
      </trkpt>
      <trkpt lat="49.35039" lon="3.26089">
        <ele>126.59999847412</ele>
        <time>2021-03-21T14:57:21.000Z</time>
      </trkpt>
      <trkpt lat="49.35062" lon="3.26125">
        <ele>127.80000305176</ele>
        <time>2021-03-21T14:57:29.000Z</time>
      </trkpt>
      <trkpt lat="49.35082" lon="3.26156">
        <ele>129.19999694824</ele>
        <time>2021-03-21T14:57:36.000Z</time>
      </trkpt>
      <trkpt lat="49.35084" lon="3.26161">
        <ele>129.39999389648</ele>
        <time>2021-03-21T14:57:37.000Z</time>
      </trkpt>
      <trkpt lat="49.35092" lon="3.26188">
        <ele>130</ele>
        <time>2021-03-21T14:57:42.000Z</time>
      </trkpt>
      <trkpt lat="49.35093" lon="3.26228">
        <ele>130.39999389648</ele>
        <time>2021-03-21T14:57:49.000Z</time>
      </trkpt>
      <trkpt lat="49.35088" lon="3.26274">
        <ele>131.19999694824</ele>
        <time>2021-03-21T14:57:57.000Z</time>
      </trkpt>
      <trkpt lat="49.35077" lon="3.26326">
        <ele>131.80000305176</ele>
        <time>2021-03-21T14:58:06.000Z</time>
      </trkpt>
      <trkpt lat="49.35069" lon="3.26376">
        <ele>131.60000610352</ele>
        <time>2021-03-21T14:58:14.000Z</time>
      </trkpt>
      <trkpt lat="49.35064" lon="3.26429">
        <ele>133.39999389648</ele>
        <time>2021-03-21T14:58:22.000Z</time>
      </trkpt>
      <trkpt lat="49.35059" lon="3.26489">
        <ele>134.60000610352</ele>
        <time>2021-03-21T14:58:31.000Z</time>
      </trkpt>
      <trkpt lat="49.35059" lon="3.26547">
        <ele>135.60000610352</ele>
        <time>2021-03-21T14:58:40.000Z</time>
      </trkpt>
      <trkpt lat="49.35061" lon="3.26585">
        <ele>136.60000610352</ele>
        <time>2021-03-21T14:58:46.000Z</time>
      </trkpt>
      <trkpt lat="49.35061" lon="3.26628">
        <ele>137</ele>
        <time>2021-03-21T14:58:53.000Z</time>
      </trkpt>
      <trkpt lat="49.3506" lon="3.26683">
        <ele>137.60000610352</ele>
        <time>2021-03-21T14:59:02.000Z</time>
      </trkpt>
      <trkpt lat="49.35061" lon="3.26741">
        <ele>138.39999389648</ele>
        <time>2021-03-21T14:59:11.000Z</time>
      </trkpt>
      <trkpt lat="49.35065" lon="3.2679">
        <ele>139</ele>
        <time>2021-03-21T14:59:19.000Z</time>
      </trkpt>
      <trkpt lat="49.35068" lon="3.26828">
        <ele>139.60000610352</ele>
        <time>2021-03-21T14:59:25.000Z</time>
      </trkpt>
      <trkpt lat="49.35069" lon="3.26841">
        <ele>139.60000610352</ele>
        <time>2021-03-21T14:59:27.000Z</time>
      </trkpt>
      <trkpt lat="49.35071" lon="3.2688">
        <ele>139.80000305176</ele>
        <time>2021-03-21T14:59:33.000Z</time>
      </trkpt>
      <trkpt lat="49.35072" lon="3.26886">
        <ele>139.80000305176</ele>
        <time>2021-03-21T14:59:34.000Z</time>
      </trkpt>
      <trkpt lat="49.35077" lon="3.26937">
        <ele>140.80000305176</ele>
        <time>2021-03-21T14:59:42.000Z</time>
      </trkpt>
      <trkpt lat="49.3508" lon="3.26978">
        <ele>141</ele>
        <time>2021-03-21T14:59:48.000Z</time>
      </trkpt>
      <trkpt lat="49.35081" lon="3.26985">
        <ele>141.19999694824</ele>
        <time>2021-03-21T14:59:49.000Z</time>
      </trkpt>
      <trkpt lat="49.35085" lon="3.27047">
        <ele>141.39999389648</ele>
        <time>2021-03-21T14:59:58.000Z</time>
      </trkpt>
      <trkpt lat="49.35086" lon="3.27107">
        <ele>141.39999389648</ele>
        <time>2021-03-21T15:00:07.000Z</time>
      </trkpt>
      <trkpt lat="49.35084" lon="3.27166">
        <ele>142.19999694824</ele>
        <time>2021-03-21T15:00:16.000Z</time>
      </trkpt>
      <trkpt lat="49.35084" lon="3.27237">
        <ele>143</ele>
        <time>2021-03-21T15:00:26.000Z</time>
      </trkpt>
      <trkpt lat="49.35083" lon="3.27298">
        <ele>142.19999694824</ele>
        <time>2021-03-21T15:00:35.000Z</time>
      </trkpt>
      <trkpt lat="49.35082" lon="3.27345">
        <ele>142.60000610352</ele>
        <time>2021-03-21T15:00:42.000Z</time>
      </trkpt>
      <trkpt lat="49.35081" lon="3.27412">
        <ele>144</ele>
        <time>2021-03-21T15:00:52.000Z</time>
      </trkpt>
      <trkpt lat="49.3508" lon="3.27465">
        <ele>145</ele>
        <time>2021-03-21T15:01:00.000Z</time>
      </trkpt>
      <trkpt lat="49.35082" lon="3.27516">
        <ele>144.19999694824</ele>
        <time>2021-03-21T15:01:08.000Z</time>
      </trkpt>
      <trkpt lat="49.35086" lon="3.27567">
        <ele>144</ele>
        <time>2021-03-21T15:01:16.000Z</time>
      </trkpt>
      <trkpt lat="49.35092" lon="3.27631">
        <ele>145</ele>
        <time>2021-03-21T15:01:26.000Z</time>
      </trkpt>
      <trkpt lat="49.35095" lon="3.27681">
        <ele>145.39999389648</ele>
        <time>2021-03-21T15:01:34.000Z</time>
      </trkpt>
      <trkpt lat="49.35098" lon="3.27693">
        <ele>145.39999389648</ele>
        <time>2021-03-21T15:01:36.000Z</time>
      </trkpt>
      <trkpt lat="49.35101" lon="3.27704">
        <ele>145.19999694824</ele>
        <time>2021-03-21T15:01:38.000Z</time>
      </trkpt>
      <trkpt lat="49.35104" lon="3.27709">
        <ele>145.19999694824</ele>
        <time>2021-03-21T15:01:39.000Z</time>
      </trkpt>
      <trkpt lat="49.3512" lon="3.27725">
        <ele>145.19999694824</ele>
        <time>2021-03-21T15:01:44.000Z</time>
      </trkpt>
      <trkpt lat="49.35155" lon="3.27735">
        <ele>146.80000305176</ele>
        <time>2021-03-21T15:01:53.000Z</time>
      </trkpt>
      <trkpt lat="49.35185" lon="3.2774">
        <ele>147.80000305176</ele>
        <time>2021-03-21T15:02:02.000Z</time>
      </trkpt>
      <trkpt lat="49.3521" lon="3.27743">
        <ele>148.80000305176</ele>
        <time>2021-03-21T15:02:10.000Z</time>
      </trkpt>
      <trkpt lat="49.35236" lon="3.27746">
        <ele>149</ele>
        <time>2021-03-21T15:02:19.000Z</time>
      </trkpt>
      <trkpt lat="49.35264" lon="3.27749">
        <ele>149.39999389648</ele>
        <time>2021-03-21T15:02:28.000Z</time>
      </trkpt>
      <trkpt lat="49.35288" lon="3.27751">
        <ele>150</ele>
        <time>2021-03-21T15:02:36.000Z</time>
      </trkpt>
      <trkpt lat="49.3531" lon="3.27755">
        <ele>150</ele>
        <time>2021-03-21T15:02:44.000Z</time>
      </trkpt>
      <trkpt lat="49.35329" lon="3.27757">
        <ele>150</ele>
        <time>2021-03-21T15:02:51.000Z</time>
      </trkpt>
      <trkpt lat="49.35349" lon="3.2776">
        <ele>150</ele>
        <time>2021-03-21T15:02:58.000Z</time>
      </trkpt>
      <trkpt lat="49.35362" lon="3.27775">
        <ele>149.80000305176</ele>
        <time>2021-03-21T15:03:03.000Z</time>
      </trkpt>
      <trkpt lat="49.35364" lon="3.27786">
        <ele>149.19999694824</ele>
        <time>2021-03-21T15:03:05.000Z</time>
      </trkpt>
      <trkpt lat="49.35363" lon="3.27798">
        <ele>148.80000305176</ele>
        <time>2021-03-21T15:03:07.000Z</time>
      </trkpt>
      <trkpt lat="49.35361" lon="3.27804">
        <ele>148.80000305176</ele>
        <time>2021-03-21T15:03:08.000Z</time>
      </trkpt>
      <trkpt lat="49.35353" lon="3.2782">
        <ele>149</ele>
        <time>2021-03-21T15:03:11.000Z</time>
      </trkpt>
      <trkpt lat="49.35337" lon="3.27868">
        <ele>147.80000305176</ele>
        <time>2021-03-21T15:03:18.000Z</time>
      </trkpt>
      <trkpt lat="49.35326" lon="3.27918">
        <ele>147</ele>
        <time>2021-03-21T15:03:24.000Z</time>
      </trkpt>
      <trkpt lat="49.35312" lon="3.27981">
        <ele>147</ele>
        <time>2021-03-21T15:03:31.000Z</time>
      </trkpt>
      <trkpt lat="49.35302" lon="3.28009">
        <ele>146.39999389648</ele>
        <time>2021-03-21T15:03:36.000Z</time>
      </trkpt>
      <trkpt lat="49.35291" lon="3.28034">
        <ele>145.19999694824</ele>
        <time>2021-03-21T15:03:42.000Z</time>
      </trkpt>
      <trkpt lat="49.35288" lon="3.2804">
        <ele>144.80000305176</ele>
        <time>2021-03-21T15:03:44.000Z</time>
      </trkpt>
      <trkpt lat="49.35287" lon="3.28041">
        <ele>144.80000305176</ele>
        <time>2021-03-21T15:03:45.000Z</time>
      </trkpt>
      <trkpt lat="49.35284" lon="3.28039">
        <ele>144.80000305176</ele>
        <time>2021-03-21T15:03:47.000Z</time>
      </trkpt>
      <trkpt lat="49.3528" lon="3.28039">
        <ele>144.60000610352</ele>
        <time>2021-03-21T15:03:49.000Z</time>
      </trkpt>
      <trkpt lat="49.35279" lon="3.28053">
        <ele>144</ele>
        <time>2021-03-21T15:03:52.000Z</time>
      </trkpt>
      <trkpt lat="49.35282" lon="3.28066">
        <ele>143.80000305176</ele>
        <time>2021-03-21T15:03:54.000Z</time>
      </trkpt>
      <trkpt lat="49.35283" lon="3.28081">
        <ele>143.19999694824</ele>
        <time>2021-03-21T15:03:56.000Z</time>
      </trkpt>
      <trkpt lat="49.35283" lon="3.2809">
        <ele>143</ele>
        <time>2021-03-21T15:03:57.000Z</time>
      </trkpt>
      <trkpt lat="49.35278" lon="3.28138">
        <ele>141.80000305176</ele>
        <time>2021-03-21T15:04:02.000Z</time>
      </trkpt>
      <trkpt lat="49.35262" lon="3.28212">
        <ele>139.60000610352</ele>
        <time>2021-03-21T15:04:09.000Z</time>
      </trkpt>
      <trkpt lat="49.35243" lon="3.28301">
        <ele>137</ele>
        <time>2021-03-21T15:04:17.000Z</time>
      </trkpt>
      <trkpt lat="49.35237" lon="3.28324">
        <ele>136.39999389648</ele>
        <time>2021-03-21T15:04:19.000Z</time>
      </trkpt>
      <trkpt lat="49.35218" lon="3.28411">
        <ele>136</ele>
        <time>2021-03-21T15:04:26.000Z</time>
      </trkpt>
      <trkpt lat="49.35213" lon="3.28435">
        <ele>136.19999694824</ele>
        <time>2021-03-21T15:04:28.000Z</time>
      </trkpt>
      <trkpt lat="49.35211" lon="3.2846">
        <ele>136.19999694824</ele>
        <time>2021-03-21T15:04:30.000Z</time>
      </trkpt>
      <trkpt lat="49.35213" lon="3.28508">
        <ele>135.39999389648</ele>
        <time>2021-03-21T15:04:34.000Z</time>
      </trkpt>
      <trkpt lat="49.35207" lon="3.28534">
        <ele>134.19999694824</ele>
        <time>2021-03-21T15:04:37.000Z</time>
      </trkpt>
      <trkpt lat="49.35196" lon="3.28577">
        <ele>132.19999694824</ele>
        <time>2021-03-21T15:04:43.000Z</time>
      </trkpt>
      <trkpt lat="49.35186" lon="3.28625">
        <ele>131.19999694824</ele>
        <time>2021-03-21T15:04:49.000Z</time>
      </trkpt>
      <trkpt lat="49.35177" lon="3.28692">
        <ele>131.60000610352</ele>
        <time>2021-03-21T15:04:56.000Z</time>
      </trkpt>
      <trkpt lat="49.35175" lon="3.28733">
        <ele>132.60000610352</ele>
        <time>2021-03-21T15:05:00.000Z</time>
      </trkpt>
      <trkpt lat="49.35173" lon="3.28753">
        <ele>132.60000610352</ele>
        <time>2021-03-21T15:05:02.000Z</time>
      </trkpt>
      <trkpt lat="49.35165" lon="3.28803">
        <ele>133</ele>
        <time>2021-03-21T15:05:08.000Z</time>
      </trkpt>
      <trkpt lat="49.35164" lon="3.28817">
        <ele>133</ele>
        <time>2021-03-21T15:05:11.000Z</time>
      </trkpt>
      <trkpt lat="49.35165" lon="3.28819">
        <ele>133</ele>
        <time>2021-03-21T15:05:12.000Z</time>
      </trkpt>
      <trkpt lat="49.3517" lon="3.28825">
        <ele>133</ele>
        <time>2021-03-21T15:05:17.000Z</time>
      </trkpt>
      <trkpt lat="49.35183" lon="3.28825">
        <ele>133</ele>
        <time>2021-03-21T15:05:21.000Z</time>
      </trkpt>
      <trkpt lat="49.35209" lon="3.28828">
        <ele>131</ele>
        <time>2021-03-21T15:05:27.000Z</time>
      </trkpt>
      <trkpt lat="49.35217" lon="3.28827">
        <ele>130.19999694824</ele>
        <time>2021-03-21T15:05:29.000Z</time>
      </trkpt>
      <trkpt lat="49.35221" lon="3.28828">
        <ele>129.39999389648</ele>
        <time>2021-03-21T15:05:30.000Z</time>
      </trkpt>
      <trkpt lat="49.35235" lon="3.28833">
        <ele>127</ele>
        <time>2021-03-21T15:05:34.000Z</time>
      </trkpt>
      <trkpt lat="49.35252" lon="3.28847">
        <ele>123.19999694824</ele>
        <time>2021-03-21T15:05:39.000Z</time>
      </trkpt>
      <trkpt lat="49.35262" lon="3.28866">
        <ele>120.19999694824</ele>
        <time>2021-03-21T15:05:43.000Z</time>
      </trkpt>
      <trkpt lat="49.35265" lon="3.28872">
        <ele>119.59999847412</ele>
        <time>2021-03-21T15:05:44.000Z</time>
      </trkpt>
      <trkpt lat="49.35271" lon="3.28887">
        <ele>117.40000152588</ele>
        <time>2021-03-21T15:05:47.000Z</time>
      </trkpt>
      <trkpt lat="49.35283" lon="3.28914">
        <ele>112.40000152588</ele>
        <time>2021-03-21T15:05:52.000Z</time>
      </trkpt>
      <trkpt lat="49.35289" lon="3.28933">
        <ele>110.19999694824</ele>
        <time>2021-03-21T15:05:56.000Z</time>
      </trkpt>
      <trkpt lat="49.35296" lon="3.28943">
        <ele>108.40000152588</ele>
        <time>2021-03-21T15:06:00.000Z</time>
      </trkpt>
      <trkpt lat="49.35296" lon="3.28959">
        <ele>108.40000152588</ele>
        <time>2021-03-21T15:06:04.000Z</time>
      </trkpt>
      <trkpt lat="49.35298" lon="3.28972">
        <ele>108</ele>
        <time>2021-03-21T15:06:08.000Z</time>
      </trkpt>
      <trkpt lat="49.35303" lon="3.28977">
        <ele>107.19999694824</ele>
        <time>2021-03-21T15:06:10.000Z</time>
      </trkpt>
      <trkpt lat="49.35307" lon="3.28978">
        <ele>106.40000152588</ele>
        <time>2021-03-21T15:06:11.000Z</time>
      </trkpt>
      <trkpt lat="49.3532" lon="3.28974">
        <ele>104</ele>
        <time>2021-03-21T15:06:14.000Z</time>
      </trkpt>
      <trkpt lat="49.35338" lon="3.28971">
        <ele>100.59999847412</ele>
        <time>2021-03-21T15:06:18.000Z</time>
      </trkpt>
      <trkpt lat="49.35353" lon="3.28977">
        <ele>98</ele>
        <time>2021-03-21T15:06:22.000Z</time>
      </trkpt>
      <trkpt lat="49.35368" lon="3.28976">
        <ele>95.599998474121</ele>
        <time>2021-03-21T15:06:26.000Z</time>
      </trkpt>
      <trkpt lat="49.35377" lon="3.28977">
        <ele>94.199996948242</ele>
        <time>2021-03-21T15:06:28.000Z</time>
      </trkpt>
      <trkpt lat="49.35382" lon="3.28976">
        <ele>93.199996948242</ele>
        <time>2021-03-21T15:06:29.000Z</time>
      </trkpt>
      <trkpt lat="49.35398" lon="3.28978">
        <ele>91</ele>
        <time>2021-03-21T15:06:33.000Z</time>
      </trkpt>
      <trkpt lat="49.35402" lon="3.2898">
        <ele>90.400001525879</ele>
        <time>2021-03-21T15:06:34.000Z</time>
      </trkpt>
      <trkpt lat="49.35412" lon="3.28987">
        <ele>89.400001525879</ele>
        <time>2021-03-21T15:06:36.000Z</time>
      </trkpt>
      <trkpt lat="49.35416" lon="3.2899">
        <ele>89</ele>
        <time>2021-03-21T15:06:37.000Z</time>
      </trkpt>
      <trkpt lat="49.3543" lon="3.29001">
        <ele>87.800003051758</ele>
        <time>2021-03-21T15:06:40.000Z</time>
      </trkpt>
      <trkpt lat="49.35437" lon="3.29011">
        <ele>87</ele>
        <time>2021-03-21T15:06:42.000Z</time>
      </trkpt>
      <trkpt lat="49.35443" lon="3.29024">
        <ele>86.800003051758</ele>
        <time>2021-03-21T15:06:44.000Z</time>
      </trkpt>
      <trkpt lat="49.35443" lon="3.29032">
        <ele>87.199996948242</ele>
        <time>2021-03-21T15:06:45.000Z</time>
      </trkpt>
      <trkpt lat="49.35438" lon="3.29056">
        <ele>89.400001525879</ele>
        <time>2021-03-21T15:06:48.000Z</time>
      </trkpt>
      <trkpt lat="49.35434" lon="3.29072">
        <ele>90</ele>
        <time>2021-03-21T15:06:50.000Z</time>
      </trkpt>
      <trkpt lat="49.35433" lon="3.29087">
        <ele>89.400001525879</ele>
        <time>2021-03-21T15:06:52.000Z</time>
      </trkpt>
      <trkpt lat="49.35434" lon="3.29095">
        <ele>88.599998474121</ele>
        <time>2021-03-21T15:06:53.000Z</time>
      </trkpt>
      <trkpt lat="49.35447" lon="3.29128">
        <ele>82.800003051758</ele>
        <time>2021-03-21T15:06:58.000Z</time>
      </trkpt>
      <trkpt lat="49.35453" lon="3.29146">
        <ele>79.800003051758</ele>
        <time>2021-03-21T15:07:01.000Z</time>
      </trkpt>
      <trkpt lat="49.35458" lon="3.2916">
        <ele>77.400001525879</ele>
        <time>2021-03-21T15:07:03.000Z</time>
      </trkpt>
      <trkpt lat="49.3546" lon="3.29166">
        <ele>76.199996948242</ele>
        <time>2021-03-21T15:07:04.000Z</time>
      </trkpt>
      <trkpt lat="49.35473" lon="3.29199">
        <ele>72.199996948242</ele>
        <time>2021-03-21T15:07:09.000Z</time>
      </trkpt>
      <trkpt lat="49.35485" lon="3.29236">
        <ele>69.599998474121</ele>
        <time>2021-03-21T15:07:14.000Z</time>
      </trkpt>
      <trkpt lat="49.35492" lon="3.29259">
        <ele>69</ele>
        <time>2021-03-21T15:07:17.000Z</time>
      </trkpt>
      <trkpt lat="49.35496" lon="3.29272">
        <ele>69</ele>
        <time>2021-03-21T15:07:19.000Z</time>
      </trkpt>
      <trkpt lat="49.35511" lon="3.29313">
        <ele>68</ele>
        <time>2021-03-21T15:07:26.000Z</time>
      </trkpt>
      <trkpt lat="49.35519" lon="3.29342">
        <ele>68.599998474121</ele>
        <time>2021-03-21T15:07:31.000Z</time>
      </trkpt>
      <trkpt lat="49.35526" lon="3.29353">
        <ele>68.599998474121</ele>
        <time>2021-03-21T15:07:35.000Z</time>
      </trkpt>
      <trkpt lat="49.3552" lon="3.29365">
        <ele>70.599998474121</ele>
        <time>2021-03-21T15:07:38.000Z</time>
      </trkpt>
      <trkpt lat="49.35519" lon="3.29369">
        <ele>71.199996948242</ele>
        <time>2021-03-21T15:07:39.000Z</time>
      </trkpt>
      <trkpt lat="49.35519" lon="3.29379">
        <ele>72.199996948242</ele>
        <time>2021-03-21T15:07:41.000Z</time>
      </trkpt>
      <trkpt lat="49.35525" lon="3.29406">
        <ele>75.199996948242</ele>
        <time>2021-03-21T15:07:46.000Z</time>
      </trkpt>
      <trkpt lat="49.35531" lon="3.2944">
        <ele>78</ele>
        <time>2021-03-21T15:07:53.000Z</time>
      </trkpt>
      <trkpt lat="49.35535" lon="3.29477">
        <ele>79.199996948242</ele>
        <time>2021-03-21T15:08:01.000Z</time>
      </trkpt>
      <trkpt lat="49.35531" lon="3.29549">
        <ele>83.7</ele>
      </trkpt>
      <trkpt lat="49.35532" lon="3.29586">
        <ele>84.6</ele>
      </trkpt>
      <trkpt lat="49.35534" lon="3.29621">
        <ele>82.1</ele>
      </trkpt>
      <trkpt lat="49.35533" lon="3.29692">
        <ele>76.3</ele>
      </trkpt>
      <trkpt lat="49.35534" lon="3.29697">
        <ele>73.400001525879</ele>
        <time>2021-03-21T15:23:12.000Z</time>
      </trkpt>
      <trkpt lat="49.35531" lon="3.29701">
        <ele>73</ele>
        <time>2021-03-21T15:23:14.000Z</time>
      </trkpt>
      <trkpt lat="49.35523" lon="3.29719">
        <ele>70.800003051758</ele>
        <time>2021-03-21T15:23:19.000Z</time>
      </trkpt>
      <trkpt lat="49.35509" lon="3.29744">
        <ele>69</ele>
        <time>2021-03-21T15:23:23.000Z</time>
      </trkpt>
      <trkpt lat="49.35493" lon="3.29776">
        <ele>68.400001525879</ele>
        <time>2021-03-21T15:23:28.000Z</time>
      </trkpt>
      <trkpt lat="49.35491" lon="3.29783">
        <ele>68.800003051758</ele>
        <time>2021-03-21T15:23:29.000Z</time>
      </trkpt>
      <trkpt lat="49.35479" lon="3.29813">
        <ele>70</ele>
        <time>2021-03-21T15:23:34.000Z</time>
      </trkpt>
      <trkpt lat="49.35466" lon="3.29844">
        <ele>73</ele>
        <time>2021-03-21T15:23:39.000Z</time>
      </trkpt>
      <trkpt lat="49.35456" lon="3.2987">
        <ele>74.199996948242</ele>
        <time>2021-03-21T15:23:43.000Z</time>
      </trkpt>
      <trkpt lat="49.35445" lon="3.29899">
        <ele>73.800003051758</ele>
        <time>2021-03-21T15:23:48.000Z</time>
      </trkpt>
      <trkpt lat="49.35438" lon="3.29923">
        <ele>72.599998474121</ele>
        <time>2021-03-21T15:23:53.000Z</time>
      </trkpt>
      <trkpt lat="49.35435" lon="3.29931">
        <ele>72.199996948242</ele>
        <time>2021-03-21T15:23:55.000Z</time>
      </trkpt>
      <trkpt lat="49.35432" lon="3.29942">
        <ele>72</ele>
        <time>2021-03-21T15:23:57.000Z</time>
      </trkpt>
      <trkpt lat="49.35421" lon="3.29976">
        <ele>72</ele>
        <time>2021-03-21T15:24:02.000Z</time>
      </trkpt>
      <trkpt lat="49.35411" lon="3.30015">
        <ele>72</ele>
        <time>2021-03-21T15:24:07.000Z</time>
      </trkpt>
      <trkpt lat="49.35402" lon="3.3004">
        <ele>72.400001525879</ele>
        <time>2021-03-21T15:24:11.000Z</time>
      </trkpt>
      <trkpt lat="49.35388" lon="3.30075">
        <ele>72.800003051758</ele>
        <time>2021-03-21T15:24:17.000Z</time>
      </trkpt>
      <trkpt lat="49.35381" lon="3.30099">
        <ele>74.199996948242</ele>
        <time>2021-03-21T15:24:21.000Z</time>
      </trkpt>
      <trkpt lat="49.35381" lon="3.30106">
        <ele>74.400001525879</ele>
        <time>2021-03-21T15:24:22.000Z</time>
      </trkpt>
      <trkpt lat="49.35382" lon="3.3012">
        <ele>74.400001525879</ele>
        <time>2021-03-21T15:24:24.000Z</time>
      </trkpt>
      <trkpt lat="49.35383" lon="3.30142">
        <ele>74</ele>
        <time>2021-03-21T15:24:28.000Z</time>
      </trkpt>
      <trkpt lat="49.35392" lon="3.30156">
        <ele>73</ele>
        <time>2021-03-21T15:24:31.000Z</time>
      </trkpt>
      <trkpt lat="49.35407" lon="3.30177">
        <ele>71.599998474121</ele>
        <time>2021-03-21T15:24:35.000Z</time>
      </trkpt>
      <trkpt lat="49.35415" lon="3.30186">
        <ele>71</ele>
        <time>2021-03-21T15:24:37.000Z</time>
      </trkpt>
      <trkpt lat="49.35442" lon="3.30217">
        <ele>69</ele>
        <time>2021-03-21T15:24:43.000Z</time>
      </trkpt>
      <trkpt lat="49.3545" lon="3.30226">
        <ele>68.599998474121</ele>
        <time>2021-03-21T15:24:45.000Z</time>
      </trkpt>
      <trkpt lat="49.35456" lon="3.30235">
        <ele>68.400001525879</ele>
        <time>2021-03-21T15:24:47.000Z</time>
      </trkpt>
      <trkpt lat="49.35472" lon="3.30253">
        <ele>67.599998474121</ele>
        <time>2021-03-21T15:24:52.000Z</time>
      </trkpt>
      <trkpt lat="49.35486" lon="3.30268">
        <ele>66.599998474121</ele>
        <time>2021-03-21T15:24:56.000Z</time>
      </trkpt>
      <trkpt lat="49.35496" lon="3.3027">
        <ele>66</ele>
        <time>2021-03-21T15:25:00.000Z</time>
      </trkpt>
      <trkpt lat="49.35497" lon="3.3027">
        <ele>66</ele>
        <time>2021-03-21T15:25:01.000Z</time>
      </trkpt>
      <trkpt lat="49.35509" lon="3.30273">
        <ele>65.199996948242</ele>
        <time>2021-03-21T15:25:13.000Z</time>
      </trkpt>
      <trkpt lat="49.35514" lon="3.30274">
        <ele>64.800003051758</ele>
        <time>2021-03-21T15:25:15.000Z</time>
      </trkpt>
      <trkpt lat="49.35531" lon="3.30274">
        <ele>63.799999237061</ele>
        <time>2021-03-21T15:25:19.000Z</time>
      </trkpt>
      <trkpt lat="49.35563" lon="3.30273">
        <ele>62.599998474121</ele>
        <time>2021-03-21T15:25:25.000Z</time>
      </trkpt>
      <trkpt lat="49.35593" lon="3.30268">
        <ele>60.799999237061</ele>
        <time>2021-03-21T15:25:31.000Z</time>
      </trkpt>
      <trkpt lat="49.35625" lon="3.3027">
        <ele>60</ele>
        <time>2021-03-21T15:25:38.000Z</time>
      </trkpt>
      <trkpt lat="49.35656" lon="3.30271">
        <ele>60</ele>
        <time>2021-03-21T15:25:46.000Z</time>
      </trkpt>
      <trkpt lat="49.35679" lon="3.30272">
        <ele>59.400001525879</ele>
        <time>2021-03-21T15:25:53.000Z</time>
      </trkpt>
      <trkpt lat="49.35691" lon="3.30272">
        <ele>59</ele>
        <time>2021-03-21T15:25:58.000Z</time>
      </trkpt>
      <trkpt lat="49.35708" lon="3.30272">
        <ele>58.400001525879</ele>
        <time>2021-03-21T15:26:03.000Z</time>
      </trkpt>
      <trkpt lat="49.35735" lon="3.30273">
        <ele>57.400001525879</ele>
        <time>2021-03-21T15:26:10.000Z</time>
      </trkpt>
      <trkpt lat="49.35737" lon="3.30276">
        <ele>57.400001525879</ele>
        <time>2021-03-21T15:26:11.000Z</time>
      </trkpt>
      <trkpt lat="49.35738" lon="3.30283">
        <ele>57.400001525879</ele>
        <time>2021-03-21T15:26:14.000Z</time>
      </trkpt>
      <trkpt lat="49.35731" lon="3.30289">
        <ele>57.599998474121</ele>
        <time>2021-03-21T15:26:20.000Z</time>
      </trkpt>
      <trkpt lat="49.35731" lon="3.30289">
        <ele>57.599998474121</ele>
        <time>2021-03-21T15:26:21.000Z</time>
      </trkpt>
      <trkpt lat="49.35729" lon="3.30292">
        <ele>57.599998474121</ele>
        <time>2021-03-21T15:26:54.000Z</time>
      </trkpt>
      <trkpt lat="49.35725" lon="3.30296">
        <ele>57.799999237061</ele>
        <time>2021-03-21T15:26:56.000Z</time>
      </trkpt>
      <trkpt lat="49.35707" lon="3.30311">
        <ele>58.400001525879</ele>
        <time>2021-03-21T15:27:04.000Z</time>
      </trkpt>
      <trkpt lat="49.35689" lon="3.30323">
        <ele>59</ele>
        <time>2021-03-21T15:27:11.000Z</time>
      </trkpt>
      <trkpt lat="49.35665" lon="3.30342">
        <ele>59</ele>
        <time>2021-03-21T15:27:20.000Z</time>
      </trkpt>
      <trkpt lat="49.35641" lon="3.30359">
        <ele>59.799999237061</ele>
        <time>2021-03-21T15:27:28.000Z</time>
      </trkpt>
      <trkpt lat="49.35621" lon="3.30374">
        <ele>60</ele>
        <time>2021-03-21T15:27:34.000Z</time>
      </trkpt>
      <trkpt lat="49.35592" lon="3.30397">
        <ele>61.599998474121</ele>
        <time>2021-03-21T15:27:42.000Z</time>
      </trkpt>
      <trkpt lat="49.35564" lon="3.3043">
        <ele>61.799999237061</ele>
        <time>2021-03-21T15:27:51.000Z</time>
      </trkpt>
      <trkpt lat="49.3554" lon="3.30468">
        <ele>62</ele>
        <time>2021-03-21T15:27:59.000Z</time>
      </trkpt>
      <trkpt lat="49.35515" lon="3.30514">
        <ele>61.200000762939</ele>
        <time>2021-03-21T15:28:08.000Z</time>
      </trkpt>
      <trkpt lat="49.35499" lon="3.30542">
        <ele>61</ele>
        <time>2021-03-21T15:28:14.000Z</time>
      </trkpt>
      <trkpt lat="49.35477" lon="3.30584">
        <ele>61.599998474121</ele>
        <time>2021-03-21T15:28:22.000Z</time>
      </trkpt>
      <trkpt lat="49.35472" lon="3.30594">
        <ele>61.799999237061</ele>
        <time>2021-03-21T15:28:24.000Z</time>
      </trkpt>
      <trkpt lat="49.35464" lon="3.30607">
        <ele>62.200000762939</ele>
        <time>2021-03-21T15:28:27.000Z</time>
      </trkpt>
      <trkpt lat="49.35452" lon="3.30628">
        <ele>62.599998474121</ele>
        <time>2021-03-21T15:28:32.000Z</time>
      </trkpt>
      <trkpt lat="49.35441" lon="3.30649">
        <ele>63</ele>
        <time>2021-03-21T15:28:38.000Z</time>
      </trkpt>
      <trkpt lat="49.35426" lon="3.30675">
        <ele>64.599998474121</ele>
        <time>2021-03-21T15:28:45.000Z</time>
      </trkpt>
      <trkpt lat="49.35413" lon="3.30701">
        <ele>66</ele>
        <time>2021-03-21T15:28:51.000Z</time>
      </trkpt>
      <trkpt lat="49.35396" lon="3.30731">
        <ele>66.599998474121</ele>
        <time>2021-03-21T15:28:58.000Z</time>
      </trkpt>
      <trkpt lat="49.35379" lon="3.30761">
        <ele>66.800003051758</ele>
        <time>2021-03-21T15:29:05.000Z</time>
      </trkpt>
      <trkpt lat="49.35368" lon="3.30785">
        <ele>66.800003051758</ele>
        <time>2021-03-21T15:29:11.000Z</time>
      </trkpt>
      <trkpt lat="49.35371" lon="3.30793">
        <ele>66.199996948242</ele>
        <time>2021-03-21T15:29:14.000Z</time>
      </trkpt>
      <trkpt lat="49.35373" lon="3.30795">
        <ele>66</ele>
        <time>2021-03-21T15:29:15.000Z</time>
      </trkpt>
      <trkpt lat="49.35388" lon="3.30802">
        <ele>64.800003051758</ele>
        <time>2021-03-21T15:29:19.000Z</time>
      </trkpt>
      <trkpt lat="49.35424" lon="3.30811">
        <ele>62.799999237061</ele>
        <time>2021-03-21T15:29:26.000Z</time>
      </trkpt>
      <trkpt lat="49.35473" lon="3.30816">
        <ele>61.200000762939</ele>
        <time>2021-03-21T15:29:35.000Z</time>
      </trkpt>
      <trkpt lat="49.35514" lon="3.30814">
        <ele>58.200000762939</ele>
        <time>2021-03-21T15:29:42.000Z</time>
      </trkpt>
      <trkpt lat="49.35544" lon="3.30808">
        <ele>57</ele>
        <time>2021-03-21T15:29:48.000Z</time>
      </trkpt>
      <trkpt lat="49.35563" lon="3.30806">
        <ele>56.799999237061</ele>
        <time>2021-03-21T15:29:52.000Z</time>
      </trkpt>
      <trkpt lat="49.35572" lon="3.30805">
        <ele>56.799999237061</ele>
        <time>2021-03-21T15:29:54.000Z</time>
      </trkpt>
      <trkpt lat="49.3559" lon="3.30802">
        <ele>57.400001525879</ele>
        <time>2021-03-21T15:29:58.000Z</time>
      </trkpt>
      <trkpt lat="49.35598" lon="3.308">
        <ele>57.599998474121</ele>
        <time>2021-03-21T15:30:00.000Z</time>
      </trkpt>
      <trkpt lat="49.35625" lon="3.30799">
        <ele>58</ele>
        <time>2021-03-21T15:30:07.000Z</time>
      </trkpt>
      <trkpt lat="49.35645" lon="3.30798">
        <ele>58</ele>
        <time>2021-03-21T15:30:13.000Z</time>
      </trkpt>
      <trkpt lat="49.35673" lon="3.30797">
        <ele>58.200000762939</ele>
        <time>2021-03-21T15:30:21.000Z</time>
      </trkpt>
      <trkpt lat="49.35688" lon="3.30798">
        <ele>58</ele>
        <time>2021-03-21T15:30:26.000Z</time>
      </trkpt>
      <trkpt lat="49.35719" lon="3.30802">
        <ele>58.799999237061</ele>
        <time>2021-03-21T15:30:35.000Z</time>
      </trkpt>
      <trkpt lat="49.35744" lon="3.30807">
        <ele>58.400001525879</ele>
        <time>2021-03-21T15:30:42.000Z</time>
      </trkpt>
      <trkpt lat="49.35771" lon="3.30816">
        <ele>58.400001525879</ele>
        <time>2021-03-21T15:30:49.000Z</time>
      </trkpt>
      <trkpt lat="49.35802" lon="3.30825">
        <ele>58.200000762939</ele>
        <time>2021-03-21T15:30:57.000Z</time>
      </trkpt>
      <trkpt lat="49.3583" lon="3.30833">
        <ele>57.799999237061</ele>
        <time>2021-03-21T15:31:03.000Z</time>
      </trkpt>
      <trkpt lat="49.35845" lon="3.30838">
        <ele>57.599998474121</ele>
        <time>2021-03-21T15:31:06.000Z</time>
      </trkpt>
      <trkpt lat="49.35856" lon="3.3084">
        <ele>57.599998474121</ele>
        <time>2021-03-21T15:31:08.000Z</time>
      </trkpt>
      <trkpt lat="49.35863" lon="3.30841">
        <ele>57.400001525879</ele>
        <time>2021-03-21T15:31:09.000Z</time>
      </trkpt>
      <trkpt lat="49.35889" lon="3.30837">
        <ele>56.599998474121</ele>
        <time>2021-03-21T15:31:13.000Z</time>
      </trkpt>
      <trkpt lat="49.35924" lon="3.30828">
        <ele>55.200000762939</ele>
        <time>2021-03-21T15:31:19.000Z</time>
      </trkpt>
      <trkpt lat="49.35953" lon="3.30829">
        <ele>52.599998474121</ele>
        <time>2021-03-21T15:31:25.000Z</time>
      </trkpt>
      <trkpt lat="49.35958" lon="3.30828">
        <ele>52.200000762939</ele>
        <time>2021-03-21T15:31:26.000Z</time>
      </trkpt>
      <trkpt lat="49.35972" lon="3.30828">
        <ele>50.799999237061</ele>
        <time>2021-03-21T15:31:30.000Z</time>
      </trkpt>
      <trkpt lat="49.35975" lon="3.30842">
        <ele>50.200000762939</ele>
        <time>2021-03-21T15:31:33.000Z</time>
      </trkpt>
      <trkpt lat="49.35979" lon="3.30887">
        <ele>49.799999237061</ele>
        <time>2021-03-21T15:31:40.000Z</time>
      </trkpt>
      <trkpt lat="49.35985" lon="3.30947">
        <ele>50</ele>
        <time>2021-03-21T15:31:48.000Z</time>
      </trkpt>
      <trkpt lat="49.35992" lon="3.31012">
        <ele>49.400001525879</ele>
        <time>2021-03-21T15:31:56.000Z</time>
      </trkpt>
      <trkpt lat="49.35999" lon="3.31081">
        <ele>47</ele>
        <time>2021-03-21T15:32:04.000Z</time>
      </trkpt>
      <trkpt lat="49.35999" lon="3.31163">
        <ele>47</ele>
        <time>2021-03-21T15:32:13.000Z</time>
      </trkpt>
      <trkpt lat="49.35994" lon="3.31245">
        <ele>45</ele>
        <time>2021-03-21T15:32:22.000Z</time>
      </trkpt>
      <trkpt lat="49.35986" lon="3.31323">
        <ele>47.200000762939</ele>
        <time>2021-03-21T15:32:31.000Z</time>
      </trkpt>
      <trkpt lat="49.35983" lon="3.31371">
        <ele>48</ele>
        <time>2021-03-21T15:32:37.000Z</time>
      </trkpt>
      <trkpt lat="49.35985" lon="3.31385">
        <ele>47.799999237061</ele>
        <time>2021-03-21T15:32:39.000Z</time>
      </trkpt>
      <trkpt lat="49.3599" lon="3.31404">
        <ele>48.200000762939</ele>
        <time>2021-03-21T15:32:42.000Z</time>
      </trkpt>
      <trkpt lat="49.35998" lon="3.31433">
        <ele>47.799999237061</ele>
        <time>2021-03-21T15:32:48.000Z</time>
      </trkpt>
      <trkpt lat="49.36" lon="3.31465">
        <ele>49.599998474121</ele>
        <time>2021-03-21T15:32:55.000Z</time>
      </trkpt>
      <trkpt lat="49.3599" lon="3.31486">
        <ele>52.400001525879</ele>
        <time>2021-03-21T15:33:01.000Z</time>
      </trkpt>
      <trkpt lat="49.3598" lon="3.31486">
        <ele>53</ele>
        <time>2021-03-21T15:33:05.000Z</time>
      </trkpt>
      <trkpt lat="49.35976" lon="3.31486">
        <ele>53.200000762939</ele>
        <time>2021-03-21T15:33:09.000Z</time>
      </trkpt>
      <trkpt lat="49.35974" lon="3.31488">
        <ele>53.200000762939</ele>
        <time>2021-03-21T15:33:10.000Z</time>
      </trkpt>
      <trkpt lat="49.35963" lon="3.31502">
        <ele>54.599998474121</ele>
        <time>2021-03-21T15:33:15.000Z</time>
      </trkpt>
      <trkpt lat="49.35961" lon="3.31506">
        <ele>54.799999237061</ele>
        <time>2021-03-21T15:33:16.000Z</time>
      </trkpt>
      <trkpt lat="49.35958" lon="3.3152">
        <ele>55.799999237061</ele>
        <time>2021-03-21T15:33:19.000Z</time>
      </trkpt>
      <trkpt lat="49.35956" lon="3.31553">
        <ele>56.400001525879</ele>
        <time>2021-03-21T15:33:26.000Z</time>
      </trkpt>
      <trkpt lat="49.35961" lon="3.31579">
        <ele>56.200000762939</ele>
        <time>2021-03-21T15:33:31.000Z</time>
      </trkpt>
      <trkpt lat="49.35956" lon="3.316">
        <ele>56.400001525879</ele>
        <time>2021-03-21T15:33:35.000Z</time>
      </trkpt>
      <trkpt lat="49.3594" lon="3.31628">
        <ele>57</ele>
        <time>2021-03-21T15:33:42.000Z</time>
      </trkpt>
      <trkpt lat="49.35927" lon="3.31635">
        <ele>58</ele>
        <time>2021-03-21T15:33:46.000Z</time>
      </trkpt>
      <trkpt lat="49.35908" lon="3.31648">
        <ele>59</ele>
        <time>2021-03-21T15:33:52.000Z</time>
      </trkpt>
      <trkpt lat="49.35894" lon="3.31671">
        <ele>59</ele>
        <time>2021-03-21T15:33:58.000Z</time>
      </trkpt>
      <trkpt lat="49.35879" lon="3.31719">
        <ele>60.200000762939</ele>
        <time>2021-03-21T15:34:08.000Z</time>
      </trkpt>
      <trkpt lat="49.35868" lon="3.31754">
        <ele>59.599998474121</ele>
        <time>2021-03-21T15:34:15.000Z</time>
      </trkpt>
      <trkpt lat="49.35854" lon="3.31798">
        <ele>60.200000762939</ele>
        <time>2021-03-21T15:34:24.000Z</time>
      </trkpt>
      <trkpt lat="49.35841" lon="3.31838">
        <ele>61.599998474121</ele>
        <time>2021-03-21T15:34:32.000Z</time>
      </trkpt>
      <trkpt lat="49.35831" lon="3.31866">
        <ele>61.599998474121</ele>
        <time>2021-03-21T15:34:38.000Z</time>
      </trkpt>
      <trkpt lat="49.35825" lon="3.31887">
        <ele>61.200000762939</ele>
        <time>2021-03-21T15:34:42.000Z</time>
      </trkpt>
      <trkpt lat="49.3581" lon="3.31932">
        <ele>61</ele>
        <time>2021-03-21T15:34:50.000Z</time>
      </trkpt>
      <trkpt lat="49.35798" lon="3.31971">
        <ele>61.200000762939</ele>
        <time>2021-03-21T15:34:57.000Z</time>
      </trkpt>
      <trkpt lat="49.35784" lon="3.32011">
        <ele>62</ele>
        <time>2021-03-21T15:35:04.000Z</time>
      </trkpt>
      <trkpt lat="49.35771" lon="3.32048">
        <ele>62</ele>
        <time>2021-03-21T15:35:11.000Z</time>
      </trkpt>
      <trkpt lat="49.35763" lon="3.32064">
        <ele>62</ele>
        <time>2021-03-21T15:35:15.000Z</time>
      </trkpt>
      <trkpt lat="49.35763" lon="3.32077">
        <ele>62</ele>
        <time>2021-03-21T15:35:18.000Z</time>
      </trkpt>
      <trkpt lat="49.35765" lon="3.3208">
        <ele>62</ele>
        <time>2021-03-21T15:35:19.000Z</time>
      </trkpt>
      <trkpt lat="49.35768" lon="3.32086">
        <ele>62</ele>
        <time>2021-03-21T15:35:21.000Z</time>
      </trkpt>
      <trkpt lat="49.35766" lon="3.32095">
        <ele>62</ele>
        <time>2021-03-21T15:35:23.000Z</time>
      </trkpt>
      <trkpt lat="49.35752" lon="3.32138">
        <ele>62</ele>
        <time>2021-03-21T15:35:31.000Z</time>
      </trkpt>
      <trkpt lat="49.35745" lon="3.32179">
        <ele>62</ele>
        <time>2021-03-21T15:35:38.000Z</time>
      </trkpt>
      <trkpt lat="49.35746" lon="3.32191">
        <ele>62</ele>
        <time>2021-03-21T15:35:40.000Z</time>
      </trkpt>
      <trkpt lat="49.35751" lon="3.32209">
        <ele>62.599998474121</ele>
        <time>2021-03-21T15:35:43.000Z</time>
      </trkpt>
      <trkpt lat="49.35765" lon="3.3226">
        <ele>64</ele>
        <time>2021-03-21T15:35:52.000Z</time>
      </trkpt>
      <trkpt lat="49.3577" lon="3.32286">
        <ele>64.800003051758</ele>
        <time>2021-03-21T15:35:58.000Z</time>
      </trkpt>
      <trkpt lat="49.35764" lon="3.32288">
        <ele>64.599998474121</ele>
        <time>2021-03-21T15:36:01.000Z</time>
      </trkpt>
      <trkpt lat="49.35752" lon="3.32294">
        <ele>64.199996948242</ele>
        <time>2021-03-21T15:36:06.000Z</time>
      </trkpt>
      <trkpt lat="49.35733" lon="3.32297">
        <ele>64</ele>
        <time>2021-03-21T15:36:12.000Z</time>
      </trkpt>
      <trkpt lat="49.3571" lon="3.32302">
        <ele>64.599998474121</ele>
        <time>2021-03-21T15:36:19.000Z</time>
      </trkpt>
      <trkpt lat="49.35706" lon="3.32302">
        <ele>65</ele>
        <time>2021-03-21T15:36:24.000Z</time>
      </trkpt>
      <trkpt lat="49.35703" lon="3.32303">
        <ele>65.199996948242</ele>
        <time>2021-03-21T15:37:31.000Z</time>
      </trkpt>
      <trkpt lat="49.35697" lon="3.32304">
        <ele>65.599998474121</ele>
        <time>2021-03-21T15:37:33.000Z</time>
      </trkpt>
      <trkpt lat="49.35674" lon="3.32302">
        <ele>67.199996948242</ele>
        <time>2021-03-21T15:37:40.000Z</time>
      </trkpt>
      <trkpt lat="49.35633" lon="3.32295">
        <ele>70.400001525879</ele>
        <time>2021-03-21T15:37:51.000Z</time>
      </trkpt>
      <trkpt lat="49.35602" lon="3.32289">
        <ele>71.599998474121</ele>
        <time>2021-03-21T15:37:59.000Z</time>
      </trkpt>
      <trkpt lat="49.35576" lon="3.32285">
        <ele>71.800003051758</ele>
        <time>2021-03-21T15:38:06.000Z</time>
      </trkpt>
      <trkpt lat="49.35555" lon="3.32281">
        <ele>72</ele>
        <time>2021-03-21T15:38:12.000Z</time>
      </trkpt>
      <trkpt lat="49.35529" lon="3.32276">
        <ele>72.400001525879</ele>
        <time>2021-03-21T15:38:20.000Z</time>
      </trkpt>
      <trkpt lat="49.35518" lon="3.32287">
        <ele>73.599998474121</ele>
        <time>2021-03-21T15:38:25.000Z</time>
      </trkpt>
      <trkpt lat="49.35518" lon="3.32301">
        <ele>75.199996948242</ele>
        <time>2021-03-21T15:38:30.000Z</time>
      </trkpt>
      <trkpt lat="49.35514" lon="3.32313">
        <ele>77.400001525879</ele>
        <time>2021-03-21T15:38:36.000Z</time>
      </trkpt>
      <trkpt lat="49.35509" lon="3.32321">
        <ele>79</ele>
        <time>2021-03-21T15:38:42.000Z</time>
      </trkpt>
      <trkpt lat="49.35508" lon="3.3233">
        <ele>80.199996948242</ele>
        <time>2021-03-21T15:38:46.000Z</time>
      </trkpt>
      <trkpt lat="49.35507" lon="3.32332">
        <ele>80.599998474121</ele>
        <time>2021-03-21T15:38:47.000Z</time>
      </trkpt>
      <trkpt lat="49.35507" lon="3.32333">
        <ele>80.800003051758</ele>
        <time>2021-03-21T15:38:48.000Z</time>
      </trkpt>
      <trkpt lat="49.35508" lon="3.3234">
        <ele>82</ele>
        <time>2021-03-21T15:38:51.000Z</time>
      </trkpt>
      <trkpt lat="49.35509" lon="3.32345">
        <ele>82.800003051758</ele>
        <time>2021-03-21T15:38:53.000Z</time>
      </trkpt>
      <trkpt lat="49.35509" lon="3.32352">
        <ele>83.800003051758</ele>
        <time>2021-03-21T15:38:56.000Z</time>
      </trkpt>
      <trkpt lat="49.3551" lon="3.32359">
        <ele>84.800003051758</ele>
        <time>2021-03-21T15:38:59.000Z</time>
      </trkpt>
      <trkpt lat="49.35511" lon="3.32365">
        <ele>85.400001525879</ele>
        <time>2021-03-21T15:39:01.000Z</time>
      </trkpt>
      <trkpt lat="49.3551" lon="3.3237">
        <ele>86</ele>
        <time>2021-03-21T15:39:04.000Z</time>
      </trkpt>
      <trkpt lat="49.35499" lon="3.32463">
        <ele>89</ele>
        <time>2021-03-21T15:39:48.000Z</time>
      </trkpt>
      <trkpt lat="49.35494" lon="3.3247">
        <ele>89</ele>
        <time>2021-03-21T15:39:52.000Z</time>
      </trkpt>
      <trkpt lat="49.35485" lon="3.32476">
        <ele>89</ele>
        <time>2021-03-21T15:39:58.000Z</time>
      </trkpt>
      <trkpt lat="49.35484" lon="3.32476">
        <ele>89</ele>
        <time>2021-03-21T15:39:59.000Z</time>
      </trkpt>
      <trkpt lat="49.3548" lon="3.32479">
        <ele>89</ele>
        <time>2021-03-21T15:40:03.000Z</time>
      </trkpt>
      <trkpt lat="49.35471" lon="3.3248">
        <ele>89.800003051758</ele>
        <time>2021-03-21T15:44:07.000Z</time>
      </trkpt>
      <trkpt lat="49.35466" lon="3.32481">
        <ele>90.599998474121</ele>
        <time>2021-03-21T15:44:09.000Z</time>
      </trkpt>
      <trkpt lat="49.35464" lon="3.32483">
        <ele>91</ele>
        <time>2021-03-21T15:44:10.000Z</time>
      </trkpt>
      <trkpt lat="49.35454" lon="3.32495">
        <ele>94.599998474121</ele>
        <time>2021-03-21T15:44:17.000Z</time>
      </trkpt>
      <trkpt lat="49.35451" lon="3.32496">
        <ele>95.400001525879</ele>
        <time>2021-03-21T15:44:19.000Z</time>
      </trkpt>
      <trkpt lat="49.3545" lon="3.32496">
        <ele>95.599998474121</ele>
        <time>2021-03-21T15:44:22.000Z</time>
      </trkpt>
      <trkpt lat="49.35447" lon="3.32504">
        <ele>96.599998474121</ele>
        <time>2021-03-21T15:44:33.000Z</time>
      </trkpt>
      <trkpt lat="49.35445" lon="3.3251">
        <ele>97.800003051758</ele>
        <time>2021-03-21T15:44:36.000Z</time>
      </trkpt>
      <trkpt lat="49.35443" lon="3.32523">
        <ele>99.199996948242</ele>
        <time>2021-03-21T15:44:43.000Z</time>
      </trkpt>
      <trkpt lat="49.35444" lon="3.32536">
        <ele>100.40000152588</ele>
        <time>2021-03-21T15:44:49.000Z</time>
      </trkpt>
      <trkpt lat="49.35444" lon="3.32538">
        <ele>100.59999847412</ele>
        <time>2021-03-21T15:44:50.000Z</time>
      </trkpt>
      <trkpt lat="49.35445" lon="3.32549">
        <ele>101.40000152588</ele>
        <time>2021-03-21T15:44:55.000Z</time>
      </trkpt>
      <trkpt lat="49.35444" lon="3.32561">
        <ele>102.59999847412</ele>
        <time>2021-03-21T15:45:01.000Z</time>
      </trkpt>
      <trkpt lat="49.35445" lon="3.32572">
        <ele>103</ele>
        <time>2021-03-21T15:45:06.000Z</time>
      </trkpt>
      <trkpt lat="49.35445" lon="3.32579">
        <ele>103.59999847412</ele>
        <time>2021-03-21T15:45:10.000Z</time>
      </trkpt>
      <trkpt lat="49.35446" lon="3.32591">
        <ele>104.19999694824</ele>
        <time>2021-03-21T15:45:16.000Z</time>
      </trkpt>
      <trkpt lat="49.35455" lon="3.32856">
        <ele>116.40000152588</ele>
        <time>2021-03-21T15:47:24.000Z</time>
      </trkpt>
      <trkpt lat="49.35455" lon="3.32873">
        <ele>117.19999694824</ele>
        <time>2021-03-21T15:47:29.000Z</time>
      </trkpt>
      <trkpt lat="49.35454" lon="3.32877">
        <ele>117.59999847412</ele>
        <time>2021-03-21T15:47:30.000Z</time>
      </trkpt>
      <trkpt lat="49.35453" lon="3.32887">
        <ele>118.40000152588</ele>
        <time>2021-03-21T15:47:33.000Z</time>
      </trkpt>
      <trkpt lat="49.35454" lon="3.32908">
        <ele>119.19999694824</ele>
        <time>2021-03-21T15:47:39.000Z</time>
      </trkpt>
      <trkpt lat="49.35452" lon="3.32923">
        <ele>121.40000152588</ele>
        <time>2021-03-21T15:47:44.000Z</time>
      </trkpt>
      <trkpt lat="49.35452" lon="3.32937">
        <ele>122</ele>
        <time>2021-03-21T15:47:49.000Z</time>
      </trkpt>
      <trkpt lat="49.35452" lon="3.32953">
        <ele>123</ele>
        <time>2021-03-21T15:47:55.000Z</time>
      </trkpt>
      <trkpt lat="49.35452" lon="3.32962">
        <ele>123.19999694824</ele>
        <time>2021-03-21T15:47:59.000Z</time>
      </trkpt>
      <trkpt lat="49.35452" lon="3.32966">
        <ele>123.40000152588</ele>
        <time>2021-03-21T15:48:01.000Z</time>
      </trkpt>
      <trkpt lat="49.35451" lon="3.32972">
        <ele>124.19999694824</ele>
        <time>2021-03-21T15:48:06.000Z</time>
      </trkpt>
      <trkpt lat="49.35449" lon="3.32985">
        <ele>125.40000152588</ele>
        <time>2021-03-21T15:48:13.000Z</time>
      </trkpt>
      <trkpt lat="49.3545" lon="3.32998">
        <ele>126</ele>
        <time>2021-03-21T15:48:19.000Z</time>
      </trkpt>
      <trkpt lat="49.35451" lon="3.33005">
        <ele>126</ele>
        <time>2021-03-21T15:48:22.000Z</time>
      </trkpt>
      <trkpt lat="49.35451" lon="3.33008">
        <ele>126.19999694824</ele>
        <time>2021-03-21T15:48:24.000Z</time>
      </trkpt>
      <trkpt lat="49.35451" lon="3.33011">
        <ele>126</ele>
        <time>2021-03-21T15:48:25.000Z</time>
      </trkpt>
      <trkpt lat="49.35453" lon="3.33019">
        <ele>125.80000305176</ele>
        <time>2021-03-21T15:48:29.000Z</time>
      </trkpt>
      <trkpt lat="49.35453" lon="3.33021">
        <ele>125.80000305176</ele>
        <time>2021-03-21T15:48:30.000Z</time>
      </trkpt>
      <trkpt lat="49.35453" lon="3.33023">
        <ele>125.59999847412</ele>
        <time>2021-03-21T15:48:32.000Z</time>
      </trkpt>
      <trkpt lat="49.35451" lon="3.33043">
        <ele>125</ele>
        <time>2021-03-21T15:48:41.000Z</time>
      </trkpt>
      <trkpt lat="49.35452" lon="3.33051">
        <ele>124.40000152588</ele>
        <time>2021-03-21T15:48:43.000Z</time>
      </trkpt>
      <trkpt lat="49.35452" lon="3.33065">
        <ele>123.80000305176</ele>
        <time>2021-03-21T15:48:47.000Z</time>
      </trkpt>
      <trkpt lat="49.35452" lon="3.33071">
        <ele>123.59999847412</ele>
        <time>2021-03-21T15:48:49.000Z</time>
      </trkpt>
      <trkpt lat="49.35451" lon="3.33097">
        <ele>123.19999694824</ele>
        <time>2021-03-21T15:48:54.000Z</time>
      </trkpt>
      <trkpt lat="49.35449" lon="3.33139">
        <ele>124.19999694824</ele>
        <time>2021-03-21T15:49:01.000Z</time>
      </trkpt>
      <trkpt lat="49.35447" lon="3.33169">
        <ele>124.80000305176</ele>
        <time>2021-03-21T15:49:06.000Z</time>
      </trkpt>
      <trkpt lat="49.35445" lon="3.33208">
        <ele>126.19999694824</ele>
        <time>2021-03-21T15:49:12.000Z</time>
      </trkpt>
      <trkpt lat="49.35444" lon="3.33236">
        <ele>126.59999847412</ele>
        <time>2021-03-21T15:49:16.000Z</time>
      </trkpt>
      <trkpt lat="49.35443" lon="3.33258">
        <ele>126.40000152588</ele>
        <time>2021-03-21T15:49:20.000Z</time>
      </trkpt>
      <trkpt lat="49.35445" lon="3.33293">
        <ele>125.59999847412</ele>
        <time>2021-03-21T15:49:25.000Z</time>
      </trkpt>
      <trkpt lat="49.35449" lon="3.3335">
        <ele>124.59999847412</ele>
        <time>2021-03-21T15:49:33.000Z</time>
      </trkpt>
      <trkpt lat="49.35452" lon="3.33381">
        <ele>124.19999694824</ele>
        <time>2021-03-21T15:49:38.000Z</time>
      </trkpt>
      <trkpt lat="49.35453" lon="3.33404">
        <ele>124.59999847412</ele>
        <time>2021-03-21T15:49:42.000Z</time>
      </trkpt>
      <trkpt lat="49.35455" lon="3.33453">
        <ele>126</ele>
        <time>2021-03-21T15:49:50.000Z</time>
      </trkpt>
      <trkpt lat="49.35455" lon="3.33497">
        <ele>126.40000152588</ele>
        <time>2021-03-21T15:49:57.000Z</time>
      </trkpt>
      <trkpt lat="49.35457" lon="3.33546">
        <ele>125.19999694824</ele>
        <time>2021-03-21T15:50:05.000Z</time>
      </trkpt>
      <trkpt lat="49.35456" lon="3.33591">
        <ele>126.19999694824</ele>
        <time>2021-03-21T15:50:12.000Z</time>
      </trkpt>
      <trkpt lat="49.35455" lon="3.33619">
        <ele>126</ele>
        <time>2021-03-21T15:50:17.000Z</time>
      </trkpt>
      <trkpt lat="49.35453" lon="3.33641">
        <ele>126.19999694824</ele>
        <time>2021-03-21T15:50:21.000Z</time>
      </trkpt>
      <trkpt lat="49.35449" lon="3.33673">
        <ele>126</ele>
        <time>2021-03-21T15:50:27.000Z</time>
      </trkpt>
      <trkpt lat="49.35438" lon="3.33715">
        <ele>128.19999694824</ele>
        <time>2021-03-21T15:50:35.000Z</time>
      </trkpt>
      <trkpt lat="49.35433" lon="3.33748">
        <ele>128.60000610352</ele>
        <time>2021-03-21T15:50:41.000Z</time>
      </trkpt>
      <trkpt lat="49.35434" lon="3.33779">
        <ele>129.39999389648</ele>
        <time>2021-03-21T15:50:47.000Z</time>
      </trkpt>
      <trkpt lat="49.3543" lon="3.338">
        <ele>129.80000305176</ele>
        <time>2021-03-21T15:50:51.000Z</time>
      </trkpt>
      <trkpt lat="49.35417" lon="3.33832">
        <ele>130.60000610352</ele>
        <time>2021-03-21T15:50:59.000Z</time>
      </trkpt>
      <trkpt lat="49.35404" lon="3.33857">
        <ele>132.60000610352</ele>
        <time>2021-03-21T15:51:06.000Z</time>
      </trkpt>
      <trkpt lat="49.35403" lon="3.33865">
        <ele>133</ele>
        <time>2021-03-21T15:51:08.000Z</time>
      </trkpt>
      <trkpt lat="49.35405" lon="3.33873">
        <ele>133.19999694824</ele>
        <time>2021-03-21T15:51:10.000Z</time>
      </trkpt>
      <trkpt lat="49.35422" lon="3.33902">
        <ele>132.39999389648</ele>
        <time>2021-03-21T15:51:16.000Z</time>
      </trkpt>
      <trkpt lat="49.35446" lon="3.33939">
        <ele>131.19999694824</ele>
        <time>2021-03-21T15:51:23.000Z</time>
      </trkpt>
      <trkpt lat="49.35454" lon="3.33956">
        <ele>130.60000610352</ele>
        <time>2021-03-21T15:51:26.000Z</time>
      </trkpt>
      <trkpt lat="49.3546" lon="3.33974">
        <ele>130.19999694824</ele>
        <time>2021-03-21T15:51:29.000Z</time>
      </trkpt>
      <trkpt lat="49.35466" lon="3.34016">
        <ele>130.80000305176</ele>
        <time>2021-03-21T15:51:35.000Z</time>
      </trkpt>
      <trkpt lat="49.35468" lon="3.34063">
        <ele>132</ele>
        <time>2021-03-21T15:51:42.000Z</time>
      </trkpt>
      <trkpt lat="49.35469" lon="3.34092">
        <ele>130.80000305176</ele>
        <time>2021-03-21T15:51:47.000Z</time>
      </trkpt>
      <trkpt lat="49.35466" lon="3.34116">
        <ele>130.19999694824</ele>
        <time>2021-03-21T15:51:51.000Z</time>
      </trkpt>
      <trkpt lat="49.35465" lon="3.34123">
        <ele>130</ele>
        <time>2021-03-21T15:51:52.000Z</time>
      </trkpt>
      <trkpt lat="49.35463" lon="3.34136">
        <ele>129.80000305176</ele>
        <time>2021-03-21T15:51:54.000Z</time>
      </trkpt>
      <trkpt lat="49.35463" lon="3.34165">
        <ele>129.60000610352</ele>
        <time>2021-03-21T15:51:58.000Z</time>
      </trkpt>
      <trkpt lat="49.35465" lon="3.34212">
        <ele>130.39999389648</ele>
        <time>2021-03-21T15:52:05.000Z</time>
      </trkpt>
      <trkpt lat="49.35466" lon="3.34244">
        <ele>130.39999389648</ele>
        <time>2021-03-21T15:52:10.000Z</time>
      </trkpt>
      <trkpt lat="49.35467" lon="3.34258">
        <ele>130.60000610352</ele>
        <time>2021-03-21T15:52:12.000Z</time>
      </trkpt>
      <trkpt lat="49.35466" lon="3.34272">
        <ele>131.19999694824</ele>
        <time>2021-03-21T15:52:14.000Z</time>
      </trkpt>
      <trkpt lat="49.35462" lon="3.3429">
        <ele>132.60000610352</ele>
        <time>2021-03-21T15:52:17.000Z</time>
      </trkpt>
      <trkpt lat="49.3546" lon="3.34296">
        <ele>132.80000305176</ele>
        <time>2021-03-21T15:52:18.000Z</time>
      </trkpt>
      <trkpt lat="49.35453" lon="3.34315">
        <ele>133.19999694824</ele>
        <time>2021-03-21T15:52:22.000Z</time>
      </trkpt>
      <trkpt lat="49.35447" lon="3.34347">
        <ele>132.60000610352</ele>
        <time>2021-03-21T15:52:28.000Z</time>
      </trkpt>
      <trkpt lat="49.35443" lon="3.34376">
        <ele>132.80000305176</ele>
        <time>2021-03-21T15:52:33.000Z</time>
      </trkpt>
      <trkpt lat="49.35445" lon="3.34413">
        <ele>133.39999389648</ele>
        <time>2021-03-21T15:52:39.000Z</time>
      </trkpt>
      <trkpt lat="49.35446" lon="3.34446">
        <ele>133.60000610352</ele>
        <time>2021-03-21T15:52:45.000Z</time>
      </trkpt>
      <trkpt lat="49.35451" lon="3.34492">
        <ele>134.39999389648</ele>
        <time>2021-03-21T15:52:52.000Z</time>
      </trkpt>
      <trkpt lat="49.35457" lon="3.34528">
        <ele>134.19999694824</ele>
        <time>2021-03-21T15:52:58.000Z</time>
      </trkpt>
      <trkpt lat="49.35463" lon="3.34562">
        <ele>135.19999694824</ele>
        <time>2021-03-21T15:53:04.000Z</time>
      </trkpt>
      <trkpt lat="49.35469" lon="3.34593">
        <ele>136</ele>
        <time>2021-03-21T15:53:10.000Z</time>
      </trkpt>
      <trkpt lat="49.35469" lon="3.34611">
        <ele>136.19999694824</ele>
        <time>2021-03-21T15:53:14.000Z</time>
      </trkpt>
      <trkpt lat="49.35471" lon="3.34634">
        <ele>137</ele>
        <time>2021-03-21T15:53:18.000Z</time>
      </trkpt>
      <trkpt lat="49.35472" lon="3.34641">
        <ele>137</ele>
        <time>2021-03-21T15:53:19.000Z</time>
      </trkpt>
      <trkpt lat="49.35473" lon="3.34665">
        <ele>137</ele>
        <time>2021-03-21T15:53:23.000Z</time>
      </trkpt>
      <trkpt lat="49.35476" lon="3.34698">
        <ele>136.19999694824</ele>
        <time>2021-03-21T15:53:28.000Z</time>
      </trkpt>
      <trkpt lat="49.35478" lon="3.34731">
        <ele>136</ele>
        <time>2021-03-21T15:53:33.000Z</time>
      </trkpt>
      <trkpt lat="49.35483" lon="3.34759">
        <ele>136</ele>
        <time>2021-03-21T15:53:37.000Z</time>
      </trkpt>
      <trkpt lat="49.35487" lon="3.34771">
        <ele>135.80000305176</ele>
        <time>2021-03-21T15:53:39.000Z</time>
      </trkpt>
      <trkpt lat="49.35499" lon="3.34806">
        <ele>136</ele>
        <time>2021-03-21T15:53:45.000Z</time>
      </trkpt>
      <trkpt lat="49.35516" lon="3.34838">
        <ele>136</ele>
        <time>2021-03-21T15:53:52.000Z</time>
      </trkpt>
      <trkpt lat="49.3553" lon="3.34865">
        <ele>135.80000305176</ele>
        <time>2021-03-21T15:53:58.000Z</time>
      </trkpt>
      <trkpt lat="49.35542" lon="3.34896">
        <ele>135.39999389648</ele>
        <time>2021-03-21T15:54:05.000Z</time>
      </trkpt>
      <trkpt lat="49.35555" lon="3.34933">
        <ele>135.80000305176</ele>
        <time>2021-03-21T15:54:13.000Z</time>
      </trkpt>
      <trkpt lat="49.35569" lon="3.34964">
        <ele>136</ele>
        <time>2021-03-21T15:54:20.000Z</time>
      </trkpt>
      <trkpt lat="49.35586" lon="3.35006">
        <ele>137.19999694824</ele>
        <time>2021-03-21T15:54:29.000Z</time>
      </trkpt>
      <trkpt lat="49.35599" lon="3.35037">
        <ele>137.19999694824</ele>
        <time>2021-03-21T15:54:36.000Z</time>
      </trkpt>
      <trkpt lat="49.35612" lon="3.35068">
        <ele>137.19999694824</ele>
        <time>2021-03-21T15:54:43.000Z</time>
      </trkpt>
      <trkpt lat="49.35625" lon="3.35101">
        <ele>137.39999389648</ele>
        <time>2021-03-21T15:54:50.000Z</time>
      </trkpt>
      <trkpt lat="49.35636" lon="3.35131">
        <ele>137.80000305176</ele>
        <time>2021-03-21T15:54:56.000Z</time>
      </trkpt>
      <trkpt lat="49.35652" lon="3.35171">
        <ele>137.80000305176</ele>
        <time>2021-03-21T15:55:04.000Z</time>
      </trkpt>
      <trkpt lat="49.35667" lon="3.35209">
        <ele>137.39999389648</ele>
        <time>2021-03-21T15:55:11.000Z</time>
      </trkpt>
      <trkpt lat="49.35685" lon="3.3525">
        <ele>136.60000610352</ele>
        <time>2021-03-21T15:55:19.000Z</time>
      </trkpt>
      <trkpt lat="49.357" lon="3.35285">
        <ele>136.39999389648</ele>
        <time>2021-03-21T15:55:26.000Z</time>
      </trkpt>
      <trkpt lat="49.35714" lon="3.35318">
        <ele>136</ele>
        <time>2021-03-21T15:55:32.000Z</time>
      </trkpt>
      <trkpt lat="49.35733" lon="3.35361">
        <ele>135.60000610352</ele>
        <time>2021-03-21T15:55:39.000Z</time>
      </trkpt>
      <trkpt lat="49.35745" lon="3.3538">
        <ele>135.80000305176</ele>
        <time>2021-03-21T15:55:42.000Z</time>
      </trkpt>
      <trkpt lat="49.35753" lon="3.35384">
        <ele>136</ele>
        <time>2021-03-21T15:55:44.000Z</time>
      </trkpt>
      <trkpt lat="49.35771" lon="3.35386">
        <ele>136</ele>
        <time>2021-03-21T15:55:49.000Z</time>
      </trkpt>
      <trkpt lat="49.35788" lon="3.35377">
        <ele>135.80000305176</ele>
        <time>2021-03-21T15:55:54.000Z</time>
      </trkpt>
      <trkpt lat="49.35806" lon="3.35359">
        <ele>136</ele>
        <time>2021-03-21T15:55:59.000Z</time>
      </trkpt>
      <trkpt lat="49.35812" lon="3.35351">
        <ele>135.80000305176</ele>
        <time>2021-03-21T15:56:01.000Z</time>
      </trkpt>
      <trkpt lat="49.35818" lon="3.35342">
        <ele>135.39999389648</ele>
        <time>2021-03-21T15:56:03.000Z</time>
      </trkpt>
      <trkpt lat="49.35831" lon="3.35317">
        <ele>134.60000610352</ele>
        <time>2021-03-21T15:56:08.000Z</time>
      </trkpt>
      <trkpt lat="49.35853" lon="3.35277">
        <ele>134</ele>
        <time>2021-03-21T15:56:16.000Z</time>
      </trkpt>
      <trkpt lat="49.35879" lon="3.35234">
        <ele>134.80000305176</ele>
        <time>2021-03-21T15:56:25.000Z</time>
      </trkpt>
      <trkpt lat="49.35882" lon="3.35229">
        <ele>135</ele>
        <time>2021-03-21T15:56:26.000Z</time>
      </trkpt>
      <trkpt lat="49.35897" lon="3.35215">
        <ele>134.80000305176</ele>
        <time>2021-03-21T15:56:30.000Z</time>
      </trkpt>
      <trkpt lat="49.35901" lon="3.35212">
        <ele>134.80000305176</ele>
        <time>2021-03-21T15:56:31.000Z</time>
      </trkpt>
      <trkpt lat="49.35912" lon="3.35205">
        <ele>135</ele>
        <time>2021-03-21T15:56:34.000Z</time>
      </trkpt>
      <trkpt lat="49.35924" lon="3.35202">
        <ele>135</ele>
        <time>2021-03-21T15:56:37.000Z</time>
      </trkpt>
      <trkpt lat="49.35947" lon="3.35204">
        <ele>135</ele>
        <time>2021-03-21T15:56:43.000Z</time>
      </trkpt>
      <trkpt lat="49.35977" lon="3.35213">
        <ele>135</ele>
        <time>2021-03-21T15:56:51.000Z</time>
      </trkpt>
      <trkpt lat="49.36007" lon="3.35221">
        <ele>135</ele>
        <time>2021-03-21T15:56:59.000Z</time>
      </trkpt>
      <trkpt lat="49.36036" lon="3.35228">
        <ele>135</ele>
        <time>2021-03-21T15:57:06.000Z</time>
      </trkpt>
      <trkpt lat="49.36069" lon="3.35237">
        <ele>135</ele>
        <time>2021-03-21T15:57:14.000Z</time>
      </trkpt>
      <trkpt lat="49.36109" lon="3.35247">
        <ele>134</ele>
        <time>2021-03-21T15:57:23.000Z</time>
      </trkpt>
      <trkpt lat="49.36123" lon="3.35249">
        <ele>133.60000610352</ele>
        <time>2021-03-21T15:57:26.000Z</time>
      </trkpt>
      <trkpt lat="49.36141" lon="3.35254">
        <ele>133.80000305176</ele>
        <time>2021-03-21T15:57:30.000Z</time>
      </trkpt>
      <trkpt lat="49.36178" lon="3.35262">
        <ele>137.19999694824</ele>
        <time>2021-03-21T15:57:38.000Z</time>
      </trkpt>
      <trkpt lat="49.36207" lon="3.3527">
        <ele>138.80000305176</ele>
        <time>2021-03-21T15:57:44.000Z</time>
      </trkpt>
      <trkpt lat="49.36248" lon="3.3528">
        <ele>137</ele>
        <time>2021-03-21T15:57:52.000Z</time>
      </trkpt>
      <trkpt lat="49.36297" lon="3.35291">
        <ele>135.39999389648</ele>
        <time>2021-03-21T15:58:01.000Z</time>
      </trkpt>
      <trkpt lat="49.36334" lon="3.35299">
        <ele>135</ele>
        <time>2021-03-21T15:58:08.000Z</time>
      </trkpt>
      <trkpt lat="49.36338" lon="3.353">
        <ele>134.80000305176</ele>
        <time>2021-03-21T15:58:09.000Z</time>
      </trkpt>
      <trkpt lat="49.36342" lon="3.35309">
        <ele>134.19999694824</ele>
        <time>2021-03-21T15:58:11.000Z</time>
      </trkpt>
      <trkpt lat="49.36339" lon="3.35332">
        <ele>133.60000610352</ele>
        <time>2021-03-21T15:58:15.000Z</time>
      </trkpt>
      <trkpt lat="49.36335" lon="3.35349">
        <ele>133.39999389648</ele>
        <time>2021-03-21T15:58:18.000Z</time>
      </trkpt>
      <trkpt lat="49.3633" lon="3.35372">
        <ele>132.39999389648</ele>
        <time>2021-03-21T15:58:22.000Z</time>
      </trkpt>
      <trkpt lat="49.36318" lon="3.35424">
        <ele>132</ele>
        <time>2021-03-21T15:58:31.000Z</time>
      </trkpt>
      <trkpt lat="49.36309" lon="3.35466">
        <ele>132.19999694824</ele>
        <time>2021-03-21T15:58:38.000Z</time>
      </trkpt>
      <trkpt lat="49.36298" lon="3.35519">
        <ele>133</ele>
        <time>2021-03-21T15:58:47.000Z</time>
      </trkpt>
      <trkpt lat="49.36286" lon="3.35571">
        <ele>133.19999694824</ele>
        <time>2021-03-21T15:58:56.000Z</time>
      </trkpt>
      <trkpt lat="49.36278" lon="3.35612">
        <ele>134.19999694824</ele>
        <time>2021-03-21T15:59:03.000Z</time>
      </trkpt>
      <trkpt lat="49.36265" lon="3.35671">
        <ele>135</ele>
        <time>2021-03-21T15:59:13.000Z</time>
      </trkpt>
      <trkpt lat="49.36252" lon="3.35721">
        <ele>134</ele>
        <time>2021-03-21T15:59:21.000Z</time>
      </trkpt>
      <trkpt lat="49.36238" lon="3.3578">
        <ele>134.19999694824</ele>
        <time>2021-03-21T15:59:30.000Z</time>
      </trkpt>
      <trkpt lat="49.36226" lon="3.35831">
        <ele>134.80000305176</ele>
        <time>2021-03-21T15:59:38.000Z</time>
      </trkpt>
      <trkpt lat="49.36218" lon="3.3587">
        <ele>134.60000610352</ele>
        <time>2021-03-21T15:59:44.000Z</time>
      </trkpt>
      <trkpt lat="49.36216" lon="3.35877">
        <ele>134.19999694824</ele>
        <time>2021-03-21T15:59:45.000Z</time>
      </trkpt>
      <trkpt lat="49.36203" lon="3.35934">
        <ele>134.60000610352</ele>
        <time>2021-03-21T15:59:53.000Z</time>
      </trkpt>
      <trkpt lat="49.36196" lon="3.35959">
        <ele>135.19999694824</ele>
        <time>2021-03-21T15:59:57.000Z</time>
      </trkpt>
      <trkpt lat="49.36194" lon="3.35965">
        <ele>135.39999389648</ele>
        <time>2021-03-21T15:59:58.000Z</time>
      </trkpt>
      <trkpt lat="49.3619" lon="3.35994">
        <ele>137</ele>
        <time>2021-03-21T16:00:03.000Z</time>
      </trkpt>
      <trkpt lat="49.36188" lon="3.3603">
        <ele>137.19999694824</ele>
        <time>2021-03-21T16:00:09.000Z</time>
      </trkpt>
      <trkpt lat="49.3619" lon="3.36065">
        <ele>138</ele>
        <time>2021-03-21T16:00:15.000Z</time>
      </trkpt>
      <trkpt lat="49.36188" lon="3.36095">
        <ele>138</ele>
        <time>2021-03-21T16:00:20.000Z</time>
      </trkpt>
      <trkpt lat="49.36184" lon="3.3613">
        <ele>138</ele>
        <time>2021-03-21T16:00:26.000Z</time>
      </trkpt>
      <trkpt lat="49.36177" lon="3.3617">
        <ele>136.80000305176</ele>
        <time>2021-03-21T16:00:33.000Z</time>
      </trkpt>
      <trkpt lat="49.36162" lon="3.36197">
        <ele>137</ele>
        <time>2021-03-21T16:00:39.000Z</time>
      </trkpt>
      <trkpt lat="49.36143" lon="3.36226">
        <ele>135</ele>
        <time>2021-03-21T16:00:46.000Z</time>
      </trkpt>
      <trkpt lat="49.36121" lon="3.36256">
        <ele>134.60000610352</ele>
        <time>2021-03-21T16:00:53.000Z</time>
      </trkpt>
      <trkpt lat="49.36119" lon="3.36261">
        <ele>134.39999389648</ele>
        <time>2021-03-21T16:00:54.000Z</time>
      </trkpt>
      <trkpt lat="49.36104" lon="3.36285">
        <ele>135</ele>
        <time>2021-03-21T16:00:59.000Z</time>
      </trkpt>
      <trkpt lat="49.36089" lon="3.36317">
        <ele>136.39999389648</ele>
        <time>2021-03-21T16:01:05.000Z</time>
      </trkpt>
      <trkpt lat="49.36074" lon="3.36349">
        <ele>137.19999694824</ele>
        <time>2021-03-21T16:01:11.000Z</time>
      </trkpt>
      <trkpt lat="49.36072" lon="3.36355">
        <ele>137.19999694824</ele>
        <time>2021-03-21T16:01:12.000Z</time>
      </trkpt>
      <trkpt lat="49.36063" lon="3.36379">
        <ele>137.60000610352</ele>
        <time>2021-03-21T16:01:16.000Z</time>
      </trkpt>
      <trkpt lat="49.36061" lon="3.36385">
        <ele>138</ele>
        <time>2021-03-21T16:01:17.000Z</time>
      </trkpt>
      <trkpt lat="49.3606" lon="3.36402">
        <ele>137.80000305176</ele>
        <time>2021-03-21T16:01:20.000Z</time>
      </trkpt>
      <trkpt lat="49.36059" lon="3.36425">
        <ele>138.19999694824</ele>
        <time>2021-03-21T16:01:24.000Z</time>
      </trkpt>
      <trkpt lat="49.36058" lon="3.36436">
        <ele>138.19999694824</ele>
        <time>2021-03-21T16:01:26.000Z</time>
      </trkpt>
      <trkpt lat="49.36058" lon="3.36448">
        <ele>138.39999389648</ele>
        <time>2021-03-21T16:01:28.000Z</time>
      </trkpt>
      <trkpt lat="49.36061" lon="3.36478">
        <ele>138.39999389648</ele>
        <time>2021-03-21T16:01:33.000Z</time>
      </trkpt>
      <trkpt lat="49.36065" lon="3.36513">
        <ele>137.60000610352</ele>
        <time>2021-03-21T16:01:39.000Z</time>
      </trkpt>
      <trkpt lat="49.36066" lon="3.36548">
        <ele>138</ele>
        <time>2021-03-21T16:01:45.000Z</time>
      </trkpt>
      <trkpt lat="49.36068" lon="3.36573">
        <ele>138.39999389648</ele>
        <time>2021-03-21T16:01:49.000Z</time>
      </trkpt>
      <trkpt lat="49.36069" lon="3.36614">
        <ele>139.39999389648</ele>
        <time>2021-03-21T16:01:55.000Z</time>
      </trkpt>
      <trkpt lat="49.36063" lon="3.36662">
        <ele>139.60000610352</ele>
        <time>2021-03-21T16:02:01.000Z</time>
      </trkpt>
      <trkpt lat="49.36061" lon="3.36669">
        <ele>139.39999389648</ele>
        <time>2021-03-21T16:02:02.000Z</time>
      </trkpt>
      <trkpt lat="49.36056" lon="3.36683">
        <ele>139</ele>
        <time>2021-03-21T16:02:04.000Z</time>
      </trkpt>
      <trkpt lat="49.36055" lon="3.36691">
        <ele>138.80000305176</ele>
        <time>2021-03-21T16:02:05.000Z</time>
      </trkpt>
      <trkpt lat="49.36053" lon="3.36698">
        <ele>138.60000610352</ele>
        <time>2021-03-21T16:02:06.000Z</time>
      </trkpt>
      <trkpt lat="49.36047" lon="3.36726">
        <ele>138</ele>
        <time>2021-03-21T16:02:10.000Z</time>
      </trkpt>
      <trkpt lat="49.36046" lon="3.36732">
        <ele>138</ele>
        <time>2021-03-21T16:02:11.000Z</time>
      </trkpt>
      <trkpt lat="49.36041" lon="3.36758">
        <ele>137.60000610352</ele>
        <time>2021-03-21T16:02:15.000Z</time>
      </trkpt>
      <trkpt lat="49.36039" lon="3.36772">
        <ele>137.39999389648</ele>
        <time>2021-03-21T16:02:17.000Z</time>
      </trkpt>
      <trkpt lat="49.36034" lon="3.36799">
        <ele>138.19999694824</ele>
        <time>2021-03-21T16:02:21.000Z</time>
      </trkpt>
      <trkpt lat="49.36023" lon="3.36843">
        <ele>139</ele>
        <time>2021-03-21T16:02:28.000Z</time>
      </trkpt>
      <trkpt lat="49.36018" lon="3.36863">
        <ele>138.39999389648</ele>
        <time>2021-03-21T16:02:31.000Z</time>
      </trkpt>
      <trkpt lat="49.36011" lon="3.3688">
        <ele>137.19999694824</ele>
        <time>2021-03-21T16:02:34.000Z</time>
      </trkpt>
      <trkpt lat="49.35996" lon="3.36917">
        <ele>135.80000305176</ele>
        <time>2021-03-21T16:02:40.000Z</time>
      </trkpt>
      <trkpt lat="49.35982" lon="3.36949">
        <ele>135.80000305176</ele>
        <time>2021-03-21T16:02:46.000Z</time>
      </trkpt>
      <trkpt lat="49.35977" lon="3.36975">
        <ele>136.39999389648</ele>
        <time>2021-03-21T16:02:51.000Z</time>
      </trkpt>
      <trkpt lat="49.35975" lon="3.36997">
        <ele>138</ele>
        <time>2021-03-21T16:02:56.000Z</time>
      </trkpt>
      <trkpt lat="49.35971" lon="3.37037">
        <ele>140.60000610352</ele>
        <time>2021-03-21T16:03:03.000Z</time>
      </trkpt>
      <trkpt lat="49.35965" lon="3.37058">
        <ele>142</ele>
        <time>2021-03-21T16:03:07.000Z</time>
      </trkpt>
      <trkpt lat="49.35963" lon="3.37064">
        <ele>142</ele>
        <time>2021-03-21T16:03:08.000Z</time>
      </trkpt>
      <trkpt lat="49.35951" lon="3.37091">
        <ele>141.60000610352</ele>
        <time>2021-03-21T16:03:13.000Z</time>
      </trkpt>
      <trkpt lat="49.35934" lon="3.37124">
        <ele>140.60000610352</ele>
        <time>2021-03-21T16:03:19.000Z</time>
      </trkpt>
      <trkpt lat="49.3592" lon="3.37155">
        <ele>139</ele>
        <time>2021-03-21T16:03:24.000Z</time>
      </trkpt>
      <trkpt lat="49.35908" lon="3.37188">
        <ele>138</ele>
        <time>2021-03-21T16:03:29.000Z</time>
      </trkpt>
      <trkpt lat="49.35906" lon="3.37198">
        <ele>137.80000305176</ele>
        <time>2021-03-21T16:03:31.000Z</time>
      </trkpt>
      <trkpt lat="49.3591" lon="3.37205">
        <ele>137.39999389648</ele>
        <time>2021-03-21T16:03:33.000Z</time>
      </trkpt>
      <trkpt lat="49.35922" lon="3.37218">
        <ele>136.60000610352</ele>
        <time>2021-03-21T16:03:37.000Z</time>
      </trkpt>
      <trkpt lat="49.35933" lon="3.37235">
        <ele>135.60000610352</ele>
        <time>2021-03-21T16:03:41.000Z</time>
      </trkpt>
      <trkpt lat="49.35954" lon="3.37268">
        <ele>132.19999694824</ele>
        <time>2021-03-21T16:03:47.000Z</time>
      </trkpt>
      <trkpt lat="49.3596" lon="3.37278">
        <ele>130.60000610352</ele>
        <time>2021-03-21T16:03:49.000Z</time>
      </trkpt>
      <trkpt lat="49.35968" lon="3.37285">
        <ele>128.80000305176</ele>
        <time>2021-03-21T16:03:51.000Z</time>
      </trkpt>
      <trkpt lat="49.35981" lon="3.37299">
        <ele>124.19999694824</ele>
        <time>2021-03-21T16:03:55.000Z</time>
      </trkpt>
      <trkpt lat="49.35995" lon="3.37314">
        <ele>119.19999694824</ele>
        <time>2021-03-21T16:03:59.000Z</time>
      </trkpt>
      <trkpt lat="49.36" lon="3.37319">
        <ele>118</ele>
        <time>2021-03-21T16:04:00.000Z</time>
      </trkpt>
      <trkpt lat="49.36015" lon="3.37333">
        <ele>114.40000152588</ele>
        <time>2021-03-21T16:04:03.000Z</time>
      </trkpt>
      <trkpt lat="49.3602" lon="3.37338">
        <ele>113.40000152588</ele>
        <time>2021-03-21T16:04:04.000Z</time>
      </trkpt>
      <trkpt lat="49.36028" lon="3.37351">
        <ele>111.80000305176</ele>
        <time>2021-03-21T16:04:06.000Z</time>
      </trkpt>
      <trkpt lat="49.36036" lon="3.37368">
        <ele>110.80000305176</ele>
        <time>2021-03-21T16:04:09.000Z</time>
      </trkpt>
      <trkpt lat="49.36043" lon="3.37382">
        <ele>109.80000305176</ele>
        <time>2021-03-21T16:04:12.000Z</time>
      </trkpt>
      <trkpt lat="49.36046" lon="3.37385">
        <ele>109.19999694824</ele>
        <time>2021-03-21T16:04:13.000Z</time>
      </trkpt>
      <trkpt lat="49.3607" lon="3.37399">
        <ele>104</ele>
        <time>2021-03-21T16:04:19.000Z</time>
      </trkpt>
      <trkpt lat="49.36082" lon="3.37404">
        <ele>101.19999694824</ele>
        <time>2021-03-21T16:04:22.000Z</time>
      </trkpt>
      <trkpt lat="49.36096" lon="3.37413">
        <ele>98.400001525879</ele>
        <time>2021-03-21T16:04:25.000Z</time>
      </trkpt>
      <trkpt lat="49.36107" lon="3.3742">
        <ele>96.199996948242</ele>
        <time>2021-03-21T16:04:27.000Z</time>
      </trkpt>
      <trkpt lat="49.36129" lon="3.37432">
        <ele>94.199996948242</ele>
        <time>2021-03-21T16:04:31.000Z</time>
      </trkpt>
      <trkpt lat="49.36148" lon="3.37441">
        <ele>93</ele>
        <time>2021-03-21T16:04:35.000Z</time>
      </trkpt>
      <trkpt lat="49.36152" lon="3.37442">
        <ele>92.800003051758</ele>
        <time>2021-03-21T16:04:36.000Z</time>
      </trkpt>
      <trkpt lat="49.36166" lon="3.37442">
        <ele>91.599998474121</ele>
        <time>2021-03-21T16:04:39.000Z</time>
      </trkpt>
      <trkpt lat="49.36194" lon="3.37448">
        <ele>89</ele>
        <time>2021-03-21T16:04:46.000Z</time>
      </trkpt>
      <trkpt lat="49.36205" lon="3.37448">
        <ele>88.199996948242</ele>
        <time>2021-03-21T16:04:50.000Z</time>
      </trkpt>
      <trkpt lat="49.36216" lon="3.37444">
        <ele>87.400001525879</ele>
        <time>2021-03-21T16:04:56.000Z</time>
      </trkpt>
      <trkpt lat="49.36228" lon="3.37414">
        <ele>85.400001525879</ele>
        <time>2021-03-21T16:05:41.000Z</time>
      </trkpt>
      <trkpt lat="49.3623" lon="3.37408">
        <ele>85.199996948242</ele>
        <time>2021-03-21T16:05:43.000Z</time>
      </trkpt>
      <trkpt lat="49.36241" lon="3.37387">
        <ele>84.400001525879</ele>
        <time>2021-03-21T16:05:48.000Z</time>
      </trkpt>
      <trkpt lat="49.36248" lon="3.37368">
        <ele>84.400001525879</ele>
        <time>2021-03-21T16:05:53.000Z</time>
      </trkpt>
      <trkpt lat="49.36244" lon="3.37352">
        <ele>85.400001525879</ele>
        <time>2021-03-21T16:05:58.000Z</time>
      </trkpt>
      <trkpt lat="49.3624" lon="3.37348">
        <ele>85.800003051758</ele>
        <time>2021-03-21T16:06:00.000Z</time>
      </trkpt>
      <trkpt lat="49.36236" lon="3.37345">
        <ele>86.199996948242</ele>
        <time>2021-03-21T16:06:02.000Z</time>
      </trkpt>
      <trkpt lat="49.36231" lon="3.37337">
        <ele>86.800003051758</ele>
        <time>2021-03-21T16:06:05.000Z</time>
      </trkpt>
      <trkpt lat="49.3623" lon="3.3733">
        <ele>87.199996948242</ele>
        <time>2021-03-21T16:06:07.000Z</time>
      </trkpt>
      <trkpt lat="49.36231" lon="3.37312">
        <ele>87.800003051758</ele>
        <time>2021-03-21T16:06:12.000Z</time>
      </trkpt>
      <trkpt lat="49.36228" lon="3.37296">
        <ele>88.599998474121</ele>
        <time>2021-03-21T16:06:16.000Z</time>
      </trkpt>
      <trkpt lat="49.36228" lon="3.37292">
        <ele>88.800003051758</ele>
        <time>2021-03-21T16:06:17.000Z</time>
      </trkpt>
      <trkpt lat="49.36226" lon="3.37285">
        <ele>89</ele>
        <time>2021-03-21T16:06:19.000Z</time>
      </trkpt>
      <trkpt lat="49.36224" lon="3.37277">
        <ele>89.599998474121</ele>
        <time>2021-03-21T16:06:21.000Z</time>
      </trkpt>
      <trkpt lat="49.36216" lon="3.37255">
        <ele>91.599998474121</ele>
        <time>2021-03-21T16:06:27.000Z</time>
      </trkpt>
      <trkpt lat="49.36213" lon="3.37248">
        <ele>92.400001525879</ele>
        <time>2021-03-21T16:06:29.000Z</time>
      </trkpt>
      <trkpt lat="49.36212" lon="3.37245">
        <ele>92.400001525879</ele>
        <time>2021-03-21T16:06:30.000Z</time>
      </trkpt>
      <trkpt lat="49.36211" lon="3.37226">
        <ele>93.400001525879</ele>
        <time>2021-03-21T16:06:35.000Z</time>
      </trkpt>
      <trkpt lat="49.36215" lon="3.37196">
        <ele>94</ele>
        <time>2021-03-21T16:06:41.000Z</time>
      </trkpt>
      <trkpt lat="49.36219" lon="3.37172">
        <ele>94.599998474121</ele>
        <time>2021-03-21T16:06:46.000Z</time>
      </trkpt>
      <trkpt lat="49.36224" lon="3.37157">
        <ele>95.199996948242</ele>
        <time>2021-03-21T16:06:50.000Z</time>
      </trkpt>
      <trkpt lat="49.36231" lon="3.37141">
        <ele>96.199996948242</ele>
        <time>2021-03-21T16:06:54.000Z</time>
      </trkpt>
      <trkpt lat="49.36234" lon="3.37134">
        <ele>96.599998474121</ele>
        <time>2021-03-21T16:06:56.000Z</time>
      </trkpt>
      <trkpt lat="49.36238" lon="3.37128">
        <ele>96.800003051758</ele>
        <time>2021-03-21T16:06:58.000Z</time>
      </trkpt>
      <trkpt lat="49.36239" lon="3.37125">
        <ele>97</ele>
        <time>2021-03-21T16:06:59.000Z</time>
      </trkpt>
      <trkpt lat="49.36245" lon="3.37112">
        <ele>97.800003051758</ele>
        <time>2021-03-21T16:07:03.000Z</time>
      </trkpt>
      <trkpt lat="49.36254" lon="3.37098">
        <ele>98.199996948242</ele>
        <time>2021-03-21T16:07:08.000Z</time>
      </trkpt>
      <trkpt lat="49.36257" lon="3.37095">
        <ele>98.199996948242</ele>
        <time>2021-03-21T16:07:09.000Z</time>
      </trkpt>
      <trkpt lat="49.36263" lon="3.37087">
        <ele>97.800003051758</ele>
        <time>2021-03-21T16:07:12.000Z</time>
      </trkpt>
      <trkpt lat="49.36272" lon="3.37069">
        <ele>97.599998474121</ele>
        <time>2021-03-21T16:07:16.000Z</time>
      </trkpt>
      <trkpt lat="49.36275" lon="3.37065">
        <ele>97.400001525879</ele>
        <time>2021-03-21T16:07:17.000Z</time>
      </trkpt>
      <trkpt lat="49.36293" lon="3.37043">
        <ele>95.599998474121</ele>
        <time>2021-03-21T16:07:22.000Z</time>
      </trkpt>
      <trkpt lat="49.36296" lon="3.37035">
        <ele>94.599998474121</ele>
        <time>2021-03-21T16:07:24.000Z</time>
      </trkpt>
      <trkpt lat="49.36295" lon="3.37019">
        <ele>94</ele>
        <time>2021-03-21T16:07:26.000Z</time>
      </trkpt>
      <trkpt lat="49.36296" lon="3.37004">
        <ele>93</ele>
        <time>2021-03-21T16:07:28.000Z</time>
      </trkpt>
      <trkpt lat="49.36294" lon="3.36989">
        <ele>92</ele>
        <time>2021-03-21T16:07:30.000Z</time>
      </trkpt>
      <trkpt lat="49.36294" lon="3.36981">
        <ele>91</ele>
        <time>2021-03-21T16:07:31.000Z</time>
      </trkpt>
      <trkpt lat="49.36296" lon="3.36964">
        <ele>88.599998474121</ele>
        <time>2021-03-21T16:07:33.000Z</time>
      </trkpt>
      <trkpt lat="49.36298" lon="3.36955">
        <ele>87.599998474121</ele>
        <time>2021-03-21T16:07:34.000Z</time>
      </trkpt>
      <trkpt lat="49.36313" lon="3.36906">
        <ele>84.400001525879</ele>
        <time>2021-03-21T16:07:40.000Z</time>
      </trkpt>
      <trkpt lat="49.36317" lon="3.36891">
        <ele>84.599998474121</ele>
        <time>2021-03-21T16:07:42.000Z</time>
      </trkpt>
      <trkpt lat="49.36324" lon="3.36874">
        <ele>84.599998474121</ele>
        <time>2021-03-21T16:07:45.000Z</time>
      </trkpt>
      <trkpt lat="49.36326" lon="3.36869">
        <ele>84.400001525879</ele>
        <time>2021-03-21T16:07:46.000Z</time>
      </trkpt>
      <trkpt lat="49.36329" lon="3.36861">
        <ele>84</ele>
        <time>2021-03-21T16:07:48.000Z</time>
      </trkpt>
      <trkpt lat="49.36338" lon="3.36843">
        <ele>84.199996948242</ele>
        <time>2021-03-21T16:07:52.000Z</time>
      </trkpt>
      <trkpt lat="49.36351" lon="3.3681">
        <ele>84.400001525879</ele>
        <time>2021-03-21T16:07:58.000Z</time>
      </trkpt>
      <trkpt lat="49.36362" lon="3.36779">
        <ele>84.400001525879</ele>
        <time>2021-03-21T16:08:04.000Z</time>
      </trkpt>
      <trkpt lat="49.36366" lon="3.36769">
        <ele>84.199996948242</ele>
        <time>2021-03-21T16:08:06.000Z</time>
      </trkpt>
      <trkpt lat="49.36366" lon="3.36763">
        <ele>84.400001525879</ele>
        <time>2021-03-21T16:08:07.000Z</time>
      </trkpt>
      <trkpt lat="49.36368" lon="3.3674">
        <ele>84.599998474121</ele>
        <time>2021-03-21T16:08:11.000Z</time>
      </trkpt>
      <trkpt lat="49.36369" lon="3.36734">
        <ele>84.800003051758</ele>
        <time>2021-03-21T16:08:12.000Z</time>
      </trkpt>
      <trkpt lat="49.36368" lon="3.36718">
        <ele>85.400001525879</ele>
        <time>2021-03-21T16:08:15.000Z</time>
      </trkpt>
      <trkpt lat="49.3637" lon="3.36701">
        <ele>85.199996948242</ele>
        <time>2021-03-21T16:08:19.000Z</time>
      </trkpt>
      <trkpt lat="49.36372" lon="3.36694">
        <ele>85.199996948242</ele>
        <time>2021-03-21T16:08:22.000Z</time>
      </trkpt>
      <trkpt lat="49.36373" lon="3.36692">
        <ele>85.199996948242</ele>
        <time>2021-03-21T16:08:23.000Z</time>
      </trkpt>
      <trkpt lat="49.36374" lon="3.36684">
        <ele>85.199996948242</ele>
        <time>2021-03-21T16:08:25.000Z</time>
      </trkpt>
      <trkpt lat="49.36374" lon="3.3668">
        <ele>85.199996948242</ele>
        <time>2021-03-21T16:08:26.000Z</time>
      </trkpt>
      <trkpt lat="49.36377" lon="3.36656">
        <ele>85.800003051758</ele>
        <time>2021-03-21T16:08:31.000Z</time>
      </trkpt>
      <trkpt lat="49.36379" lon="3.36632">
        <ele>87.400001525879</ele>
        <time>2021-03-21T16:08:36.000Z</time>
      </trkpt>
      <trkpt lat="49.36379" lon="3.36608">
        <ele>88.199996948242</ele>
        <time>2021-03-21T16:08:41.000Z</time>
      </trkpt>
      <trkpt lat="49.36383" lon="3.36586">
        <ele>88.800003051758</ele>
        <time>2021-03-21T16:08:45.000Z</time>
      </trkpt>
      <trkpt lat="49.36383" lon="3.36559">
        <ele>89.199996948242</ele>
        <time>2021-03-21T16:08:50.000Z</time>
      </trkpt>
      <trkpt lat="49.36385" lon="3.36536">
        <ele>89</ele>
        <time>2021-03-21T16:08:54.000Z</time>
      </trkpt>
      <trkpt lat="49.36384" lon="3.36508">
        <ele>89</ele>
        <time>2021-03-21T16:09:00.000Z</time>
      </trkpt>
      <trkpt lat="49.36387" lon="3.36485">
        <ele>88</ele>
        <time>2021-03-21T16:09:05.000Z</time>
      </trkpt>
      <trkpt lat="49.3639" lon="3.36454">
        <ele>86</ele>
        <time>2021-03-21T16:09:11.000Z</time>
      </trkpt>
      <trkpt lat="49.36387" lon="3.36423">
        <ele>84.400001525879</ele>
        <time>2021-03-21T16:09:15.000Z</time>
      </trkpt>
      <trkpt lat="49.36388" lon="3.36415">
        <ele>84</ele>
        <time>2021-03-21T16:09:16.000Z</time>
      </trkpt>
      <trkpt lat="49.3639" lon="3.36408">
        <ele>83.800003051758</ele>
        <time>2021-03-21T16:09:17.000Z</time>
      </trkpt>
      <trkpt lat="49.364" lon="3.3639">
        <ele>83.800003051758</ele>
        <time>2021-03-21T16:09:20.000Z</time>
      </trkpt>
      <trkpt lat="49.36409" lon="3.36373">
        <ele>84.400001525879</ele>
        <time>2021-03-21T16:09:23.000Z</time>
      </trkpt>
      <trkpt lat="49.36416" lon="3.36357">
        <ele>85</ele>
        <time>2021-03-21T16:09:26.000Z</time>
      </trkpt>
      <trkpt lat="49.36418" lon="3.36337">
        <ele>85.800003051758</ele>
        <time>2021-03-21T16:09:30.000Z</time>
      </trkpt>
      <trkpt lat="49.36418" lon="3.36313">
        <ele>86</ele>
        <time>2021-03-21T16:09:35.000Z</time>
      </trkpt>
      <trkpt lat="49.36422" lon="3.36296">
        <ele>85.400001525879</ele>
        <time>2021-03-21T16:09:39.000Z</time>
      </trkpt>
      <trkpt lat="49.36426" lon="3.36277">
        <ele>84.599998474121</ele>
        <time>2021-03-21T16:09:43.000Z</time>
      </trkpt>
      <trkpt lat="49.3643" lon="3.36259">
        <ele>83.800003051758</ele>
        <time>2021-03-21T16:09:46.000Z</time>
      </trkpt>
      <trkpt lat="49.36439" lon="3.36241">
        <ele>82.800003051758</ele>
        <time>2021-03-21T16:09:49.000Z</time>
      </trkpt>
      <trkpt lat="49.36446" lon="3.36223">
        <ele>81</ele>
        <time>2021-03-21T16:09:52.000Z</time>
      </trkpt>
      <trkpt lat="49.36448" lon="3.36217">
        <ele>80.199996948242</ele>
        <time>2021-03-21T16:09:53.000Z</time>
      </trkpt>
      <trkpt lat="49.3646" lon="3.36191">
        <ele>78.800003051758</ele>
        <time>2021-03-21T16:09:57.000Z</time>
      </trkpt>
      <trkpt lat="49.36467" lon="3.3618">
        <ele>78.599998474121</ele>
        <time>2021-03-21T16:09:59.000Z</time>
      </trkpt>
      <trkpt lat="49.36473" lon="3.36169">
        <ele>78</ele>
        <time>2021-03-21T16:10:01.000Z</time>
      </trkpt>
      <trkpt lat="49.36484" lon="3.36152">
        <ele>78</ele>
        <time>2021-03-21T16:10:04.000Z</time>
      </trkpt>
      <trkpt lat="49.36491" lon="3.3614">
        <ele>78.800003051758</ele>
        <time>2021-03-21T16:10:06.000Z</time>
      </trkpt>
      <trkpt lat="49.36499" lon="3.36131">
        <ele>79.199996948242</ele>
        <time>2021-03-21T16:10:08.000Z</time>
      </trkpt>
      <trkpt lat="49.36503" lon="3.36126">
        <ele>79.199996948242</ele>
        <time>2021-03-21T16:10:09.000Z</time>
      </trkpt>
      <trkpt lat="49.36511" lon="3.36116">
        <ele>79.599998474121</ele>
        <time>2021-03-21T16:10:11.000Z</time>
      </trkpt>
      <trkpt lat="49.36518" lon="3.36105">
        <ele>80.199996948242</ele>
        <time>2021-03-21T16:10:13.000Z</time>
      </trkpt>
      <trkpt lat="49.36521" lon="3.36101">
        <ele>80.800003051758</ele>
        <time>2021-03-21T16:10:14.000Z</time>
      </trkpt>
      <trkpt lat="49.36524" lon="3.36096">
        <ele>81.400001525879</ele>
        <time>2021-03-21T16:10:15.000Z</time>
      </trkpt>
      <trkpt lat="49.36537" lon="3.3608">
        <ele>83</ele>
        <time>2021-03-21T16:10:19.000Z</time>
      </trkpt>
      <trkpt lat="49.36551" lon="3.36068">
        <ele>82.400001525879</ele>
        <time>2021-03-21T16:10:24.000Z</time>
      </trkpt>
      <trkpt lat="49.36554" lon="3.36068">
        <ele>81.800003051758</ele>
        <time>2021-03-21T16:10:25.000Z</time>
      </trkpt>
      <trkpt lat="49.3656" lon="3.36073">
        <ele>80</ele>
        <time>2021-03-21T16:10:27.000Z</time>
      </trkpt>
      <trkpt lat="49.36563" lon="3.36078">
        <ele>78.599998474121</ele>
        <time>2021-03-21T16:10:28.000Z</time>
      </trkpt>
      <trkpt lat="49.36568" lon="3.36082">
        <ele>77.400001525879</ele>
        <time>2021-03-21T16:10:29.000Z</time>
      </trkpt>
      <trkpt lat="49.36585" lon="3.361">
        <ele>74.400001525879</ele>
        <time>2021-03-21T16:10:32.000Z</time>
      </trkpt>
      <trkpt lat="49.36625" lon="3.36143">
        <ele>72.400001525879</ele>
        <time>2021-03-21T16:10:38.000Z</time>
      </trkpt>
      <trkpt lat="49.36666" lon="3.36185">
        <ele>67.400001525879</ele>
        <time>2021-03-21T16:10:44.000Z</time>
      </trkpt>
      <trkpt lat="49.36701" lon="3.36221">
        <ele>65.199996948242</ele>
        <time>2021-03-21T16:10:50.000Z</time>
      </trkpt>
      <trkpt lat="49.36728" lon="3.3625">
        <ele>64.199996948242</ele>
        <time>2021-03-21T16:10:55.000Z</time>
      </trkpt>
      <trkpt lat="49.36751" lon="3.36275">
        <ele>64</ele>
        <time>2021-03-21T16:11:00.000Z</time>
      </trkpt>
      <trkpt lat="49.36775" lon="3.363">
        <ele>64.800003051758</ele>
        <time>2021-03-21T16:11:05.000Z</time>
      </trkpt>
      <trkpt lat="49.36802" lon="3.36326">
        <ele>64</ele>
        <time>2021-03-21T16:11:10.000Z</time>
      </trkpt>
      <trkpt lat="49.36826" lon="3.36351">
        <ele>61.400001525879</ele>
        <time>2021-03-21T16:11:15.000Z</time>
      </trkpt>
      <trkpt lat="49.36828" lon="3.36365">
        <ele>60.799999237061</ele>
        <time>2021-03-21T16:11:17.000Z</time>
      </trkpt>
      <trkpt lat="49.36827" lon="3.36372">
        <ele>60.599998474121</ele>
        <time>2021-03-21T16:11:18.000Z</time>
      </trkpt>
      <trkpt lat="49.36826" lon="3.36378">
        <ele>60.599998474121</ele>
        <time>2021-03-21T16:11:19.000Z</time>
      </trkpt>
      <trkpt lat="49.36827" lon="3.36398">
        <ele>59.599998474121</ele>
        <time>2021-03-21T16:11:23.000Z</time>
      </trkpt>
      <trkpt lat="49.36829" lon="3.36411">
        <ele>59.200000762939</ele>
        <time>2021-03-21T16:11:29.000Z</time>
      </trkpt>
      <trkpt lat="49.36828" lon="3.36414">
        <ele>59</ele>
        <time>2021-03-21T16:11:33.000Z</time>
      </trkpt>
      <trkpt lat="49.36832" lon="3.36416">
        <ele>59</ele>
        <time>2021-03-21T16:11:35.000Z</time>
      </trkpt>
      <trkpt lat="49.36846" lon="3.36421">
        <ele>59</ele>
        <time>2021-03-21T16:11:40.000Z</time>
      </trkpt>
      <trkpt lat="49.36859" lon="3.36425">
        <ele>59</ele>
        <time>2021-03-21T16:11:44.000Z</time>
      </trkpt>
      <trkpt lat="49.36863" lon="3.36422">
        <ele>58.799999237061</ele>
        <time>2021-03-21T16:11:45.000Z</time>
      </trkpt>
      <trkpt lat="49.36871" lon="3.36415">
        <ele>58.599998474121</ele>
        <time>2021-03-21T16:11:47.000Z</time>
      </trkpt>
      <trkpt lat="49.3688" lon="3.36416">
        <ele>58.200000762939</ele>
        <time>2021-03-21T16:11:49.000Z</time>
      </trkpt>
      <trkpt lat="49.369" lon="3.36422">
        <ele>57.400001525879</ele>
        <time>2021-03-21T16:11:53.000Z</time>
      </trkpt>
      <trkpt lat="49.36911" lon="3.36428">
        <ele>57</ele>
        <time>2021-03-21T16:11:55.000Z</time>
      </trkpt>
      <trkpt lat="49.36939" lon="3.36444">
        <ele>55</ele>
        <time>2021-03-21T16:12:01.000Z</time>
      </trkpt>
      <trkpt lat="49.36972" lon="3.36461">
        <ele>53.200000762939</ele>
        <time>2021-03-21T16:12:08.000Z</time>
      </trkpt>
      <trkpt lat="49.37002" lon="3.36477">
        <ele>52</ele>
        <time>2021-03-21T16:12:15.000Z</time>
      </trkpt>
      <trkpt lat="49.3703" lon="3.36493">
        <ele>52.200000762939</ele>
        <time>2021-03-21T16:12:22.000Z</time>
      </trkpt>
      <trkpt lat="49.37038" lon="3.36512">
        <ele>52.599998474121</ele>
        <time>2021-03-21T16:12:26.000Z</time>
      </trkpt>
      <trkpt lat="49.3704" lon="3.36515">
        <ele>52.599998474121</ele>
        <time>2021-03-21T16:12:27.000Z</time>
      </trkpt>
      <trkpt lat="49.37044" lon="3.36515">
        <ele>52.799999237061</ele>
        <time>2021-03-21T16:12:29.000Z</time>
      </trkpt>
      <trkpt lat="49.37046" lon="3.36514">
        <ele>52.799999237061</ele>
        <time>2021-03-21T16:12:30.000Z</time>
      </trkpt>
      <trkpt lat="49.37054" lon="3.36506">
        <ele>53</ele>
        <time>2021-03-21T16:12:33.000Z</time>
      </trkpt>
      <trkpt lat="49.37068" lon="3.36504">
        <ele>52.799999237061</ele>
        <time>2021-03-21T16:12:37.000Z</time>
      </trkpt>
      <trkpt lat="49.37072" lon="3.36506">
        <ele>52.599998474121</ele>
        <time>2021-03-21T16:12:38.000Z</time>
      </trkpt>
      <trkpt lat="49.37094" lon="3.36519">
        <ele>52.200000762939</ele>
        <time>2021-03-21T16:12:43.000Z</time>
      </trkpt>
      <trkpt lat="49.37128" lon="3.36535">
        <ele>52</ele>
        <time>2021-03-21T16:12:50.000Z</time>
      </trkpt>
      <trkpt lat="49.37181" lon="3.36564">
        <ele>52</ele>
        <time>2021-03-21T16:13:01.000Z</time>
      </trkpt>
      <trkpt lat="49.3722" lon="3.36584">
        <ele>51</ele>
        <time>2021-03-21T16:13:10.000Z</time>
      </trkpt>
      <trkpt lat="49.37249" lon="3.36602">
        <ele>51</ele>
        <time>2021-03-21T16:13:17.000Z</time>
      </trkpt>
      <trkpt lat="49.37288" lon="3.36636">
        <ele>50.400001525879</ele>
        <time>2021-03-21T16:13:25.000Z</time>
      </trkpt>
      <trkpt lat="49.37327" lon="3.36673">
        <ele>49.599998474121</ele>
        <time>2021-03-21T16:13:33.000Z</time>
      </trkpt>
      <trkpt lat="49.37363" lon="3.36715">
        <ele>49.200000762939</ele>
        <time>2021-03-21T16:13:41.000Z</time>
      </trkpt>
      <trkpt lat="49.374" lon="3.36768">
        <ele>48</ele>
        <time>2021-03-21T16:13:50.000Z</time>
      </trkpt>
      <trkpt lat="49.37433" lon="3.36826">
        <ele>47</ele>
        <time>2021-03-21T16:13:59.000Z</time>
      </trkpt>
      <trkpt lat="49.37458" lon="3.36879">
        <ele>47.599998474121</ele>
        <time>2021-03-21T16:14:07.000Z</time>
      </trkpt>
      <trkpt lat="49.37478" lon="3.36931">
        <ele>49</ele>
        <time>2021-03-21T16:14:14.000Z</time>
      </trkpt>
      <trkpt lat="49.37497" lon="3.36997">
        <ele>49</ele>
        <time>2021-03-21T16:14:22.000Z</time>
      </trkpt>
      <trkpt lat="49.37516" lon="3.37065">
        <ele>49.200000762939</ele>
        <time>2021-03-21T16:14:30.000Z</time>
      </trkpt>
      <trkpt lat="49.37531" lon="3.37126">
        <ele>47</ele>
        <time>2021-03-21T16:14:37.000Z</time>
      </trkpt>
      <trkpt lat="49.37538" lon="3.37153">
        <ele>45.400001525879</ele>
        <time>2021-03-21T16:14:40.000Z</time>
      </trkpt>
      <trkpt lat="49.37546" lon="3.37168">
        <ele>44.799999237061</ele>
        <time>2021-03-21T16:14:42.000Z</time>
      </trkpt>
      <trkpt lat="49.37555" lon="3.37182">
        <ele>44.400001525879</ele>
        <time>2021-03-21T16:14:44.000Z</time>
      </trkpt>
      <trkpt lat="49.37558" lon="3.37201">
        <ele>44</ele>
        <time>2021-03-21T16:14:46.000Z</time>
      </trkpt>
      <trkpt lat="49.37568" lon="3.37282">
        <ele>44.599998474121</ele>
        <time>2021-03-21T16:14:54.000Z</time>
      </trkpt>
      <trkpt lat="49.37575" lon="3.37347">
        <ele>44.400001525879</ele>
        <time>2021-03-21T16:15:01.000Z</time>
      </trkpt>
      <trkpt lat="49.37584" lon="3.3742">
        <ele>42.799999237061</ele>
        <time>2021-03-21T16:15:09.000Z</time>
      </trkpt>
      <trkpt lat="49.37584" lon="3.37428">
        <ele>42.599998474121</ele>
        <time>2021-03-21T16:15:10.000Z</time>
      </trkpt>
      <trkpt lat="49.37582" lon="3.37442">
        <ele>42</ele>
        <time>2021-03-21T16:15:12.000Z</time>
      </trkpt>
      <trkpt lat="49.37575" lon="3.37451">
        <ele>42</ele>
        <time>2021-03-21T16:15:14.000Z</time>
      </trkpt>
      <trkpt lat="49.3757" lon="3.37453">
        <ele>42</ele>
        <time>2021-03-21T16:15:15.000Z</time>
      </trkpt>
      <trkpt lat="49.37542" lon="3.37462">
        <ele>42.400001525879</ele>
        <time>2021-03-21T16:15:20.000Z</time>
      </trkpt>
      <trkpt lat="49.37538" lon="3.37464">
        <ele>42.599998474121</ele>
        <time>2021-03-21T16:15:21.000Z</time>
      </trkpt>
      <trkpt lat="49.37506" lon="3.37483">
        <ele>43</ele>
        <time>2021-03-21T16:15:28.000Z</time>
      </trkpt>
      <trkpt lat="49.37477" lon="3.37501">
        <ele>43.799999237061</ele>
        <time>2021-03-21T16:15:34.000Z</time>
      </trkpt>
      <trkpt lat="49.3744" lon="3.37525">
        <ele>44</ele>
        <time>2021-03-21T16:15:41.000Z</time>
      </trkpt>
      <trkpt lat="49.37408" lon="3.3754">
        <ele>42.200000762939</ele>
        <time>2021-03-21T16:15:47.000Z</time>
      </trkpt>
      <trkpt lat="49.37375" lon="3.37552">
        <ele>42</ele>
        <time>2021-03-21T16:15:53.000Z</time>
      </trkpt>
      <trkpt lat="49.3737" lon="3.37554">
        <ele>42</ele>
        <time>2021-03-21T16:15:54.000Z</time>
      </trkpt>
      <trkpt lat="49.37343" lon="3.37562">
        <ele>42.400001525879</ele>
        <time>2021-03-21T16:15:59.000Z</time>
      </trkpt>
      <trkpt lat="49.37313" lon="3.37574">
        <ele>42.799999237061</ele>
        <time>2021-03-21T16:16:05.000Z</time>
      </trkpt>
      <trkpt lat="49.37309" lon="3.37577">
        <ele>42.799999237061</ele>
        <time>2021-03-21T16:16:06.000Z</time>
      </trkpt>
      <trkpt lat="49.37303" lon="3.37587">
        <ele>43.200000762939</ele>
        <time>2021-03-21T16:16:08.000Z</time>
      </trkpt>
      <trkpt lat="49.37301" lon="3.37595">
        <ele>43.599998474121</ele>
        <time>2021-03-21T16:16:09.000Z</time>
      </trkpt>
      <trkpt lat="49.37294" lon="3.37629">
        <ele>44.400001525879</ele>
        <time>2021-03-21T16:16:14.000Z</time>
      </trkpt>
      <trkpt lat="49.37289" lon="3.37647">
        <ele>45</ele>
        <time>2021-03-21T16:16:18.000Z</time>
      </trkpt>
      <trkpt lat="49.37283" lon="3.37671">
        <ele>45.599998474121</ele>
        <time>2021-03-21T16:16:24.000Z</time>
      </trkpt>
      <trkpt lat="49.37269" lon="3.37713">
        <ele>47</ele>
        <time>2021-03-21T16:16:32.000Z</time>
      </trkpt>
      <trkpt lat="49.37252" lon="3.3774">
        <ele>44.599998474121</ele>
        <time>2021-03-21T16:16:37.000Z</time>
      </trkpt>
      <trkpt lat="49.37245" lon="3.37753">
        <ele>43.599998474121</ele>
        <time>2021-03-21T16:16:39.000Z</time>
      </trkpt>
      <trkpt lat="49.37239" lon="3.37773">
        <ele>42.599998474121</ele>
        <time>2021-03-21T16:16:42.000Z</time>
      </trkpt>
      <trkpt lat="49.37228" lon="3.37815">
        <ele>40.400001525879</ele>
        <time>2021-03-21T16:16:48.000Z</time>
      </trkpt>
      <trkpt lat="49.37226" lon="3.3783">
        <ele>40.200000762939</ele>
        <time>2021-03-21T16:16:50.000Z</time>
      </trkpt>
      <trkpt lat="49.37224" lon="3.37852">
        <ele>40.799999237061</ele>
        <time>2021-03-21T16:16:53.000Z</time>
      </trkpt>
      <trkpt lat="49.37221" lon="3.37866">
        <ele>41</ele>
        <time>2021-03-21T16:16:55.000Z</time>
      </trkpt>
      <trkpt lat="49.37218" lon="3.37888">
        <ele>41</ele>
        <time>2021-03-21T16:16:58.000Z</time>
      </trkpt>
      <trkpt lat="49.37217" lon="3.37901">
        <ele>41</ele>
        <time>2021-03-21T16:17:00.000Z</time>
      </trkpt>
      <trkpt lat="49.37214" lon="3.37921">
        <ele>41.200000762939</ele>
        <time>2021-03-21T16:17:03.000Z</time>
      </trkpt>
      <trkpt lat="49.37209" lon="3.37962">
        <ele>40.599998474121</ele>
        <time>2021-03-21T16:17:10.000Z</time>
      </trkpt>
      <trkpt lat="49.37204" lon="3.3799">
        <ele>40.799999237061</ele>
        <time>2021-03-21T16:17:15.000Z</time>
      </trkpt>
      <trkpt lat="49.37199" lon="3.38018">
        <ele>40.200000762939</ele>
        <time>2021-03-21T16:17:20.000Z</time>
      </trkpt>
      <trkpt lat="49.37197" lon="3.38024">
        <ele>40</ele>
        <time>2021-03-21T16:17:21.000Z</time>
      </trkpt>
      <trkpt lat="49.37191" lon="3.3805">
        <ele>40</ele>
        <time>2021-03-21T16:17:25.000Z</time>
      </trkpt>
      <trkpt lat="49.37189" lon="3.38062">
        <ele>40</ele>
        <time>2021-03-21T16:17:27.000Z</time>
      </trkpt>
      <trkpt lat="49.37187" lon="3.38073">
        <ele>40</ele>
        <time>2021-03-21T16:17:29.000Z</time>
      </trkpt>
      <trkpt lat="49.37185" lon="3.38086">
        <ele>39.799999237061</ele>
        <time>2021-03-21T16:17:31.000Z</time>
      </trkpt>
      <trkpt lat="49.37184" lon="3.38098">
        <ele>39.799999237061</ele>
        <time>2021-03-21T16:17:33.000Z</time>
      </trkpt>
      <trkpt lat="49.37179" lon="3.38116">
        <ele>40.400001525879</ele>
        <time>2021-03-21T16:17:36.000Z</time>
      </trkpt>
      <trkpt lat="49.37174" lon="3.38134">
        <ele>40.400001525879</ele>
        <time>2021-03-21T16:17:39.000Z</time>
      </trkpt>
      <trkpt lat="49.37171" lon="3.38146">
        <ele>40.200000762939</ele>
        <time>2021-03-21T16:17:41.000Z</time>
      </trkpt>
      <trkpt lat="49.37167" lon="3.3816">
        <ele>40.200000762939</ele>
        <time>2021-03-21T16:17:44.000Z</time>
      </trkpt>
      <trkpt lat="49.37161" lon="3.38175">
        <ele>40</ele>
        <time>2021-03-21T16:17:49.000Z</time>
      </trkpt>
      <trkpt lat="49.37153" lon="3.38207">
        <ele>40.599998474121</ele>
        <time>2021-03-21T16:17:55.000Z</time>
      </trkpt>
      <trkpt lat="49.37149" lon="3.38236">
        <ele>40.400001525879</ele>
        <time>2021-03-21T16:18:00.000Z</time>
      </trkpt>
      <trkpt lat="49.37147" lon="3.38242">
        <ele>40.400001525879</ele>
        <time>2021-03-21T16:18:01.000Z</time>
      </trkpt>
      <trkpt lat="49.37144" lon="3.38254">
        <ele>40.200000762939</ele>
        <time>2021-03-21T16:18:03.000Z</time>
      </trkpt>
      <trkpt lat="49.3714" lon="3.38267">
        <ele>40.200000762939</ele>
        <time>2021-03-21T16:18:05.000Z</time>
      </trkpt>
      <trkpt lat="49.37139" lon="3.38273">
        <ele>40.200000762939</ele>
        <time>2021-03-21T16:18:06.000Z</time>
      </trkpt>
      <trkpt lat="49.37133" lon="3.38301">
        <ele>40</ele>
        <time>2021-03-21T16:18:10.000Z</time>
      </trkpt>
      <trkpt lat="49.37127" lon="3.38322">
        <ele>40.599998474121</ele>
        <time>2021-03-21T16:18:13.000Z</time>
      </trkpt>
      <trkpt lat="49.37124" lon="3.38336">
        <ele>41</ele>
        <time>2021-03-21T16:18:15.000Z</time>
      </trkpt>
      <trkpt lat="49.3711" lon="3.38387">
        <ele>41</ele>
        <time>2021-03-21T16:18:22.000Z</time>
      </trkpt>
      <trkpt lat="49.37108" lon="3.38395">
        <ele>41</ele>
        <time>2021-03-21T16:18:23.000Z</time>
      </trkpt>
      <trkpt lat="49.37107" lon="3.38403">
        <ele>41</ele>
        <time>2021-03-21T16:18:24.000Z</time>
      </trkpt>
      <trkpt lat="49.37098" lon="3.38441">
        <ele>41</ele>
        <time>2021-03-21T16:18:29.000Z</time>
      </trkpt>
      <trkpt lat="49.37091" lon="3.38471">
        <ele>40.400001525879</ele>
        <time>2021-03-21T16:18:33.000Z</time>
      </trkpt>
      <trkpt lat="49.3709" lon="3.38485">
        <ele>40</ele>
        <time>2021-03-21T16:18:35.000Z</time>
      </trkpt>
      <trkpt lat="49.37087" lon="3.38498">
        <ele>40</ele>
        <time>2021-03-21T16:18:37.000Z</time>
      </trkpt>
      <trkpt lat="49.37088" lon="3.38505">
        <ele>40</ele>
        <time>2021-03-21T16:18:38.000Z</time>
      </trkpt>
      <trkpt lat="49.3709" lon="3.38511">
        <ele>40</ele>
        <time>2021-03-21T16:18:39.000Z</time>
      </trkpt>
      <trkpt lat="49.37097" lon="3.38519">
        <ele>40</ele>
        <time>2021-03-21T16:18:41.000Z</time>
      </trkpt>
      <trkpt lat="49.37106" lon="3.38523">
        <ele>40</ele>
        <time>2021-03-21T16:18:43.000Z</time>
      </trkpt>
      <trkpt lat="49.37121" lon="3.38526">
        <ele>40</ele>
        <time>2021-03-21T16:18:46.000Z</time>
      </trkpt>
      <trkpt lat="49.3713" lon="3.38525">
        <ele>40</ele>
        <time>2021-03-21T16:18:48.000Z</time>
      </trkpt>
      <trkpt lat="49.37145" lon="3.38523">
        <ele>40</ele>
        <time>2021-03-21T16:18:51.000Z</time>
      </trkpt>
      <trkpt lat="49.37167" lon="3.3851">
        <ele>40.200000762939</ele>
        <time>2021-03-21T16:18:56.000Z</time>
      </trkpt>
      <trkpt lat="49.37171" lon="3.38508">
        <ele>40.200000762939</ele>
        <time>2021-03-21T16:18:57.000Z</time>
      </trkpt>
      <trkpt lat="49.3719" lon="3.38504">
        <ele>41</ele>
        <time>2021-03-21T16:19:01.000Z</time>
      </trkpt>
      <trkpt lat="49.37199" lon="3.38505">
        <ele>41.200000762939</ele>
        <time>2021-03-21T16:19:03.000Z</time>
      </trkpt>
      <trkpt lat="49.37225" lon="3.38514">
        <ele>41.799999237061</ele>
        <time>2021-03-21T16:19:09.000Z</time>
      </trkpt>
      <trkpt lat="49.37247" lon="3.38527">
        <ele>41</ele>
        <time>2021-03-21T16:19:14.000Z</time>
      </trkpt>
      <trkpt lat="49.37251" lon="3.38528">
        <ele>41</ele>
        <time>2021-03-21T16:19:15.000Z</time>
      </trkpt>
      <trkpt lat="49.37255" lon="3.3853">
        <ele>41</ele>
        <time>2021-03-21T16:19:16.000Z</time>
      </trkpt>
      <trkpt lat="49.37264" lon="3.38534">
        <ele>41</ele>
        <time>2021-03-21T16:19:18.000Z</time>
      </trkpt>
      <trkpt lat="49.37268" lon="3.38536">
        <ele>41</ele>
        <time>2021-03-21T16:19:19.000Z</time>
      </trkpt>
      <trkpt lat="49.3728" lon="3.38545">
        <ele>40.799999237061</ele>
        <time>2021-03-21T16:19:22.000Z</time>
      </trkpt>
      <trkpt lat="49.37284" lon="3.38549">
        <ele>40.599998474121</ele>
        <time>2021-03-21T16:19:23.000Z</time>
      </trkpt>
      <trkpt lat="49.37291" lon="3.38557">
        <ele>40.400001525879</ele>
        <time>2021-03-21T16:19:25.000Z</time>
      </trkpt>
      <trkpt lat="49.37298" lon="3.38564">
        <ele>40.200000762939</ele>
        <time>2021-03-21T16:19:27.000Z</time>
      </trkpt>
      <trkpt lat="49.37318" lon="3.38589">
        <ele>40</ele>
        <time>2021-03-21T16:19:33.000Z</time>
      </trkpt>
      <trkpt lat="49.37338" lon="3.38616">
        <ele>40</ele>
        <time>2021-03-21T16:19:39.000Z</time>
      </trkpt>
      <trkpt lat="49.37341" lon="3.38621">
        <ele>40</ele>
        <time>2021-03-21T16:19:40.000Z</time>
      </trkpt>
      <trkpt lat="49.37357" lon="3.38653">
        <ele>40</ele>
        <time>2021-03-21T16:19:46.000Z</time>
      </trkpt>
      <trkpt lat="49.37374" lon="3.387">
        <ele>40</ele>
        <time>2021-03-21T16:19:54.000Z</time>
      </trkpt>
      <trkpt lat="49.37381" lon="3.38725">
        <ele>40.200000762939</ele>
        <time>2021-03-21T16:19:58.000Z</time>
      </trkpt>
      <trkpt lat="49.37385" lon="3.38738">
        <ele>40.599998474121</ele>
        <time>2021-03-21T16:20:00.000Z</time>
      </trkpt>
      <trkpt lat="49.37388" lon="3.38752">
        <ele>40.799999237061</ele>
        <time>2021-03-21T16:20:02.000Z</time>
      </trkpt>
      <trkpt lat="49.37394" lon="3.38772">
        <ele>40.799999237061</ele>
        <time>2021-03-21T16:20:05.000Z</time>
      </trkpt>
      <trkpt lat="49.37395" lon="3.38779">
        <ele>40.599998474121</ele>
        <time>2021-03-21T16:20:06.000Z</time>
      </trkpt>
      <trkpt lat="49.37396" lon="3.38799">
        <ele>40.599998474121</ele>
        <time>2021-03-21T16:20:09.000Z</time>
      </trkpt>
      <trkpt lat="49.37402" lon="3.38833">
        <ele>40.400001525879</ele>
        <time>2021-03-21T16:20:14.000Z</time>
      </trkpt>
      <trkpt lat="49.37403" lon="3.38848">
        <ele>40.400001525879</ele>
        <time>2021-03-21T16:20:16.000Z</time>
      </trkpt>
      <trkpt lat="49.37404" lon="3.38887">
        <ele>40.400001525879</ele>
        <time>2021-03-21T16:20:21.000Z</time>
      </trkpt>
      <trkpt lat="49.37405" lon="3.38903">
        <ele>40.200000762939</ele>
        <time>2021-03-21T16:20:23.000Z</time>
      </trkpt>
      <trkpt lat="49.3741" lon="3.38926">
        <ele>40.200000762939</ele>
        <time>2021-03-21T16:20:26.000Z</time>
      </trkpt>
      <trkpt lat="49.37416" lon="3.38946">
        <ele>40</ele>
        <time>2021-03-21T16:20:29.000Z</time>
      </trkpt>
      <trkpt lat="49.37425" lon="3.38973">
        <ele>39.400001525879</ele>
        <time>2021-03-21T16:20:33.000Z</time>
      </trkpt>
      <trkpt lat="49.37433" lon="3.38993">
        <ele>38.599998474121</ele>
        <time>2021-03-21T16:20:36.000Z</time>
      </trkpt>
      <trkpt lat="49.37445" lon="3.39018">
        <ele>37.200000762939</ele>
        <time>2021-03-21T16:20:40.000Z</time>
      </trkpt>
      <trkpt lat="49.3746" lon="3.3905">
        <ele>37.599998474121</ele>
        <time>2021-03-21T16:20:45.000Z</time>
      </trkpt>
      <trkpt lat="49.37463" lon="3.39055">
        <ele>37.799999237061</ele>
        <time>2021-03-21T16:20:46.000Z</time>
      </trkpt>
      <trkpt lat="49.37465" lon="3.39062">
        <ele>38.200000762939</ele>
        <time>2021-03-21T16:20:47.000Z</time>
      </trkpt>
      <trkpt lat="49.37477" lon="3.39084">
        <ele>39.599998474121</ele>
        <time>2021-03-21T16:20:51.000Z</time>
      </trkpt>
      <trkpt lat="49.37495" lon="3.39117">
        <ele>41.200000762939</ele>
        <time>2021-03-21T16:20:57.000Z</time>
      </trkpt>
      <trkpt lat="49.375" lon="3.3913">
        <ele>41.599998474121</ele>
        <time>2021-03-21T16:20:59.000Z</time>
      </trkpt>
      <trkpt lat="49.37506" lon="3.39151">
        <ele>41.400001525879</ele>
        <time>2021-03-21T16:21:02.000Z</time>
      </trkpt>
      <trkpt lat="49.37512" lon="3.39164">
        <ele>41</ele>
        <time>2021-03-21T16:21:04.000Z</time>
      </trkpt>
      <trkpt lat="49.37523" lon="3.39182">
        <ele>40.400001525879</ele>
        <time>2021-03-21T16:21:07.000Z</time>
      </trkpt>
      <trkpt lat="49.37527" lon="3.39186">
        <ele>40.200000762939</ele>
        <time>2021-03-21T16:21:08.000Z</time>
      </trkpt>
      <trkpt lat="49.3754" lon="3.39198">
        <ele>40.599998474121</ele>
        <time>2021-03-21T16:21:11.000Z</time>
      </trkpt>
      <trkpt lat="49.37548" lon="3.39206">
        <ele>40.799999237061</ele>
        <time>2021-03-21T16:21:13.000Z</time>
      </trkpt>
      <trkpt lat="49.37556" lon="3.39215">
        <ele>41.400001525879</ele>
        <time>2021-03-21T16:21:15.000Z</time>
      </trkpt>
      <trkpt lat="49.37565" lon="3.39223">
        <ele>42.400001525879</ele>
        <time>2021-03-21T16:21:17.000Z</time>
      </trkpt>
      <trkpt lat="49.37573" lon="3.39232">
        <ele>42.799999237061</ele>
        <time>2021-03-21T16:21:19.000Z</time>
      </trkpt>
      <trkpt lat="49.37582" lon="3.39242">
        <ele>43.400001525879</ele>
        <time>2021-03-21T16:21:21.000Z</time>
      </trkpt>
      <trkpt lat="49.37591" lon="3.39248">
        <ele>44.400001525879</ele>
        <time>2021-03-21T16:21:23.000Z</time>
      </trkpt>
      <trkpt lat="49.37596" lon="3.39252">
        <ele>45.200000762939</ele>
        <time>2021-03-21T16:21:24.000Z</time>
      </trkpt>
      <trkpt lat="49.37611" lon="3.39258">
        <ele>46.599998474121</ele>
        <time>2021-03-21T16:21:27.000Z</time>
      </trkpt>
      <trkpt lat="49.37635" lon="3.39263">
        <ele>46.799999237061</ele>
        <time>2021-03-21T16:21:32.000Z</time>
      </trkpt>
      <trkpt lat="49.3764" lon="3.39264">
        <ele>46.599998474121</ele>
        <time>2021-03-21T16:21:33.000Z</time>
      </trkpt>
      <trkpt lat="49.37654" lon="3.39262">
        <ele>46.400001525879</ele>
        <time>2021-03-21T16:21:36.000Z</time>
      </trkpt>
      <trkpt lat="49.37667" lon="3.39255">
        <ele>47</ele>
        <time>2021-03-21T16:21:39.000Z</time>
      </trkpt>
      <trkpt lat="49.37672" lon="3.39252">
        <ele>47</ele>
        <time>2021-03-21T16:21:40.000Z</time>
      </trkpt>
      <trkpt lat="49.3768" lon="3.39245">
        <ele>46.400001525879</ele>
        <time>2021-03-21T16:21:42.000Z</time>
      </trkpt>
      <trkpt lat="49.37692" lon="3.39231">
        <ele>46</ele>
        <time>2021-03-21T16:21:45.000Z</time>
      </trkpt>
      <trkpt lat="49.37696" lon="3.39226">
        <ele>46</ele>
        <time>2021-03-21T16:21:46.000Z</time>
      </trkpt>
      <trkpt lat="49.37701" lon="3.39215">
        <ele>45.799999237061</ele>
        <time>2021-03-21T16:21:48.000Z</time>
      </trkpt>
      <trkpt lat="49.37707" lon="3.39196">
        <ele>45.599998474121</ele>
        <time>2021-03-21T16:21:51.000Z</time>
      </trkpt>
      <trkpt lat="49.37715" lon="3.39163">
        <ele>44.599998474121</ele>
        <time>2021-03-21T16:21:56.000Z</time>
      </trkpt>
      <trkpt lat="49.37716" lon="3.39156">
        <ele>44.400001525879</ele>
        <time>2021-03-21T16:21:57.000Z</time>
      </trkpt>
      <trkpt lat="49.37718" lon="3.39141">
        <ele>44.799999237061</ele>
        <time>2021-03-21T16:21:59.000Z</time>
      </trkpt>
      <trkpt lat="49.3772" lon="3.39129">
        <ele>44.599998474121</ele>
        <time>2021-03-21T16:22:01.000Z</time>
      </trkpt>
      <trkpt lat="49.37724" lon="3.39096">
        <ele>43.799999237061</ele>
        <time>2021-03-21T16:22:06.000Z</time>
      </trkpt>
      <trkpt lat="49.37724" lon="3.39065">
        <ele>43.400001525879</ele>
        <time>2021-03-21T16:22:11.000Z</time>
      </trkpt>
      <trkpt lat="49.37726" lon="3.39033">
        <ele>42.200000762939</ele>
        <time>2021-03-21T16:22:16.000Z</time>
      </trkpt>
      <trkpt lat="49.37729" lon="3.39018">
        <ele>42</ele>
        <time>2021-03-21T16:22:18.000Z</time>
      </trkpt>
      <trkpt lat="49.3773" lon="3.39002">
        <ele>41.799999237061</ele>
        <time>2021-03-21T16:22:20.000Z</time>
      </trkpt>
      <trkpt lat="49.37731" lon="3.38996">
        <ele>41.799999237061</ele>
        <time>2021-03-21T16:22:21.000Z</time>
      </trkpt>
      <trkpt lat="49.37731" lon="3.38989">
        <ele>41.599998474121</ele>
        <time>2021-03-21T16:22:22.000Z</time>
      </trkpt>
      <trkpt lat="49.37734" lon="3.38975">
        <ele>41.599998474121</ele>
        <time>2021-03-21T16:22:24.000Z</time>
      </trkpt>
      <trkpt lat="49.37736" lon="3.38968">
        <ele>41.799999237061</ele>
        <time>2021-03-21T16:22:25.000Z</time>
      </trkpt>
      <trkpt lat="49.37741" lon="3.38958">
        <ele>42.200000762939</ele>
        <time>2021-03-21T16:22:27.000Z</time>
      </trkpt>
      <trkpt lat="49.37746" lon="3.38946">
        <ele>42</ele>
        <time>2021-03-21T16:22:29.000Z</time>
      </trkpt>
      <trkpt lat="49.3775" lon="3.38935">
        <ele>42.200000762939</ele>
        <time>2021-03-21T16:22:31.000Z</time>
      </trkpt>
      <trkpt lat="49.37753" lon="3.38929">
        <ele>42.400001525879</ele>
        <time>2021-03-21T16:22:32.000Z</time>
      </trkpt>
      <trkpt lat="49.37769" lon="3.38892">
        <ele>42.200000762939</ele>
        <time>2021-03-21T16:22:38.000Z</time>
      </trkpt>
      <trkpt lat="49.37772" lon="3.38887">
        <ele>42</ele>
        <time>2021-03-21T16:22:39.000Z</time>
      </trkpt>
      <trkpt lat="49.37778" lon="3.38876">
        <ele>42.200000762939</ele>
        <time>2021-03-21T16:22:41.000Z</time>
      </trkpt>
      <trkpt lat="49.37783" lon="3.38864">
        <ele>42.200000762939</ele>
        <time>2021-03-21T16:22:43.000Z</time>
      </trkpt>
      <trkpt lat="49.37789" lon="3.38852">
        <ele>41.799999237061</ele>
        <time>2021-03-21T16:22:45.000Z</time>
      </trkpt>
      <trkpt lat="49.37792" lon="3.38838">
        <ele>41.599998474121</ele>
        <time>2021-03-21T16:22:47.000Z</time>
      </trkpt>
      <trkpt lat="49.37798" lon="3.38818">
        <ele>41.599998474121</ele>
        <time>2021-03-21T16:22:50.000Z</time>
      </trkpt>
      <trkpt lat="49.37802" lon="3.38806">
        <ele>41.200000762939</ele>
        <time>2021-03-21T16:22:52.000Z</time>
      </trkpt>
      <trkpt lat="49.37812" lon="3.3878">
        <ele>41.799999237061</ele>
        <time>2021-03-21T16:22:56.000Z</time>
      </trkpt>
      <trkpt lat="49.37814" lon="3.38766">
        <ele>41.799999237061</ele>
        <time>2021-03-21T16:22:58.000Z</time>
      </trkpt>
      <trkpt lat="49.37815" lon="3.38759">
        <ele>41.799999237061</ele>
        <time>2021-03-21T16:22:59.000Z</time>
      </trkpt>
      <trkpt lat="49.37818" lon="3.3873">
        <ele>42</ele>
        <time>2021-03-21T16:23:03.000Z</time>
      </trkpt>
      <trkpt lat="49.37823" lon="3.38695">
        <ele>40.799999237061</ele>
        <time>2021-03-21T16:23:08.000Z</time>
      </trkpt>
      <trkpt lat="49.37824" lon="3.38689">
        <ele>40.799999237061</ele>
        <time>2021-03-21T16:23:09.000Z</time>
      </trkpt>
      <trkpt lat="49.37825" lon="3.38682">
        <ele>40.799999237061</ele>
        <time>2021-03-21T16:23:10.000Z</time>
      </trkpt>
      <trkpt lat="49.37827" lon="3.38669">
        <ele>40.799999237061</ele>
        <time>2021-03-21T16:23:12.000Z</time>
      </trkpt>
      <trkpt lat="49.37829" lon="3.38664">
        <ele>41</ele>
        <time>2021-03-21T16:23:13.000Z</time>
      </trkpt>
      <trkpt lat="49.37832" lon="3.38653">
        <ele>41.599998474121</ele>
        <time>2021-03-21T16:23:15.000Z</time>
      </trkpt>
      <trkpt lat="49.37837" lon="3.38634">
        <ele>42.400001525879</ele>
        <time>2021-03-21T16:23:18.000Z</time>
      </trkpt>
      <trkpt lat="49.37842" lon="3.3861">
        <ele>43.400001525879</ele>
        <time>2021-03-21T16:23:22.000Z</time>
      </trkpt>
      <trkpt lat="49.37844" lon="3.38605">
        <ele>43.599998474121</ele>
        <time>2021-03-21T16:23:23.000Z</time>
      </trkpt>
      <trkpt lat="49.37847" lon="3.38596">
        <ele>44</ele>
        <time>2021-03-21T16:23:25.000Z</time>
      </trkpt>
      <trkpt lat="49.37851" lon="3.38575">
        <ele>44</ele>
        <time>2021-03-21T16:23:29.000Z</time>
      </trkpt>
      <trkpt lat="49.37853" lon="3.38564">
        <ele>44</ele>
        <time>2021-03-21T16:23:31.000Z</time>
      </trkpt>
      <trkpt lat="49.37855" lon="3.38558">
        <ele>44</ele>
        <time>2021-03-21T16:23:32.000Z</time>
      </trkpt>
      <trkpt lat="49.3786" lon="3.38545">
        <ele>43.400001525879</ele>
        <time>2021-03-21T16:23:34.000Z</time>
      </trkpt>
      <trkpt lat="49.37865" lon="3.38534">
        <ele>42.400001525879</ele>
        <time>2021-03-21T16:23:36.000Z</time>
      </trkpt>
      <trkpt lat="49.37876" lon="3.38512">
        <ele>41.599998474121</ele>
        <time>2021-03-21T16:23:40.000Z</time>
      </trkpt>
      <trkpt lat="49.37885" lon="3.38498">
        <ele>41</ele>
        <time>2021-03-21T16:23:43.000Z</time>
      </trkpt>
      <trkpt lat="49.37893" lon="3.38491">
        <ele>41</ele>
        <time>2021-03-21T16:23:45.000Z</time>
      </trkpt>
      <trkpt lat="49.379" lon="3.38485">
        <ele>41</ele>
        <time>2021-03-21T16:23:47.000Z</time>
      </trkpt>
      <trkpt lat="49.3791" lon="3.38472">
        <ele>41</ele>
        <time>2021-03-21T16:23:50.000Z</time>
      </trkpt>
      <trkpt lat="49.37916" lon="3.38462">
        <ele>41</ele>
        <time>2021-03-21T16:23:52.000Z</time>
      </trkpt>
      <trkpt lat="49.37926" lon="3.38448">
        <ele>41.400001525879</ele>
        <time>2021-03-21T16:23:55.000Z</time>
      </trkpt>
      <trkpt lat="49.37929" lon="3.38444">
        <ele>41.599998474121</ele>
        <time>2021-03-21T16:23:56.000Z</time>
      </trkpt>
      <trkpt lat="49.37937" lon="3.38435">
        <ele>41.799999237061</ele>
        <time>2021-03-21T16:23:58.000Z</time>
      </trkpt>
      <trkpt lat="49.37941" lon="3.38432">
        <ele>41.599998474121</ele>
        <time>2021-03-21T16:23:59.000Z</time>
      </trkpt>
      <trkpt lat="49.37949" lon="3.38427">
        <ele>41.799999237061</ele>
        <time>2021-03-21T16:24:01.000Z</time>
      </trkpt>
      <trkpt lat="49.37961" lon="3.38415">
        <ele>41.799999237061</ele>
        <time>2021-03-21T16:24:04.000Z</time>
      </trkpt>
      <trkpt lat="49.37991" lon="3.38391">
        <ele>41.200000762939</ele>
        <time>2021-03-21T16:24:11.000Z</time>
      </trkpt>
      <trkpt lat="49.38014" lon="3.38375">
        <ele>40.599998474121</ele>
        <time>2021-03-21T16:24:16.000Z</time>
      </trkpt>
      <trkpt lat="49.38018" lon="3.38372">
        <ele>40.400001525879</ele>
        <time>2021-03-21T16:24:17.000Z</time>
      </trkpt>
      <trkpt lat="49.38043" lon="3.3835">
        <ele>40.599998474121</ele>
        <time>2021-03-21T16:24:23.000Z</time>
      </trkpt>
      <trkpt lat="49.38057" lon="3.3834">
        <ele>40.599998474121</ele>
        <time>2021-03-21T16:24:26.000Z</time>
      </trkpt>
      <trkpt lat="49.3807" lon="3.38328">
        <ele>40.599998474121</ele>
        <time>2021-03-21T16:24:29.000Z</time>
      </trkpt>
      <trkpt lat="49.38093" lon="3.38301">
        <ele>40.400001525879</ele>
        <time>2021-03-21T16:24:35.000Z</time>
      </trkpt>
      <trkpt lat="49.38101" lon="3.38293">
        <ele>40.400001525879</ele>
        <time>2021-03-21T16:24:37.000Z</time>
      </trkpt>
      <trkpt lat="49.38118" lon="3.38268">
        <ele>41.200000762939</ele>
        <time>2021-03-21T16:24:42.000Z</time>
      </trkpt>
      <trkpt lat="49.38125" lon="3.38258">
        <ele>41.599998474121</ele>
        <time>2021-03-21T16:24:44.000Z</time>
      </trkpt>
      <trkpt lat="49.38131" lon="3.38249">
        <ele>41.799999237061</ele>
        <time>2021-03-21T16:24:46.000Z</time>
      </trkpt>
      <trkpt lat="49.38135" lon="3.38244">
        <ele>42</ele>
        <time>2021-03-21T16:24:47.000Z</time>
      </trkpt>
      <trkpt lat="49.38152" lon="3.38218">
        <ele>43.599998474121</ele>
        <time>2021-03-21T16:24:52.000Z</time>
      </trkpt>
      <trkpt lat="49.38159" lon="3.38208">
        <ele>44.200000762939</ele>
        <time>2021-03-21T16:24:54.000Z</time>
      </trkpt>
      <trkpt lat="49.38172" lon="3.38191">
        <ele>44.400001525879</ele>
        <time>2021-03-21T16:24:58.000Z</time>
      </trkpt>
      <trkpt lat="49.38193" lon="3.38167">
        <ele>43</ele>
        <time>2021-03-21T16:25:04.000Z</time>
      </trkpt>
      <trkpt lat="49.38216" lon="3.38132">
        <ele>40.799999237061</ele>
        <time>2021-03-21T16:25:11.000Z</time>
      </trkpt>
      <trkpt lat="49.38221" lon="3.38121">
        <ele>40.799999237061</ele>
        <time>2021-03-21T16:25:13.000Z</time>
      </trkpt>
      <trkpt lat="49.38223" lon="3.38115">
        <ele>40.799999237061</ele>
        <time>2021-03-21T16:25:14.000Z</time>
      </trkpt>
      <trkpt lat="49.3823" lon="3.38097">
        <ele>40</ele>
        <time>2021-03-21T16:25:17.000Z</time>
      </trkpt>
      <trkpt lat="49.38232" lon="3.38091">
        <ele>39.799999237061</ele>
        <time>2021-03-21T16:25:18.000Z</time>
      </trkpt>
      <trkpt lat="49.38242" lon="3.3806">
        <ele>39.799999237061</ele>
        <time>2021-03-21T16:25:23.000Z</time>
      </trkpt>
      <trkpt lat="49.38244" lon="3.38053">
        <ele>39.799999237061</ele>
        <time>2021-03-21T16:25:24.000Z</time>
      </trkpt>
      <trkpt lat="49.38255" lon="3.38007">
        <ele>40.200000762939</ele>
        <time>2021-03-21T16:25:31.000Z</time>
      </trkpt>
      <trkpt lat="49.38263" lon="3.37974">
        <ele>40.400001525879</ele>
        <time>2021-03-21T16:25:36.000Z</time>
      </trkpt>
      <trkpt lat="49.38267" lon="3.37962">
        <ele>40.599998474121</ele>
        <time>2021-03-21T16:25:38.000Z</time>
      </trkpt>
      <trkpt lat="49.38276" lon="3.37933">
        <ele>41.400001525879</ele>
        <time>2021-03-21T16:25:43.000Z</time>
      </trkpt>
      <trkpt lat="49.3828" lon="3.37909">
        <ele>42.400001525879</ele>
        <time>2021-03-21T16:25:47.000Z</time>
      </trkpt>
      <trkpt lat="49.38287" lon="3.37877">
        <ele>43</ele>
        <time>2021-03-21T16:25:52.000Z</time>
      </trkpt>
      <trkpt lat="49.38293" lon="3.37852">
        <ele>43.200000762939</ele>
        <time>2021-03-21T16:25:56.000Z</time>
      </trkpt>
      <trkpt lat="49.38294" lon="3.37845">
        <ele>43.400001525879</ele>
        <time>2021-03-21T16:25:57.000Z</time>
      </trkpt>
      <trkpt lat="49.38295" lon="3.37839">
        <ele>43.599998474121</ele>
        <time>2021-03-21T16:25:58.000Z</time>
      </trkpt>
      <trkpt lat="49.38299" lon="3.37817">
        <ele>43.599998474121</ele>
        <time>2021-03-21T16:26:01.000Z</time>
      </trkpt>
      <trkpt lat="49.383" lon="3.3781">
        <ele>43.400001525879</ele>
        <time>2021-03-21T16:26:02.000Z</time>
      </trkpt>
      <trkpt lat="49.38311" lon="3.37778">
        <ele>44.400001525879</ele>
        <time>2021-03-21T16:26:07.000Z</time>
      </trkpt>
      <trkpt lat="49.38313" lon="3.37772">
        <ele>44.400001525879</ele>
        <time>2021-03-21T16:26:08.000Z</time>
      </trkpt>
      <trkpt lat="49.38317" lon="3.37759">
        <ele>45</ele>
        <time>2021-03-21T16:26:10.000Z</time>
      </trkpt>
      <trkpt lat="49.38319" lon="3.37753">
        <ele>45</ele>
        <time>2021-03-21T16:26:11.000Z</time>
      </trkpt>
      <trkpt lat="49.38327" lon="3.37729">
        <ele>45</ele>
        <time>2021-03-21T16:26:15.000Z</time>
      </trkpt>
      <trkpt lat="49.38332" lon="3.37705">
        <ele>44.400001525879</ele>
        <time>2021-03-21T16:26:19.000Z</time>
      </trkpt>
      <trkpt lat="49.38336" lon="3.37692">
        <ele>43.799999237061</ele>
        <time>2021-03-21T16:26:21.000Z</time>
      </trkpt>
      <trkpt lat="49.38341" lon="3.37681">
        <ele>42.799999237061</ele>
        <time>2021-03-21T16:26:23.000Z</time>
      </trkpt>
      <trkpt lat="49.38342" lon="3.37675">
        <ele>42.400001525879</ele>
        <time>2021-03-21T16:26:24.000Z</time>
      </trkpt>
      <trkpt lat="49.38353" lon="3.37634">
        <ele>42</ele>
        <time>2021-03-21T16:26:30.000Z</time>
      </trkpt>
      <trkpt lat="49.38357" lon="3.37621">
        <ele>42.400001525879</ele>
        <time>2021-03-21T16:26:32.000Z</time>
      </trkpt>
      <trkpt lat="49.38358" lon="3.37615">
        <ele>42.799999237061</ele>
        <time>2021-03-21T16:26:33.000Z</time>
      </trkpt>
      <trkpt lat="49.38359" lon="3.37608">
        <ele>43</ele>
        <time>2021-03-21T16:26:34.000Z</time>
      </trkpt>
      <trkpt lat="49.38364" lon="3.37589">
        <ele>43.200000762939</ele>
        <time>2021-03-21T16:26:37.000Z</time>
      </trkpt>
      <trkpt lat="49.38368" lon="3.37575">
        <ele>43.799999237061</ele>
        <time>2021-03-21T16:26:39.000Z</time>
      </trkpt>
      <trkpt lat="49.38371" lon="3.37563">
        <ele>43.799999237061</ele>
        <time>2021-03-21T16:26:41.000Z</time>
      </trkpt>
      <trkpt lat="49.38377" lon="3.37537">
        <ele>43.599998474121</ele>
        <time>2021-03-21T16:26:45.000Z</time>
      </trkpt>
      <trkpt lat="49.3838" lon="3.37486">
        <ele>44</ele>
        <time>2021-03-21T16:26:52.000Z</time>
      </trkpt>
      <trkpt lat="49.3838" lon="3.37473">
        <ele>44.400001525879</ele>
        <time>2021-03-21T16:26:54.000Z</time>
      </trkpt>
      <trkpt lat="49.3838" lon="3.37458">
        <ele>44.400001525879</ele>
        <time>2021-03-21T16:26:56.000Z</time>
      </trkpt>
      <trkpt lat="49.38379" lon="3.37451">
        <ele>44.200000762939</ele>
        <time>2021-03-21T16:26:57.000Z</time>
      </trkpt>
      <trkpt lat="49.38379" lon="3.37444">
        <ele>43.799999237061</ele>
        <time>2021-03-21T16:26:58.000Z</time>
      </trkpt>
      <trkpt lat="49.38376" lon="3.37418">
        <ele>42.200000762939</ele>
        <time>2021-03-21T16:27:02.000Z</time>
      </trkpt>
      <trkpt lat="49.38373" lon="3.37379">
        <ele>39</ele>
        <time>2021-03-21T16:27:08.000Z</time>
      </trkpt>
      <trkpt lat="49.38371" lon="3.37366">
        <ele>38.200000762939</ele>
        <time>2021-03-21T16:27:10.000Z</time>
      </trkpt>
      <trkpt lat="49.3837" lon="3.37347">
        <ele>37.400001525879</ele>
        <time>2021-03-21T16:27:13.000Z</time>
      </trkpt>
      <trkpt lat="49.38369" lon="3.37341">
        <ele>37.200000762939</ele>
        <time>2021-03-21T16:27:14.000Z</time>
      </trkpt>
      <trkpt lat="49.38368" lon="3.37329">
        <ele>36.599998474121</ele>
        <time>2021-03-21T16:27:16.000Z</time>
      </trkpt>
      <trkpt lat="49.38365" lon="3.37316">
        <ele>38</ele>
        <time>2021-03-21T16:27:18.000Z</time>
      </trkpt>
      <trkpt lat="49.38365" lon="3.37298">
        <ele>39.599998474121</ele>
        <time>2021-03-21T16:27:21.000Z</time>
      </trkpt>
      <trkpt lat="49.38362" lon="3.37262">
        <ele>42.599998474121</ele>
        <time>2021-03-21T16:27:26.000Z</time>
      </trkpt>
      <trkpt lat="49.38357" lon="3.37228">
        <ele>44.599998474121</ele>
        <time>2021-03-21T16:27:31.000Z</time>
      </trkpt>
      <trkpt lat="49.38356" lon="3.37199">
        <ele>45</ele>
        <time>2021-03-21T16:27:35.000Z</time>
      </trkpt>
      <trkpt lat="49.38358" lon="3.37185">
        <ele>45</ele>
        <time>2021-03-21T16:27:37.000Z</time>
      </trkpt>
      <trkpt lat="49.38363" lon="3.37137">
        <ele>44.200000762939</ele>
        <time>2021-03-21T16:27:44.000Z</time>
      </trkpt>
      <trkpt lat="49.38365" lon="3.37116">
        <ele>43.599998474121</ele>
        <time>2021-03-21T16:27:47.000Z</time>
      </trkpt>
      <trkpt lat="49.38366" lon="3.37102">
        <ele>43.599998474121</ele>
        <time>2021-03-21T16:27:49.000Z</time>
      </trkpt>
      <trkpt lat="49.38368" lon="3.37096">
        <ele>43.799999237061</ele>
        <time>2021-03-21T16:27:50.000Z</time>
      </trkpt>
      <trkpt lat="49.38371" lon="3.37081">
        <ele>43.599998474121</ele>
        <time>2021-03-21T16:27:52.000Z</time>
      </trkpt>
      <trkpt lat="49.38373" lon="3.37065">
        <ele>43</ele>
        <time>2021-03-21T16:27:54.000Z</time>
      </trkpt>
      <trkpt lat="49.38377" lon="3.37033">
        <ele>42</ele>
        <time>2021-03-21T16:27:58.000Z</time>
      </trkpt>
      <trkpt lat="49.38386" lon="3.36988">
        <ele>40.599998474121</ele>
        <time>2021-03-21T16:28:04.000Z</time>
      </trkpt>
      <trkpt lat="49.38397" lon="3.36936">
        <ele>39.799999237061</ele>
        <time>2021-03-21T16:28:11.000Z</time>
      </trkpt>
      <trkpt lat="49.38408" lon="3.36902">
        <ele>39</ele>
        <time>2021-03-21T16:28:16.000Z</time>
      </trkpt>
      <trkpt lat="49.38409" lon="3.36895">
        <ele>38.599998474121</ele>
        <time>2021-03-21T16:28:17.000Z</time>
      </trkpt>
      <trkpt lat="49.38414" lon="3.36881">
        <ele>38.400001525879</ele>
        <time>2021-03-21T16:28:19.000Z</time>
      </trkpt>
      <trkpt lat="49.38418" lon="3.36868">
        <ele>39.799999237061</ele>
        <time>2021-03-21T16:28:21.000Z</time>
      </trkpt>
      <trkpt lat="49.38431" lon="3.36838">
        <ele>41.799999237061</ele>
        <time>2021-03-21T16:28:26.000Z</time>
      </trkpt>
      <trkpt lat="49.3844" lon="3.36819">
        <ele>42.400001525879</ele>
        <time>2021-03-21T16:28:29.000Z</time>
      </trkpt>
      <trkpt lat="49.38447" lon="3.36808">
        <ele>42.599998474121</ele>
        <time>2021-03-21T16:28:31.000Z</time>
      </trkpt>
      <trkpt lat="49.3845" lon="3.36801">
        <ele>42.599998474121</ele>
        <time>2021-03-21T16:28:32.000Z</time>
      </trkpt>
      <trkpt lat="49.38457" lon="3.36788">
        <ele>42.400001525879</ele>
        <time>2021-03-21T16:28:34.000Z</time>
      </trkpt>
      <trkpt lat="49.38466" lon="3.3677">
        <ele>42.200000762939</ele>
        <time>2021-03-21T16:28:37.000Z</time>
      </trkpt>
      <trkpt lat="49.38469" lon="3.36764">
        <ele>42.400001525879</ele>
        <time>2021-03-21T16:28:38.000Z</time>
      </trkpt>
      <trkpt lat="49.38485" lon="3.36734">
        <ele>43.200000762939</ele>
        <time>2021-03-21T16:28:43.000Z</time>
      </trkpt>
      <trkpt lat="49.38491" lon="3.36722">
        <ele>43</ele>
        <time>2021-03-21T16:28:45.000Z</time>
      </trkpt>
      <trkpt lat="49.38511" lon="3.36677">
        <ele>44</ele>
        <time>2021-03-21T16:28:52.000Z</time>
      </trkpt>
      <trkpt lat="49.3852" lon="3.36658">
        <ele>43.799999237061</ele>
        <time>2021-03-21T16:28:55.000Z</time>
      </trkpt>
      <trkpt lat="49.38525" lon="3.36646">
        <ele>43.400001525879</ele>
        <time>2021-03-21T16:28:57.000Z</time>
      </trkpt>
      <trkpt lat="49.38533" lon="3.36629">
        <ele>43.400001525879</ele>
        <time>2021-03-21T16:29:00.000Z</time>
      </trkpt>
      <trkpt lat="49.38539" lon="3.36618">
        <ele>43.400001525879</ele>
        <time>2021-03-21T16:29:02.000Z</time>
      </trkpt>
      <trkpt lat="49.38542" lon="3.36614">
        <ele>43.200000762939</ele>
        <time>2021-03-21T16:29:03.000Z</time>
      </trkpt>
      <trkpt lat="49.38548" lon="3.36604">
        <ele>43</ele>
        <time>2021-03-21T16:29:05.000Z</time>
      </trkpt>
      <trkpt lat="49.38553" lon="3.36595">
        <ele>43</ele>
        <time>2021-03-21T16:29:07.000Z</time>
      </trkpt>
      <trkpt lat="49.38573" lon="3.36573">
        <ele>43.799999237061</ele>
        <time>2021-03-21T16:29:14.000Z</time>
      </trkpt>
      <trkpt lat="49.38583" lon="3.36568">
        <ele>44.200000762939</ele>
        <time>2021-03-21T16:29:18.000Z</time>
      </trkpt>
      <trkpt lat="49.38598" lon="3.36556">
        <ele>44.200000762939</ele>
        <time>2021-03-21T16:29:24.000Z</time>
      </trkpt>
      <trkpt lat="49.38616" lon="3.36541">
        <ele>44.200000762939</ele>
        <time>2021-03-21T16:29:31.000Z</time>
      </trkpt>
      <trkpt lat="49.38633" lon="3.36523">
        <ele>44</ele>
        <time>2021-03-21T16:29:37.000Z</time>
      </trkpt>
      <trkpt lat="49.3864" lon="3.36517">
        <ele>44.400001525879</ele>
        <time>2021-03-21T16:29:39.000Z</time>
      </trkpt>
      <trkpt lat="49.38659" lon="3.36499">
        <ele>44.200000762939</ele>
        <time>2021-03-21T16:29:44.000Z</time>
      </trkpt>
      <trkpt lat="49.38688" lon="3.3647">
        <ele>44</ele>
        <time>2021-03-21T16:29:51.000Z</time>
      </trkpt>
      <trkpt lat="49.38708" lon="3.36446">
        <ele>45.200000762939</ele>
        <time>2021-03-21T16:29:56.000Z</time>
      </trkpt>
      <trkpt lat="49.38716" lon="3.36437">
        <ele>45.799999237061</ele>
        <time>2021-03-21T16:29:58.000Z</time>
      </trkpt>
      <trkpt lat="49.38724" lon="3.36432">
        <ele>46</ele>
        <time>2021-03-21T16:30:00.000Z</time>
      </trkpt>
      <trkpt lat="49.38728" lon="3.36427">
        <ele>46</ele>
        <time>2021-03-21T16:30:01.000Z</time>
      </trkpt>
      <trkpt lat="49.38731" lon="3.36422">
        <ele>45.799999237061</ele>
        <time>2021-03-21T16:30:02.000Z</time>
      </trkpt>
      <trkpt lat="49.38744" lon="3.36398">
        <ele>44.400001525879</ele>
        <time>2021-03-21T16:30:06.000Z</time>
      </trkpt>
      <trkpt lat="49.38758" lon="3.36375">
        <ele>43.599998474121</ele>
        <time>2021-03-21T16:30:10.000Z</time>
      </trkpt>
      <trkpt lat="49.38765" lon="3.36361">
        <ele>43.200000762939</ele>
        <time>2021-03-21T16:30:12.000Z</time>
      </trkpt>
      <trkpt lat="49.38776" lon="3.36335">
        <ele>43</ele>
        <time>2021-03-21T16:30:16.000Z</time>
      </trkpt>
      <trkpt lat="49.38781" lon="3.36322">
        <ele>42.599998474121</ele>
        <time>2021-03-21T16:30:18.000Z</time>
      </trkpt>
      <trkpt lat="49.38786" lon="3.36303">
        <ele>42</ele>
        <time>2021-03-21T16:30:21.000Z</time>
      </trkpt>
      <trkpt lat="49.38786" lon="3.36288">
        <ele>41.599998474121</ele>
        <time>2021-03-21T16:30:23.000Z</time>
      </trkpt>
      <trkpt lat="49.38786" lon="3.36252">
        <ele>40.799999237061</ele>
        <time>2021-03-21T16:30:28.000Z</time>
      </trkpt>
      <trkpt lat="49.38787" lon="3.36245">
        <ele>40.599998474121</ele>
        <time>2021-03-21T16:30:29.000Z</time>
      </trkpt>
      <trkpt lat="49.38788" lon="3.36238">
        <ele>40.200000762939</ele>
        <time>2021-03-21T16:30:30.000Z</time>
      </trkpt>
      <trkpt lat="49.38789" lon="3.36225">
        <ele>40.200000762939</ele>
        <time>2021-03-21T16:30:32.000Z</time>
      </trkpt>
      <trkpt lat="49.38788" lon="3.36211">
        <ele>40.400001525879</ele>
        <time>2021-03-21T16:30:34.000Z</time>
      </trkpt>
      <trkpt lat="49.38786" lon="3.36173">
        <ele>41</ele>
        <time>2021-03-21T16:30:40.000Z</time>
      </trkpt>
      <trkpt lat="49.38783" lon="3.3616">
        <ele>41.400001525879</ele>
        <time>2021-03-21T16:30:42.000Z</time>
      </trkpt>
      <trkpt lat="49.3878" lon="3.3614">
        <ele>42</ele>
        <time>2021-03-21T16:30:45.000Z</time>
      </trkpt>
      <trkpt lat="49.38776" lon="3.36127">
        <ele>42.400001525879</ele>
        <time>2021-03-21T16:30:47.000Z</time>
      </trkpt>
      <trkpt lat="49.38772" lon="3.36115">
        <ele>42.599998474121</ele>
        <time>2021-03-21T16:30:49.000Z</time>
      </trkpt>
      <trkpt lat="49.38764" lon="3.36088">
        <ele>42.599998474121</ele>
        <time>2021-03-21T16:30:54.000Z</time>
      </trkpt>
      <trkpt lat="49.38762" lon="3.36083">
        <ele>42.599998474121</ele>
        <time>2021-03-21T16:30:55.000Z</time>
      </trkpt>
      <trkpt lat="49.38753" lon="3.3606">
        <ele>42.200000762939</ele>
        <time>2021-03-21T16:30:59.000Z</time>
      </trkpt>
      <trkpt lat="49.38738" lon="3.36019">
        <ele>42</ele>
        <time>2021-03-21T16:31:06.000Z</time>
      </trkpt>
      <trkpt lat="49.38726" lon="3.35999">
        <ele>42</ele>
        <time>2021-03-21T16:31:10.000Z</time>
      </trkpt>
      <trkpt lat="49.38724" lon="3.35993">
        <ele>42</ele>
        <time>2021-03-21T16:31:11.000Z</time>
      </trkpt>
      <trkpt lat="49.38722" lon="3.35987">
        <ele>42</ele>
        <time>2021-03-21T16:31:12.000Z</time>
      </trkpt>
      <trkpt lat="49.38715" lon="3.3597">
        <ele>41.799999237061</ele>
        <time>2021-03-21T16:31:15.000Z</time>
      </trkpt>
      <trkpt lat="49.38702" lon="3.35941">
        <ele>42</ele>
        <time>2021-03-21T16:31:20.000Z</time>
      </trkpt>
      <trkpt lat="49.38696" lon="3.3593">
        <ele>42</ele>
        <time>2021-03-21T16:31:22.000Z</time>
      </trkpt>
      <trkpt lat="49.38685" lon="3.35908">
        <ele>42</ele>
        <time>2021-03-21T16:31:26.000Z</time>
      </trkpt>
      <trkpt lat="49.38665" lon="3.35865">
        <ele>41.200000762939</ele>
        <time>2021-03-21T16:31:34.000Z</time>
      </trkpt>
      <trkpt lat="49.3866" lon="3.35853">
        <ele>41</ele>
        <time>2021-03-21T16:31:39.000Z</time>
      </trkpt>
      <trkpt lat="49.38659" lon="3.35852">
        <ele>41</ele>
        <time>2021-03-21T16:31:40.000Z</time>
      </trkpt>
      <trkpt lat="49.38655" lon="3.3585">
        <ele>41</ele>
        <time>2021-03-21T16:31:44.000Z</time>
      </trkpt>
      <trkpt lat="49.38652" lon="3.35845">
        <ele>41</ele>
        <time>2021-03-21T16:31:46.000Z</time>
      </trkpt>
      <trkpt lat="49.38641" lon="3.35823">
        <ele>40.599998474121</ele>
        <time>2021-03-21T16:31:51.000Z</time>
      </trkpt>
      <trkpt lat="49.38626" lon="3.35795">
        <ele>40.400001525879</ele>
        <time>2021-03-21T16:31:57.000Z</time>
      </trkpt>
      <trkpt lat="49.38621" lon="3.35785">
        <ele>40.599998474121</ele>
        <time>2021-03-21T16:31:59.000Z</time>
      </trkpt>
      <trkpt lat="49.38609" lon="3.35758">
        <ele>41</ele>
        <time>2021-03-21T16:32:04.000Z</time>
      </trkpt>
      <trkpt lat="49.38599" lon="3.35738">
        <ele>41</ele>
        <time>2021-03-21T16:32:08.000Z</time>
      </trkpt>
      <trkpt lat="49.38591" lon="3.35722">
        <ele>41</ele>
        <time>2021-03-21T16:32:11.000Z</time>
      </trkpt>
      <trkpt lat="49.38567" lon="3.35676">
        <ele>41</ele>
        <time>2021-03-21T16:32:20.000Z</time>
      </trkpt>
      <trkpt lat="49.38551" lon="3.35655">
        <ele>40.799999237061</ele>
        <time>2021-03-21T16:32:26.000Z</time>
      </trkpt>
      <trkpt lat="49.38548" lon="3.3565">
        <ele>40.799999237061</ele>
        <time>2021-03-21T16:32:29.000Z</time>
      </trkpt>
      <trkpt lat="49.38548" lon="3.35648">
        <ele>40.599998474121</ele>
        <time>2021-03-21T16:32:30.000Z</time>
      </trkpt>
      <trkpt lat="49.38548" lon="3.35646">
        <ele>40.599998474121</ele>
        <time>2021-03-21T16:32:31.000Z</time>
      </trkpt>
      <trkpt lat="49.38545" lon="3.35634">
        <ele>40.200000762939</ele>
        <time>2021-03-21T16:32:34.000Z</time>
      </trkpt>
      <trkpt lat="49.38539" lon="3.35626">
        <ele>40.200000762939</ele>
        <time>2021-03-21T16:32:36.000Z</time>
      </trkpt>
      <trkpt lat="49.38532" lon="3.35613">
        <ele>40</ele>
        <time>2021-03-21T16:32:38.000Z</time>
      </trkpt>
      <trkpt lat="49.38529" lon="3.35607">
        <ele>40</ele>
        <time>2021-03-21T16:32:39.000Z</time>
      </trkpt>
      <trkpt lat="49.38516" lon="3.35586">
        <ele>40.200000762939</ele>
        <time>2021-03-21T16:32:42.000Z</time>
      </trkpt>
      <trkpt lat="49.38511" lon="3.3558">
        <ele>40.400001525879</ele>
        <time>2021-03-21T16:32:43.000Z</time>
      </trkpt>
      <trkpt lat="49.38505" lon="3.35574">
        <ele>40.599998474121</ele>
        <time>2021-03-21T16:32:44.000Z</time>
      </trkpt>
      <trkpt lat="49.38481" lon="3.35557">
        <ele>39</ele>
        <time>2021-03-21T16:32:48.000Z</time>
      </trkpt>
      <trkpt lat="49.38434" lon="3.35521">
        <ele>38.200000762939</ele>
        <time>2021-03-21T16:32:56.000Z</time>
      </trkpt>
      <trkpt lat="49.3842" lon="3.35511">
        <ele>38.400001525879</ele>
        <time>2021-03-21T16:32:59.000Z</time>
      </trkpt>
      <trkpt lat="49.38418" lon="3.35506">
        <ele>38.599998474121</ele>
        <time>2021-03-21T16:33:00.000Z</time>
      </trkpt>
      <trkpt lat="49.38414" lon="3.35477">
        <ele>39.599998474121</ele>
        <time>2021-03-21T16:33:05.000Z</time>
      </trkpt>
      <trkpt lat="49.38409" lon="3.35456">
        <ele>41</ele>
        <time>2021-03-21T16:33:09.000Z</time>
      </trkpt>
      <trkpt lat="49.38407" lon="3.3545">
        <ele>41.599998474121</ele>
        <time>2021-03-21T16:33:10.000Z</time>
      </trkpt>
      <trkpt lat="49.38391" lon="3.3541">
        <ele>45.200000762939</ele>
        <time>2021-03-21T16:33:17.000Z</time>
      </trkpt>
      <trkpt lat="49.38382" lon="3.35386">
        <ele>46.400001525879</ele>
        <time>2021-03-21T16:33:21.000Z</time>
      </trkpt>
      <trkpt lat="49.38378" lon="3.35375">
        <ele>46.599998474121</ele>
        <time>2021-03-21T16:33:23.000Z</time>
      </trkpt>
      <trkpt lat="49.38372" lon="3.35359">
        <ele>46.599998474121</ele>
        <time>2021-03-21T16:33:26.000Z</time>
      </trkpt>
      <trkpt lat="49.38368" lon="3.35347">
        <ele>46.799999237061</ele>
        <time>2021-03-21T16:33:28.000Z</time>
      </trkpt>
      <trkpt lat="49.38364" lon="3.35334">
        <ele>47.400001525879</ele>
        <time>2021-03-21T16:33:30.000Z</time>
      </trkpt>
      <trkpt lat="49.38357" lon="3.35318">
        <ele>47.599998474121</ele>
        <time>2021-03-21T16:33:33.000Z</time>
      </trkpt>
      <trkpt lat="49.3835" lon="3.35307">
        <ele>47.799999237061</ele>
        <time>2021-03-21T16:33:35.000Z</time>
      </trkpt>
      <trkpt lat="49.38338" lon="3.35293">
        <ele>47.599998474121</ele>
        <time>2021-03-21T16:33:38.000Z</time>
      </trkpt>
      <trkpt lat="49.3832" lon="3.3527">
        <ele>45.599998474121</ele>
        <time>2021-03-21T16:33:43.000Z</time>
      </trkpt>
      <trkpt lat="49.38312" lon="3.35261">
        <ele>44.599998474121</ele>
        <time>2021-03-21T16:33:45.000Z</time>
      </trkpt>
      <trkpt lat="49.38303" lon="3.35253">
        <ele>43.799999237061</ele>
        <time>2021-03-21T16:33:47.000Z</time>
      </trkpt>
      <trkpt lat="49.38281" lon="3.35236">
        <ele>44.599998474121</ele>
        <time>2021-03-21T16:33:52.000Z</time>
      </trkpt>
      <trkpt lat="49.38271" lon="3.35232">
        <ele>45.200000762939</ele>
        <time>2021-03-21T16:33:54.000Z</time>
      </trkpt>
      <trkpt lat="49.38259" lon="3.35229">
        <ele>45.400001525879</ele>
        <time>2021-03-21T16:33:56.000Z</time>
      </trkpt>
      <trkpt lat="49.38235" lon="3.35223">
        <ele>45.400001525879</ele>
        <time>2021-03-21T16:34:00.000Z</time>
      </trkpt>
      <trkpt lat="49.38228" lon="3.35222">
        <ele>45.599998474121</ele>
        <time>2021-03-21T16:34:01.000Z</time>
      </trkpt>
      <trkpt lat="49.38223" lon="3.35221">
        <ele>45.799999237061</ele>
        <time>2021-03-21T16:34:02.000Z</time>
      </trkpt>
      <trkpt lat="49.38213" lon="3.35215">
        <ele>46.200000762939</ele>
        <time>2021-03-21T16:34:04.000Z</time>
      </trkpt>
      <trkpt lat="49.38208" lon="3.35211">
        <ele>46.400001525879</ele>
        <time>2021-03-21T16:34:05.000Z</time>
      </trkpt>
      <trkpt lat="49.38191" lon="3.35201">
        <ele>47</ele>
        <time>2021-03-21T16:34:09.000Z</time>
      </trkpt>
      <trkpt lat="49.38186" lon="3.35199">
        <ele>46.799999237061</ele>
        <time>2021-03-21T16:34:10.000Z</time>
      </trkpt>
      <trkpt lat="49.38181" lon="3.35197">
        <ele>46.599998474121</ele>
        <time>2021-03-21T16:34:11.000Z</time>
      </trkpt>
      <trkpt lat="49.3816" lon="3.35186">
        <ele>45.799999237061</ele>
        <time>2021-03-21T16:34:15.000Z</time>
      </trkpt>
      <trkpt lat="49.38155" lon="3.35183">
        <ele>45.400001525879</ele>
        <time>2021-03-21T16:34:16.000Z</time>
      </trkpt>
      <trkpt lat="49.38147" lon="3.35177">
        <ele>45</ele>
        <time>2021-03-21T16:34:18.000Z</time>
      </trkpt>
      <trkpt lat="49.38143" lon="3.35175">
        <ele>44.799999237061</ele>
        <time>2021-03-21T16:34:19.000Z</time>
      </trkpt>
      <trkpt lat="49.38135" lon="3.3517">
        <ele>44.200000762939</ele>
        <time>2021-03-21T16:34:21.000Z</time>
      </trkpt>
      <trkpt lat="49.38127" lon="3.35165">
        <ele>44</ele>
        <time>2021-03-21T16:34:23.000Z</time>
      </trkpt>
      <trkpt lat="49.38123" lon="3.35163">
        <ele>44</ele>
        <time>2021-03-21T16:34:24.000Z</time>
      </trkpt>
      <trkpt lat="49.38119" lon="3.35161">
        <ele>44</ele>
        <time>2021-03-21T16:34:25.000Z</time>
      </trkpt>
      <trkpt lat="49.3811" lon="3.35157">
        <ele>44</ele>
        <time>2021-03-21T16:34:27.000Z</time>
      </trkpt>
      <trkpt lat="49.38105" lon="3.35155">
        <ele>44.200000762939</ele>
        <time>2021-03-21T16:34:28.000Z</time>
      </trkpt>
      <trkpt lat="49.38101" lon="3.35152">
        <ele>44.599998474121</ele>
        <time>2021-03-21T16:34:29.000Z</time>
      </trkpt>
      <trkpt lat="49.38081" lon="3.35139">
        <ele>46</ele>
        <time>2021-03-21T16:34:33.000Z</time>
      </trkpt>
      <trkpt lat="49.38054" lon="3.35129">
        <ele>46.799999237061</ele>
        <time>2021-03-21T16:34:38.000Z</time>
      </trkpt>
      <trkpt lat="49.38043" lon="3.35125">
        <ele>46.200000762939</ele>
        <time>2021-03-21T16:34:40.000Z</time>
      </trkpt>
      <trkpt lat="49.38028" lon="3.35117">
        <ele>45</ele>
        <time>2021-03-21T16:34:43.000Z</time>
      </trkpt>
      <trkpt lat="49.38006" lon="3.35101">
        <ele>45.400001525879</ele>
        <time>2021-03-21T16:34:48.000Z</time>
      </trkpt>
      <trkpt lat="49.37993" lon="3.3509">
        <ele>47</ele>
        <time>2021-03-21T16:34:51.000Z</time>
      </trkpt>
      <trkpt lat="49.37981" lon="3.35078">
        <ele>49.799999237061</ele>
        <time>2021-03-21T16:34:54.000Z</time>
      </trkpt>
      <trkpt lat="49.37976" lon="3.35069">
        <ele>51</ele>
        <time>2021-03-21T16:34:56.000Z</time>
      </trkpt>
      <trkpt lat="49.37971" lon="3.35059">
        <ele>52.200000762939</ele>
        <time>2021-03-21T16:34:58.000Z</time>
      </trkpt>
      <trkpt lat="49.37958" lon="3.35037">
        <ele>52.200000762939</ele>
        <time>2021-03-21T16:35:02.000Z</time>
      </trkpt>
      <trkpt lat="49.37956" lon="3.35031">
        <ele>51.799999237061</ele>
        <time>2021-03-21T16:35:03.000Z</time>
      </trkpt>
      <trkpt lat="49.37952" lon="3.35014">
        <ele>49.400001525879</ele>
        <time>2021-03-21T16:35:05.000Z</time>
      </trkpt>
      <trkpt lat="49.3794" lon="3.34972">
        <ele>44.599998474121</ele>
        <time>2021-03-21T16:35:10.000Z</time>
      </trkpt>
      <trkpt lat="49.37938" lon="3.34964">
        <ele>44.200000762939</ele>
        <time>2021-03-21T16:35:11.000Z</time>
      </trkpt>
      <trkpt lat="49.37934" lon="3.34949">
        <ele>43.599998474121</ele>
        <time>2021-03-21T16:35:13.000Z</time>
      </trkpt>
      <trkpt lat="49.37927" lon="3.34926">
        <ele>43.400001525879</ele>
        <time>2021-03-21T16:35:16.000Z</time>
      </trkpt>
      <trkpt lat="49.37922" lon="3.34905">
        <ele>43.599998474121</ele>
        <time>2021-03-21T16:35:19.000Z</time>
      </trkpt>
      <trkpt lat="49.37919" lon="3.34891">
        <ele>42.799999237061</ele>
        <time>2021-03-21T16:35:21.000Z</time>
      </trkpt>
      <trkpt lat="49.37915" lon="3.34867">
        <ele>42.200000762939</ele>
        <time>2021-03-21T16:35:24.000Z</time>
      </trkpt>
      <trkpt lat="49.37909" lon="3.34852">
        <ele>41.799999237061</ele>
        <time>2021-03-21T16:35:26.000Z</time>
      </trkpt>
      <trkpt lat="49.37904" lon="3.3484">
        <ele>41.400001525879</ele>
        <time>2021-03-21T16:35:28.000Z</time>
      </trkpt>
      <trkpt lat="49.37903" lon="3.34826">
        <ele>40.799999237061</ele>
        <time>2021-03-21T16:35:30.000Z</time>
      </trkpt>
      <trkpt lat="49.37901" lon="3.34812">
        <ele>40.599998474121</ele>
        <time>2021-03-21T16:35:32.000Z</time>
      </trkpt>
      <trkpt lat="49.37898" lon="3.34798">
        <ele>40.400001525879</ele>
        <time>2021-03-21T16:35:34.000Z</time>
      </trkpt>
      <trkpt lat="49.37893" lon="3.34769">
        <ele>40.799999237061</ele>
        <time>2021-03-21T16:35:38.000Z</time>
      </trkpt>
      <trkpt lat="49.37891" lon="3.34761">
        <ele>40.799999237061</ele>
        <time>2021-03-21T16:35:39.000Z</time>
      </trkpt>
      <trkpt lat="49.37886" lon="3.34737">
        <ele>41.400001525879</ele>
        <time>2021-03-21T16:35:43.000Z</time>
      </trkpt>
      <trkpt lat="49.37885" lon="3.34715">
        <ele>42.200000762939</ele>
        <time>2021-03-21T16:35:48.000Z</time>
      </trkpt>
      <trkpt lat="49.37885" lon="3.34712">
        <ele>42.400001525879</ele>
        <time>2021-03-21T16:35:49.000Z</time>
      </trkpt>
      <trkpt lat="49.37883" lon="3.347">
        <ele>42.799999237061</ele>
        <time>2021-03-21T16:35:52.000Z</time>
      </trkpt>
      <trkpt lat="49.37884" lon="3.3468">
        <ele>44.200000762939</ele>
        <time>2021-03-21T16:35:56.000Z</time>
      </trkpt>
      <trkpt lat="49.37885" lon="3.34655">
        <ele>46.799999237061</ele>
        <time>2021-03-21T16:36:00.000Z</time>
      </trkpt>
      <trkpt lat="49.37888" lon="3.34635">
        <ele>48.799999237061</ele>
        <time>2021-03-21T16:36:03.000Z</time>
      </trkpt>
      <trkpt lat="49.37889" lon="3.34628">
        <ele>49.400001525879</ele>
        <time>2021-03-21T16:36:04.000Z</time>
      </trkpt>
      <trkpt lat="49.37888" lon="3.34621">
        <ele>50</ele>
        <time>2021-03-21T16:36:05.000Z</time>
      </trkpt>
      <trkpt lat="49.37889" lon="3.34597">
        <ele>50.200000762939</ele>
        <time>2021-03-21T16:36:08.000Z</time>
      </trkpt>
      <trkpt lat="49.3789" lon="3.34567">
        <ele>48.599998474121</ele>
        <time>2021-03-21T16:36:12.000Z</time>
      </trkpt>
      <trkpt lat="49.3789" lon="3.34553">
        <ele>47.799999237061</ele>
        <time>2021-03-21T16:36:14.000Z</time>
      </trkpt>
      <trkpt lat="49.3789" lon="3.34538">
        <ele>46.799999237061</ele>
        <time>2021-03-21T16:36:16.000Z</time>
      </trkpt>
      <trkpt lat="49.37888" lon="3.34494">
        <ele>44</ele>
        <time>2021-03-21T16:36:22.000Z</time>
      </trkpt>
      <trkpt lat="49.37887" lon="3.34473">
        <ele>43.200000762939</ele>
        <time>2021-03-21T16:36:25.000Z</time>
      </trkpt>
      <trkpt lat="49.37886" lon="3.34458">
        <ele>42.599998474121</ele>
        <time>2021-03-21T16:36:27.000Z</time>
      </trkpt>
      <trkpt lat="49.37884" lon="3.3443">
        <ele>42</ele>
        <time>2021-03-21T16:36:31.000Z</time>
      </trkpt>
      <trkpt lat="49.37884" lon="3.34417">
        <ele>42</ele>
        <time>2021-03-21T16:36:33.000Z</time>
      </trkpt>
      <trkpt lat="49.37881" lon="3.34395">
        <ele>41.200000762939</ele>
        <time>2021-03-21T16:36:37.000Z</time>
      </trkpt>
      <trkpt lat="49.37878" lon="3.34373">
        <ele>41.200000762939</ele>
        <time>2021-03-21T16:36:41.000Z</time>
      </trkpt>
      <trkpt lat="49.37874" lon="3.34348">
        <ele>41.799999237061</ele>
        <time>2021-03-21T16:36:46.000Z</time>
      </trkpt>
      <trkpt lat="49.37871" lon="3.34326">
        <ele>42.200000762939</ele>
        <time>2021-03-21T16:36:51.000Z</time>
      </trkpt>
      <trkpt lat="49.3787" lon="3.34316">
        <ele>42.400001525879</ele>
        <time>2021-03-21T16:36:53.000Z</time>
      </trkpt>
      <trkpt lat="49.37867" lon="3.34301">
        <ele>43</ele>
        <time>2021-03-21T16:36:55.000Z</time>
      </trkpt>
      <trkpt lat="49.37864" lon="3.34286">
        <ele>44.200000762939</ele>
        <time>2021-03-21T16:36:57.000Z</time>
      </trkpt>
      <trkpt lat="49.37862" lon="3.34269">
        <ele>44.799999237061</ele>
        <time>2021-03-21T16:36:59.000Z</time>
      </trkpt>
      <trkpt lat="49.37859" lon="3.34206">
        <ele>44.599998474121</ele>
        <time>2021-03-21T16:37:06.000Z</time>
      </trkpt>
      <trkpt lat="49.37855" lon="3.34167">
        <ele>42.200000762939</ele>
        <time>2021-03-21T16:37:11.000Z</time>
      </trkpt>
      <trkpt lat="49.37855" lon="3.34159">
        <ele>41.799999237061</ele>
        <time>2021-03-21T16:37:12.000Z</time>
      </trkpt>
      <trkpt lat="49.37855" lon="3.34151">
        <ele>41.599998474121</ele>
        <time>2021-03-21T16:37:13.000Z</time>
      </trkpt>
      <trkpt lat="49.37853" lon="3.34137">
        <ele>41</ele>
        <time>2021-03-21T16:37:15.000Z</time>
      </trkpt>
      <trkpt lat="49.37852" lon="3.3413">
        <ele>41.200000762939</ele>
        <time>2021-03-21T16:37:16.000Z</time>
      </trkpt>
      <trkpt lat="49.3785" lon="3.34116">
        <ele>41.599998474121</ele>
        <time>2021-03-21T16:37:18.000Z</time>
      </trkpt>
      <trkpt lat="49.37849" lon="3.341">
        <ele>42</ele>
        <time>2021-03-21T16:37:20.000Z</time>
      </trkpt>
      <trkpt lat="49.37849" lon="3.34093">
        <ele>42.200000762939</ele>
        <time>2021-03-21T16:37:21.000Z</time>
      </trkpt>
      <trkpt lat="49.37849" lon="3.34079">
        <ele>42.599998474121</ele>
        <time>2021-03-21T16:37:23.000Z</time>
      </trkpt>
      <trkpt lat="49.37849" lon="3.34065">
        <ele>42.400001525879</ele>
        <time>2021-03-21T16:37:25.000Z</time>
      </trkpt>
      <trkpt lat="49.37849" lon="3.34058">
        <ele>42.400001525879</ele>
        <time>2021-03-21T16:37:26.000Z</time>
      </trkpt>
      <trkpt lat="49.37847" lon="3.34037">
        <ele>42.200000762939</ele>
        <time>2021-03-21T16:37:29.000Z</time>
      </trkpt>
      <trkpt lat="49.37844" lon="3.33992">
        <ele>40.599998474121</ele>
        <time>2021-03-21T16:37:35.000Z</time>
      </trkpt>
      <trkpt lat="49.37843" lon="3.33961">
        <ele>40.400001525879</ele>
        <time>2021-03-21T16:37:39.000Z</time>
      </trkpt>
      <trkpt lat="49.37843" lon="3.33947">
        <ele>40.400001525879</ele>
        <time>2021-03-21T16:37:41.000Z</time>
      </trkpt>
      <trkpt lat="49.37841" lon="3.33907">
        <ele>40.799999237061</ele>
        <time>2021-03-21T16:37:46.000Z</time>
      </trkpt>
      <trkpt lat="49.3784" lon="3.33899">
        <ele>41.400001525879</ele>
        <time>2021-03-21T16:37:47.000Z</time>
      </trkpt>
      <trkpt lat="49.37839" lon="3.33883">
        <ele>42.200000762939</ele>
        <time>2021-03-21T16:37:49.000Z</time>
      </trkpt>
      <trkpt lat="49.37839" lon="3.33875">
        <ele>42.599998474121</ele>
        <time>2021-03-21T16:37:50.000Z</time>
      </trkpt>
      <trkpt lat="49.37836" lon="3.33837">
        <ele>44.599998474121</ele>
        <time>2021-03-21T16:37:55.000Z</time>
      </trkpt>
      <trkpt lat="49.37837" lon="3.33822">
        <ele>45</ele>
        <time>2021-03-21T16:37:57.000Z</time>
      </trkpt>
      <trkpt lat="49.37836" lon="3.33792">
        <ele>44.400001525879</ele>
        <time>2021-03-21T16:38:01.000Z</time>
      </trkpt>
      <trkpt lat="49.37835" lon="3.33779">
        <ele>43.400001525879</ele>
        <time>2021-03-21T16:38:03.000Z</time>
      </trkpt>
      <trkpt lat="49.37835" lon="3.33748">
        <ele>42.200000762939</ele>
        <time>2021-03-21T16:38:08.000Z</time>
      </trkpt>
      <trkpt lat="49.37836" lon="3.33735">
        <ele>41.599998474121</ele>
        <time>2021-03-21T16:38:10.000Z</time>
      </trkpt>
      <trkpt lat="49.37838" lon="3.33708">
        <ele>40</ele>
        <time>2021-03-21T16:38:14.000Z</time>
      </trkpt>
      <trkpt lat="49.37843" lon="3.33682">
        <ele>38.200000762939</ele>
        <time>2021-03-21T16:38:18.000Z</time>
      </trkpt>
      <trkpt lat="49.37847" lon="3.3367">
        <ele>37.599998474121</ele>
        <time>2021-03-21T16:38:20.000Z</time>
      </trkpt>
      <trkpt lat="49.37849" lon="3.33664">
        <ele>37.400001525879</ele>
        <time>2021-03-21T16:38:21.000Z</time>
      </trkpt>
      <trkpt lat="49.37854" lon="3.33646">
        <ele>37.200000762939</ele>
        <time>2021-03-21T16:38:24.000Z</time>
      </trkpt>
      <trkpt lat="49.3786" lon="3.33613">
        <ele>37.200000762939</ele>
        <time>2021-03-21T16:38:29.000Z</time>
      </trkpt>
      <trkpt lat="49.37863" lon="3.336">
        <ele>37.599998474121</ele>
        <time>2021-03-21T16:38:31.000Z</time>
      </trkpt>
      <trkpt lat="49.37872" lon="3.33576">
        <ele>38</ele>
        <time>2021-03-21T16:38:35.000Z</time>
      </trkpt>
      <trkpt lat="49.37877" lon="3.33564">
        <ele>38.200000762939</ele>
        <time>2021-03-21T16:38:37.000Z</time>
      </trkpt>
      <trkpt lat="49.37882" lon="3.33546">
        <ele>39.200000762939</ele>
        <time>2021-03-21T16:38:40.000Z</time>
      </trkpt>
      <trkpt lat="49.37886" lon="3.33533">
        <ele>39</ele>
        <time>2021-03-21T16:38:42.000Z</time>
      </trkpt>
      <trkpt lat="49.37892" lon="3.33522">
        <ele>39.200000762939</ele>
        <time>2021-03-21T16:38:44.000Z</time>
      </trkpt>
      <trkpt lat="49.37895" lon="3.33517">
        <ele>39.599998474121</ele>
        <time>2021-03-21T16:38:45.000Z</time>
      </trkpt>
      <trkpt lat="49.37901" lon="3.33508">
        <ele>40</ele>
        <time>2021-03-21T16:38:47.000Z</time>
      </trkpt>
      <trkpt lat="49.37903" lon="3.33503">
        <ele>40</ele>
        <time>2021-03-21T16:38:48.000Z</time>
      </trkpt>
      <trkpt lat="49.37905" lon="3.33497">
        <ele>40</ele>
        <time>2021-03-21T16:38:49.000Z</time>
      </trkpt>
      <trkpt lat="49.37914" lon="3.33467">
        <ele>40</ele>
        <time>2021-03-21T16:38:54.000Z</time>
      </trkpt>
      <trkpt lat="49.37922" lon="3.33439">
        <ele>41.400001525879</ele>
        <time>2021-03-21T16:38:59.000Z</time>
      </trkpt>
      <trkpt lat="49.37929" lon="3.33412">
        <ele>41.799999237061</ele>
        <time>2021-03-21T16:39:04.000Z</time>
      </trkpt>
      <trkpt lat="49.37937" lon="3.33382">
        <ele>43</ele>
        <time>2021-03-21T16:39:09.000Z</time>
      </trkpt>
      <trkpt lat="49.37943" lon="3.33357">
        <ele>43</ele>
        <time>2021-03-21T16:39:13.000Z</time>
      </trkpt>
      <trkpt lat="49.37944" lon="3.33349">
        <ele>43</ele>
        <time>2021-03-21T16:39:14.000Z</time>
      </trkpt>
      <trkpt lat="49.37945" lon="3.33343">
        <ele>42.799999237061</ele>
        <time>2021-03-21T16:39:15.000Z</time>
      </trkpt>
      <trkpt lat="49.37951" lon="3.33311">
        <ele>42.599998474121</ele>
        <time>2021-03-21T16:39:20.000Z</time>
      </trkpt>
      <trkpt lat="49.37959" lon="3.33277">
        <ele>42.400001525879</ele>
        <time>2021-03-21T16:39:26.000Z</time>
      </trkpt>
      <trkpt lat="49.3796" lon="3.33264">
        <ele>42.400001525879</ele>
        <time>2021-03-21T16:39:28.000Z</time>
      </trkpt>
      <trkpt lat="49.3796" lon="3.33251">
        <ele>42.400001525879</ele>
        <time>2021-03-21T16:39:30.000Z</time>
      </trkpt>
      <trkpt lat="49.3796" lon="3.33244">
        <ele>42.200000762939</ele>
        <time>2021-03-21T16:39:31.000Z</time>
      </trkpt>
      <trkpt lat="49.37964" lon="3.33226">
        <ele>42</ele>
        <time>2021-03-21T16:39:34.000Z</time>
      </trkpt>
      <trkpt lat="49.37968" lon="3.33214">
        <ele>42</ele>
        <time>2021-03-21T16:39:36.000Z</time>
      </trkpt>
      <trkpt lat="49.3797" lon="3.33208">
        <ele>42</ele>
        <time>2021-03-21T16:39:37.000Z</time>
      </trkpt>
      <trkpt lat="49.37975" lon="3.33197">
        <ele>42.400001525879</ele>
        <time>2021-03-21T16:39:39.000Z</time>
      </trkpt>
      <trkpt lat="49.37983" lon="3.33179">
        <ele>42.200000762939</ele>
        <time>2021-03-21T16:39:42.000Z</time>
      </trkpt>
      <trkpt lat="49.37996" lon="3.33149">
        <ele>41.599998474121</ele>
        <time>2021-03-21T16:39:47.000Z</time>
      </trkpt>
      <trkpt lat="49.38006" lon="3.33134">
        <ele>41.599998474121</ele>
        <time>2021-03-21T16:39:50.000Z</time>
      </trkpt>
      <trkpt lat="49.38017" lon="3.33122">
        <ele>42.400001525879</ele>
        <time>2021-03-21T16:39:53.000Z</time>
      </trkpt>
      <trkpt lat="49.3804" lon="3.33108">
        <ele>43.599998474121</ele>
        <time>2021-03-21T16:39:59.000Z</time>
      </trkpt>
      <trkpt lat="49.38069" lon="3.331">
        <ele>44</ele>
        <time>2021-03-21T16:40:07.000Z</time>
      </trkpt>
      <trkpt lat="49.38087" lon="3.33092">
        <ele>43.799999237061</ele>
        <time>2021-03-21T16:40:12.000Z</time>
      </trkpt>
      <trkpt lat="49.38117" lon="3.3308">
        <ele>44</ele>
        <time>2021-03-21T16:40:20.000Z</time>
      </trkpt>
      <trkpt lat="49.38141" lon="3.33071">
        <ele>44.200000762939</ele>
        <time>2021-03-21T16:40:27.000Z</time>
      </trkpt>
      <trkpt lat="49.38164" lon="3.33056">
        <ele>44</ele>
        <time>2021-03-21T16:40:34.000Z</time>
      </trkpt>
      <trkpt lat="49.38169" lon="3.33047">
        <ele>43.799999237061</ele>
        <time>2021-03-21T16:40:37.000Z</time>
      </trkpt>
      <trkpt lat="49.38169" lon="3.33044">
        <ele>43.799999237061</ele>
        <time>2021-03-21T16:40:38.000Z</time>
      </trkpt>
      <trkpt lat="49.38163" lon="3.33044">
        <ele>44</ele>
        <time>2021-03-21T16:40:41.000Z</time>
      </trkpt>
      <trkpt lat="49.38146" lon="3.33052">
        <ele>44.599998474121</ele>
        <time>2021-03-21T16:40:48.000Z</time>
      </trkpt>
      <trkpt lat="49.38143" lon="3.33058">
        <ele>44.799999237061</ele>
        <time>2021-03-21T16:40:50.000Z</time>
      </trkpt>
      <trkpt lat="49.38143" lon="3.33063">
        <ele>44.599998474121</ele>
        <time>2021-03-21T16:40:51.000Z</time>
      </trkpt>
      <trkpt lat="49.38151" lon="3.3309">
        <ele>44</ele>
        <time>2021-03-21T16:40:58.000Z</time>
      </trkpt>
      <trkpt lat="49.38158" lon="3.33115">
        <ele>43.400001525879</ele>
        <time>2021-03-21T16:41:04.000Z</time>
      </trkpt>
      <trkpt lat="49.38162" lon="3.33137">
        <ele>43</ele>
        <time>2021-03-21T16:41:08.000Z</time>
      </trkpt>
      <trkpt lat="49.38168" lon="3.33155">
        <ele>43</ele>
        <time>2021-03-21T16:41:11.000Z</time>
      </trkpt>
      <trkpt lat="49.38171" lon="3.33168">
        <ele>43</ele>
        <time>2021-03-21T16:41:13.000Z</time>
      </trkpt>
      <trkpt lat="49.38184" lon="3.33214">
        <ele>43.200000762939</ele>
        <time>2021-03-21T16:41:19.000Z</time>
      </trkpt>
      <trkpt lat="49.38194" lon="3.33247">
        <ele>42.799999237061</ele>
        <time>2021-03-21T16:41:24.000Z</time>
      </trkpt>
      <trkpt lat="49.38217" lon="3.33295">
        <ele>42</ele>
        <time>2021-03-21T16:41:33.000Z</time>
      </trkpt>
      <trkpt lat="49.38218" lon="3.33319">
        <ele>42.599998474121</ele>
        <time>2021-03-21T16:41:37.000Z</time>
      </trkpt>
      <trkpt lat="49.38216" lon="3.33324">
        <ele>43</ele>
        <time>2021-03-21T16:41:39.000Z</time>
      </trkpt>
      <trkpt lat="49.38212" lon="3.33324">
        <ele>43</ele>
        <time>2021-03-21T16:41:40.000Z</time>
      </trkpt>
      <trkpt lat="49.38199" lon="3.33322">
        <ele>43</ele>
        <time>2021-03-21T16:41:44.000Z</time>
      </trkpt>
      <trkpt lat="49.38171" lon="3.33324">
        <ele>43.799999237061</ele>
        <time>2021-03-21T16:41:51.000Z</time>
      </trkpt>
      <trkpt lat="49.38162" lon="3.33327">
        <ele>44</ele>
        <time>2021-03-21T16:41:55.000Z</time>
      </trkpt>
      <trkpt lat="49.38162" lon="3.33327">
        <ele>44</ele>
        <time>2021-03-21T16:41:56.000Z</time>
      </trkpt>
    </trkseg>
  </trk>
  <trk>
    <name><![CDATA[Soissons vauxbuin 37km_2]]></name>
    <trkseg>
      <trkpt lat="49.35534" lon="3.29691">
        <ele>74</ele>
        <time>2021-03-21T15:23:10.000Z</time>
      </trkpt>
      <trkpt lat="49.35534" lon="3.29697">
        <ele>73.400001525879</ele>
        <time>2021-03-21T15:23:12.000Z</time>
      </trkpt>
    </trkseg>
  </trk>
</gpx>